     2              OBSERVATION DATA    GPS                 RINEX VERSION / TYPE
teqc 1997Jul24 19970902 21:10:14UTC                         PGM / RUN BY / DATE
                                                            COMMENT
BIT 2 OF LLI FLAGS DATA COLLECTED UNDER A-S CONDITION       COMMENT
BIT 2 OF LLI FLAGS DATA COLLECTED UNDER A-S CONDITION       COMMENT
Original Marker Name: 55487.PINY                            COMMENT
Campaign Name: Salt. Tr. Crust. Monit. May-Jun 1986         COMMENT
4-Character Station Name: PINY                              COMMENT
6-Character Antenna Code: TI4100                            COMMENT
Vertical Measurement Point: PAE                             COMMENT
Vertical Offset to Rinex Ref. Point: 0.0000                 COMMENT
Radial Measurement Point: RRP                               COMMENT
Radial Offset to Rinex Ref. Point: 0.0000                   COMMENT
Antenna Height from Field Measurement: 1.5360 m             COMMENT
Original XYZ: -2369484.8036 -4761133.5901 3511098.5829      COMMENT
New XYZ position is based on association with SCEC monument COMMENT
E1D0K5S1+0011. Position of that monument is believed to be  COMMENT
valid to within 1 m horizontally; vertical accuracy         COMMENT
should be no worse than 3-times this value.                 COMMENT
                                                            COMMENT
Revised Rinex header created by UCSD GPS archive for        COMMENT
GSAC on 28-May-1999 (1999:148) 21:08:21 GMT                 COMMENT
For assistance contact dagnew@ucsd.edu or hjohnson@ucsd.edu COMMENT
                                                            COMMENT
PINYON FLAT NCMN 1981                                       MARKER NAME
05 NATIONAL GEODETIC SURVEY                                 OBSERVER / AGENCY
UT-09 TI 4100 1.0                                           REC # / TYPE / VERS
156 TI 4100                                                 ANT # / TYPE
 -2369636.0000 -4761325.0000  3511116.0000                  APPROX POSITION XYZ
        1.5360        0.0000        0.0000                  ANTENNA: DELTA H/E/N
     1     1     0                                          WAVELENGTH FACT L1/2
     4    P1    P2    L1    L2                              # / TYPES OF OBSERV
     6                                                      INTERVAL
  1986     6    18     0    46   17.000000                  TIME OF FIRST OBS
  1986     6    18     2    46   53.000000                  TIME OF LAST OBS
     0                                                      # OF SATELLITES
                                                            END OF HEADER
 86  6 18  0 46 17.0800000  0  4G 6G 8G 9G11
  20806489.767    20806495.887    36596368.977 8 -46127526.254 7
  24606638.105    24606645.957    57641463.860 7 -33032117.443 7
  20426306.239    20426310.604    22424168.025 7 -59888965.441 7
  21130784.621    21130790.671    37855115.865 8 -48257349.717 8
 86  6 18  0 46 23.0800000  0  4G 6G 8G 9G11
  20808165.980    20808173.434    36605183.387 7 -46120657.881 7
  24610880.046    24610885.149    57663745.072 7 -33014755.466 8
  20424602.926    20424607.856    22415220.676 8 -59895937.382 8
  21132777.115    21132782.702    37865590.096 8 -48249187.977 7
 86  6 18  0 46 29.0800000  0  4G 6G 8G 9G11
  20809847.673    20809854.022    36614019.058 7 -46113772.943 9
  24615118.807    24615124.897    57686025.718 7 -32997393.940 8
  20422903.077    20422910.219    22406292.001 7 -59902894.793 7
  21134772.584    21134778.473    37876079.739 9 -48241014.229 7
 86  6 18  0 46 35.0800000  0  4G 6G 8G 9G11
  20811533.499    20811539.416    36622876.006 8 -46106871.434 8
  24619357.526    24619364.821    57708305.841 8 -32980032.821 8
  20421207.764    20421213.646    22397382.019 7 -59909837.638 7
  21136772.217    21136777.904    37886584.749 8 -48232828.502 7
 86  6 18  0 46 41.0800000  0  4G 6G 8G 9G11
  20813223.150    20813229.257    36631754.208 7 -46099953.351 7
  24623597.509    24623605.436    57730585.324 7 -32962672.188 7
  20419515.791    20419521.847    22388490.830 7 -59916765.842 7
  21138773.745    21138779.675    37897105.070 8 -48224630.840 7
 86  6 18  0 46 47.0800000  0  4G 6G 8G 9G11
  20814917.162    20814922.476    36640653.660 7 -46093018.718 8
  24627837.154    24627843.683    57752864.232 8 -32945311.996 8
  20417828.288    20417834.731    22379618.316 6 -59923679.479 8
  21140778.712    21140784.126    37907640.732 8 -48216421.234 8
 86  6 18  0 46 53.0800000  0  3G 6G 9G11
  20816614.434    20816620.358    36649574.408 8 -46086067.496 7
  20416143.254    20416149.868    22370764.704 7 -59930578.395 7
  21142786.946    21142791.999    37918191.733 8 -48208199.661 7
 86  6 18  0 46 59.0800000  0  3G 6G 9G11
  20818315.625    20818321.315    36658516.406 7 -46079099.705 8
  20414461.510    20414468.626    22361929.936 6 -59937462.634 8
  21144797.182    21144802.487    37928758.033 9 -48199966.190 8
 86  6 18  0 47  5.0800000  0  3G 6G 9G11
  20820020.499    20820026.581    36667479.667 7 -46072115.358 7
  20412783.544    20412789.996    22353113.935 8 -59944332.230 7
  21146810.375    21146817.409    37939339.695 8 -48191720.753 9
 86  6 18  0 47 11.0800000  0  3G 6G 9G11
  20821730.491    20821736.799    36676464.197 7 -46065114.428 7
  20411108.672    20411115.303    22344316.776 7 -59951187.156 8
  21148826.142    21148834.215    37949936.619 8 -48183463.403 8
 86  6 18  0 47 17.0800000  0  3G 6G 9G11
  20823444.291    20823451.521    36685470.031 6 -46058096.905 8
  20409438.004    20409444.822    22335538.488 7 -59958027.381 8
  21150845.651    21150853.571    37960548.815 8 -48175194.175 9
 86  6 18  0 47 23.0800000  0  3G 6G 9G11
  20825162.413    20825169.230    36694497.129 7 -46051062.806 7
  20407772.000    20407777.065    22326779.074 7 -59964852.883 7
  21152868.998    21152875.486    37971176.272 7 -48166913.050 8
 86  6 18  0 47 29.0800000  0  3G 6G 9G11
  20826885.417    20826890.403    36703545.453 8 -46044012.178 8
  20406109.289    20406114.767    22318038.723 6 -59971663.567 7
  21154894.804    21154900.699    37981818.851 8 -48158620.128 8
 86  6 18  0 47 35.0800000  0  3G 6G 9G11
  20828610.256    20828616.840    36712615.013 8 -46036944.989 8
  20404450.176    20404454.738    22309317.178 8 -59978459.573 8
  21156923.790    21156930.267    37992476.572 9 -48150315.415 8
 86  6 18  0 47 41.0800000  0  3G 6G 9G11
  20830340.591    20830346.994    36721705.814 7 -46029861.257 7
  20402794.955    20402799.242    22300614.588 7 -59985240.826 7
  21158953.611    21158959.869    38003149.428 8 -48141998.896 8
 86  6 18  0 47 47.0800000  0  3G 6G 9G11
  20832074.703    20832079.916    36730817.736 8 -46022761.053 8
  20401143.306    20401147.019    22291930.866 7 -59992007.350 7
  21160987.001    21160992.906    38013837.345 8 -48133670.645 8
 86  6 18  0 47 53.0800000  0  3G 6G 9G11
  20833810.964    20833818.255    36739950.904 7 -46015644.308 7
  20399492.424    20399497.645    22283266.023 7 -59998759.185 7
  21163024.198    21163030.577    38024540.334 9 -48125330.650 7
 86  6 18  0 47 59.0800000  0  3G 6G 9G11
  20835554.551    20835559.351    36749105.412 7 -46008510.947 8
  20397847.703    20397853.472    22274620.270 6 -60005496.123 7
  21165064.004    21165068.617    38035258.521 9 -48116978.829 8
 86  6 18  0 48  5.0800000  0  3G 6G 9G11
  20837298.956    20837306.018    36758281.199 7 -46001360.983 8
  20396205.759    20396211.966    22265993.612 8 -60012218.208 8
  21167106.240    21167112.414    38045991.754 8 -48108615.265 8
 86  6 18  0 48 11.0800000  0  3G 6G 9G11
  20839049.589    20839056.249    36767478.274 8 -45994194.445 8
  20394568.624    20394573.594    22257386.025 7 -60018925.426 8
  21169151.650    21169157.715    38056740.139 9 -48100239.894 8
 86  6 18  0 48 17.0800000  0  3G 6G 9G11
  20840804.661    20840810.459    36776696.711 8 -45987011.256 8
  20392934.268    20392939.410    22248797.679 8 -60025617.649 7
  21171197.983    21171205.770    38067503.683 8 -48091852.722 7
 86  6 18  0 48 23.0800000  0  3G 6G 9G11
  20842562.647    20842568.651    36785936.447 8 -45979811.465 8
  20391302.128    20391309.070    22240228.491 8 -60032294.924 8
  21173250.117    21173257.096    38078282.355 8 -48083453.757 8
 86  6 18  0 48 29.0800000  0  3G 6G 9G11
  20844325.932    20844329.941    36795197.452 8 -45972595.102 7
  20389676.450    20389681.790    22231678.378 7 -60038957.367 7
  21175305.718    21175311.020    38089076.052 8 -48075043.091 9
 86  6 18  0 48 35.0800000  0  3G 6G 9G11
  20846092.213    20846096.520    36804479.801 7 -45965362.090 7
  20388052.419    20388057.725    22223147.447 7 -60045604.836 8
  21177362.780    21177367.671    38099884.783 8 -48066620.699 8
 86  6 18  0 48 41.0800000  0  3G 6G 9G11
  20847861.693    20847867.969    36813783.480 6 -45958112.477 7
  20386434.141    20386437.895    22214635.827 7 -60052237.267 7
  21179421.040    21179428.777    38110708.529 7 -48058186.620 8
 86  6 18  0 48 47.0800000  0  3G 6G 9G11
  20849636.193    20849642.308    36823108.356 7 -45950846.348 8
  20384816.652    20384822.740    22206143.249 8 -60058854.870 8
  21181484.654    21181491.201    38121547.218 8 -48049740.899 8
 86  6 18  0 48 53.0800000  0  3G 6G 9G11
  20851415.186    20851419.630    36832454.567 7 -45943563.598 7
  20383203.370    20383209.734    22197670.133 8 -60065457.288 8
  21183550.612    21183555.129    38132400.928 8 -48041283.454 8
 86  6 18  0 48 59.0800000  0  3G 6G 9G11
  20853196.102    20853202.379    36841822.107 8 -45936264.223 8
  20381595.563    20381601.629    22189216.248 7 -60072044.730 8
  21185617.374    21185623.082    38143269.630 8 -48032814.329 8
 86  6 18  0 49  5.0800000  0  3G 6G 9G11
  20854983.489    20854989.539    36851210.970 7 -45928948.238 7
  20379989.635    20379995.419    22180781.666 7 -60078617.123 7
  21187687.145    21187693.706    38154153.296 8 -48024333.562 7
 86  6 18  0 49 11.0800000  0  3G 6G 9G11
  20856775.008    20856780.724    36860621.100 7 -45921615.663 8
  20378389.405    20378395.789    22172366.331 7 -60085174.527 7
  21189761.261    21189766.725    38165051.846 8 -48015841.180 7
 86  6 18  0 49 17.0800000  0  3G 6G 9G11
  20858570.747    20858575.307    36870052.429 7 -45914266.577 7
  20376791.511    20376797.173    22163970.275 7 -60091716.902 7
  21191837.524    21191843.240    38175965.197 7 -48007337.276 7
 86  6 18  0 49 23.0800000  0  3G 6G 9G11
  20860368.794    20860374.248    36879504.891 8 -45906901.036 7
  20375197.412    20375203.760    22155593.416 7 -60098244.318 7
  21193917.819    21193923.871    38186893.305 7 -47998821.856 7
 86  6 18  0 49 29.0800000  0  3G 6G 9G11
  20862172.221    20862177.830    36888978.514 8 -45899518.987 8
  20373607.580    20373612.827    22147235.934 7 -60104756.647 7
  21196000.239    21196007.005    38197836.225 7 -47990294.908 7
 86  6 18  0 49 35.0800000  0  3G 6G 9G11
  20863978.558    20863984.778    36898473.501 8 -45892120.309 8
  20372020.789    20372025.968    22138897.819 8 -60111253.884 7
  21198085.975    21198093.571    38208793.961 8 -47981756.415 8
 86  6 18  0 49 41.0800000  0  3G 6G 9G11
  20865788.597    20865794.788    36907989.721 7 -45884705.066 9
  20370436.896    20370442.531    22130579.123 7 -60117735.992 8
  21200174.916    21200182.240    38219766.533 9 -47973206.365 9
 86  6 18  0 49 47.0800000  0  3G 6G 9G11
  20867602.769    20867610.567    36917527.155 8 -45877273.316 8
  20368857.680    20368862.948    22122279.728 8 -60124203.046 8
  21202264.776    21202273.382    38230753.830 8 -47964644.847 8
 86  6 18  0 49 53.0800000  0  3G 6G 9G11
  20869421.544    20869428.984    36927085.707 8 -45869825.102 7
  20367283.143    20367288.690    22113999.731 7 -60130654.999 8
  21204357.612    21204365.942    38241755.734 7 -47956071.938 9
 86  6 18  0 49 59.0800000  0  3G 6G 9G11
  20871244.775    20871251.963    36936665.388 7 -45862360.396 7
  20365709.084    20365716.331    22105738.964 8 -60137091.965 7
  21206455.302    21206461.800    38252772.268 7 -47947487.640 8
 86  6 18  0 50  5.0800000  0  3G 6G 9G11
  20873071.647    20873079.682    36946266.228 8 -45854879.252 7
  20364141.853    20364147.843    22097497.584 8 -60143513.810 7
  21208553.841    21208561.011    38263803.377 8 -47938891.962 8
 86  6 18  0 50 11.0800000  0  3G 6G 9G11
  20874903.785    20874911.545    36955888.214 7 -45847381.597 8
  20362578.743    20362582.550    22089275.529 7 -60149920.614 7
  21210655.480    21210662.691    38274849.111 8 -47930284.914 8
 86  6 18  0 50 17.0800000  0  3G 6G 9G11
  20876738.165    20876744.924    36965531.405 8 -45839867.430 8
  20361017.685    20361021.189    22081073.066 7 -60156312.140 8
  21212759.734    21212765.638    38285909.473 8 -47921666.449 8
 86  6 18  0 50 23.0800000  0  3G 6G 9G11
  20878578.138    20878583.004    36975195.783 9 -45832336.747 7
  20359460.808    20359465.245    22072890.029 7 -60162688.551 7
  21214868.222    21214873.427    38296984.467 8 -47913036.585 8
 86  6 18  0 50 29.0800000  0  3G 6G 9G11
  20880421.222    20880426.846    36984881.500 8 -45824789.436 7
  20357907.600    20357911.556    22064726.564 8 -60169049.697 8
  21216979.310    21216983.831    38308074.098 9 -47904395.303 8
 86  6 18  0 50 35.0800000  0  3G 6G 9G11
  20882268.075    20882272.960    36994588.440 8 -45817225.582 8
  20356357.668    20356361.488    22056582.719 8 -60175395.551 7
  21219092.238    21219096.426    38319178.326 8 -47895742.647 7
 86  6 18  0 50 41.0800000  0  3G 6G 9G11
  20884117.913    20884125.617    37004316.696 8 -45809645.132 7
  20354810.551    20354816.991    22048458.562 8 -60181726.075 8
  21221208.364    21221213.739    38330297.274 9 -47887078.526 8
 86  6 18  0 50 47.0800000  0  3G 6G 9G11
  20885973.603    20885980.781    37014066.174 7 -45802048.147 7
  20353267.615    20353274.298    22040354.011 8 -60188041.299 7
  21223327.727    21223333.432    38341430.754 8 -47878403.082 8
 86  6 18  0 50 53.0800000  0  3G 6G 9G11
  20887834.917    20887839.116    37023836.671 8 -45794434.782 7
  20351728.389    20351734.572    22032268.905 7 -60194341.375 7
  21225447.236    21225454.110    38352578.624 8 -47869716.433 8
 86  6 18  0 50 59.0800000  0  3G 6G 9G11
  20889697.322    20889703.243    37033628.151 8 -45786805.069 8
  20350194.126    20350200.532    22024203.219 7 -60200626.328 8
  21227571.659    21227579.182    38363740.784 8 -47861018.651 9
 86  6 18  0 51  5.0800000  0  3G 6G 9G11
  20891564.617    20891570.036    37043440.728 7 -45779158.901 7
  20348663.637    20348670.080    22016156.997 8 -60206896.099 8
  21229697.321    21229705.987    38374917.344 8 -47852309.653 9
 86  6 18  0 51 11.0800000  0  3G 6G 9G11
  20893435.477    20893440.929    37053274.547 8 -45771496.183 7
  20347136.543    20347142.285    22008130.422 7 -60213150.574 8
  21231828.416    21231836.527    38386108.400 8 -47843589.362 9
 86  6 18  0 51 17.0800000  0  3G 6G 9G11
  20895310.671    20895317.237    37063129.529 8 -45763816.982 6
  20345611.183    20345617.385    22000123.546 8 -60219389.702 8
  21233959.571    21233967.617    38397313.834 8 -47834857.858 8
 86  6 18  0 51 23.0800000  0  3G 6G 9G11
  20897189.983    20897196.028    37073005.645 8 -45756121.321 7
  20344093.063    20344098.073    21992136.392 8 -60225613.464 8
  21236094.618    21236102.732    38408533.705 7 -47826115.108 9
 86  6 18  0 51 29.0800000  0  3G 6G 9G11
  20899072.839    20899079.895    37082902.991 7 -45748409.101 7
  20342576.051    20342582.826    21984168.930 8 -60231821.855 8
  21238233.898    21238239.645    38419768.008 8 -47817361.099 8
 86  6 18  0 51 35.0800000  0  3G 6G 9G11
  20900959.222    20900966.465    37092821.559 8 -45740680.364 7
  20341064.864    20341068.959    21976221.255 8 -60238014.830 7
  21240374.351    21240378.643    38431016.679 9 -47808595.907 8
 86  6 18  0 51 41.0800000  0  3G 6G 9G11
  20902851.595    20902857.969    37102761.339 8 -45732935.080 7
  20339555.447    20339560.151    21968293.469 8 -60244192.344 7
  21242518.546    21242523.227    38442279.756 8 -47799819.483 8
 86  6 18  0 51 47.0800000  0  3G 6G 9G11
  20904746.847    20904754.172    37112722.387 7 -45725173.225 7
  20338051.991    20338056.093    21960385.444 8 -60250354.438 7
  21244663.761    21244668.347    38453557.156 8 -47791031.877 8
 86  6 18  0 51 53.0800000  0  3G 6G 9G11
  20906647.760    20906653.293    37122704.661 8 -45717394.832 7
  20336548.746    20336555.739    21952497.213 7 -60256501.127 8
  21246811.997    21246818.014    38464848.889 9 -47782233.130 9
 86  6 18  0 51 59.0800000  0  3G 6G 9G11
  20908551.129    20908556.513    37132708.069 8 -45709599.980 6
  20335052.273    20335058.635    21944628.849 8 -60262632.314 7
  21248962.757    21248969.173    38476154.998 8 -47773423.182 7
 86  6 18  0 52  5.0800000  0  3G 6G 9G11
  20910458.718    20910464.768    37142732.714 9 -45701788.576 8
  20333558.984    20333564.059    21936780.372 9 -60268748.017 7
  21251116.801    21251123.825    38487475.443 8 -47764602.049 8
 86  6 18  0 52 11.0800000  0  3G 6G 9G11
  20912370.879    20912376.912    37152778.514 8 -45693960.668 7
  20332070.421    20332075.693    21928951.767 7 -60274848.222 8
  21253273.595    21253281.334    38498810.164 8 -47755769.807 9
 86  6 18  0 52 17.0800000  0  3G 6G 9G11
  20914285.773    20914292.334    37162845.512 7 -45686116.258 8
  20330584.272    20330588.642    21921142.909 8 -60280933.040 8
  21255433.339    21255441.164    38510159.182 9 -47746926.426 9
 86  6 18  0 52 23.0800000  0  3G 6G 9G11
  20916206.401    20916210.608    37172933.658 7 -45678255.374 8
  20329101.708    20329107.405    21913354.042 8 -60287002.292 7
  21257595.741    21257603.867    38521522.425 8 -47738071.961 8
 86  6 18  0 52 29.0800000  0  3G 6G 9G11
  20918129.900    20918135.056    37183043.052 7 -45670377.942 7
  20327623.058    20327627.948    21905585.159 7 -60293055.972 8
  21259762.439    21259768.934    38532899.938 8 -47729206.368 8
 86  6 18  0 52 35.0800000  0  3G 6G 9G11
  20920056.950    20920062.579    37193173.677 8 -45662483.949 7
  20326149.153    20326152.796    21897836.285 8 -60299094.058 7
  21261930.454    21261935.957    38544291.660 9 -47720329.695 8
 86  6 18  0 52 41.0800000  0  3G 6G 9G11
  20921989.847    20921994.566    37203325.575 7 -45654573.371 7
  20324677.887    20324682.419    21890107.578 8 -60305116.429 8
  21264100.531    21264105.531    38555697.721 8 -47711441.848 8
 86  6 18  0 52 47.0800000  0  3G 6G 9G11
  20923925.433    20923930.285    37213498.802 8 -45646646.195 6
  20323210.424    20323214.911    21882399.007 7 -60311123.103 8
  21266272.724    21266278.958    38567118.139 8 -47702542.829 9
 86  6 18  0 52 53.0800000  0  3G 6G 9G11
  20925864.878    20925871.029    37223693.314 8 -45638702.414 7
  20321747.925    20321751.814    21874710.549 8 -60317114.120 7
  21268448.409    21268454.642    38578552.789 8 -47693632.712 7
 86  6 18  0 52 59.0800000  0  3G 6G 9G11
  20927809.249    20927815.419    37233909.077 8 -45630742.077 8
  20320288.921    20320293.485    21867042.219 8 -60323089.454 7
  21270625.781    21270633.067    38590001.676 8 -47684711.510 7
 86  6 18  0 53  5.0800000  0  3G 6G 9G11
  20929757.425    20929762.888    37244146.017 8 -45622765.251 8
  20318831.937    20318839.033    21859393.933 8 -60329049.153 8
  21272806.188    21272815.007    38601464.731 8 -47675779.252 8
 86  6 18  0 53 11.0800000  0  3G 6G 9G11
  20931710.281    20931714.719    37254403.996 8 -45614772.032 7
  20317381.218    20317387.176    21851765.675 7 -60334993.242 8
  21274992.116    21274998.493    38612941.812 8 -47666836.082 8
 86  6 18  0 53 17.0800000  0  3G 6G 9G11
  20933666.757    20933670.638    37264683.062 8 -45606762.369 8
  20315934.977    20315939.688    21844157.311 7 -60340921.852 8
  21277178.958    21277185.290    38624432.763 9 -47657882.086 8
 86  6 18  0 53 23.0800000  0  3G 6G 9G11
  20935626.159    20935631.014    37274983.039 8 -45598736.419 7
  20314490.634    20314494.889    21836568.939 8 -60346834.857 7
  21279369.692    21279374.939    38635937.535 9 -47648917.339 8
 86  6 18  0 53 29.0800000  0  3G 6G 9G11
  20937590.234    20937595.218    37285303.973 9 -45590694.136 8
  20313049.870    20313054.364    21829000.444 7 -60352732.389 7
  21281562.006    21281568.120    38647456.086 8 -47639941.837 7
 86  6 18  0 53 35.0800000  0  3G 6G 9G11
  20939558.617    20939564.576    37295646.004 8 -45582635.403 7
  20311612.516    20311618.666    21821451.949 8 -60358614.321 8
  21283756.578    21283762.825    38658988.546 9 -47630955.498 8
 86  6 18  0 53 41.0800000  0  3G 6G 9G11
  20941530.149    20941535.987    37306009.121 8 -45574560.258 7
  20310178.538    20310185.390    21813923.680 8 -60364480.517 7
  21285953.412    21285959.744    38670534.925 8 -47621958.319 7
 86  6 18  0 53 47.0800000  0  3G 6G 9G11
  20943506.263    20943511.411    37316393.386 9 -45566468.639 7
  20308751.597    20308756.350    21806415.618 7 -60370330.926 8
  21288152.818    21288159.940    38682095.254 9 -47612950.263 9
 86  6 18  0 53 53.0800000  0  3G 6G 9G11
  20945486.194    20945492.863    37326798.775 7 -45558360.539 6
  20307326.747    20307331.328    21798927.788 7 -60376165.617 7
  21290354.372    21290360.694    38693669.558 7 -47603931.336 7
 86  6 18  0 53 59.0800000  0  3G 6G 9G11
  20947469.496    20947476.059    37337225.351 8 -45550235.932 8
  20305904.356    20305911.913    21791460.236 7 -60381984.473 8
  21292559.274    21292566.668    38705257.821 8 -47594901.520 8
 86  6 18  0 54  5.0800000  0  3G 6G 9G11
  20949458.744    20949463.583    37347673.131 8 -45542094.817 7
  20304488.671    20304493.173    21784013.080 7 -60387787.456 8
  21294765.978    21294773.888    38716860.063 8 -47585860.817 8
 86  6 18  0 54 11.0800000  0  3G 6G 9G11
  20951450.766    20951456.127    37358142.084 7 -45533937.195 7
  20303075.698    20303080.114    21776586.181 7 -60393574.646 7
  21296977.921    21296984.532    38728476.216 8 -47576809.272 8
 86  6 18  0 54 17.0800000  0  3G 6G 9G11
  20953446.775    20953450.352    37368632.125 8 -45525763.139 8
  20301665.498    20301671.202    21769179.598 7 -60399346.000 8
  21299191.213    21299197.504    38740106.152 8 -47567746.983 8
 86  6 18  0 54 23.0800000  0  3G 6G 9G11
  20955447.789    20955451.453    37379143.280 8 -45517572.641 8
  20300259.930    20300266.366    21761793.254 7 -60405101.594 7
  21301407.965    21301413.211    38751750.038 8 -47558673.830 9
 86  6 18  0 54 29.0800000  0  3G 6G 9G11
  20957450.936    20957455.958    37389675.527 7 -45509365.701 8
  20298859.052    20298864.236    21754427.244 7 -60410841.346 8
  21303626.517    21303632.904    38763407.675 8 -47549589.949 7
 86  6 18  0 54 35.0800000  0  3G 6G 9G11
  20959458.973    20959465.387    37400228.940 8 -45501142.266 7
  20297462.303    20297466.468    21747081.614 8 -60416565.199 7
  21305847.562    21305852.778    38775079.228 8 -47540495.234 8
 86  6 18  0 54 41.0800000  0  3G 6G 9G11
  20961471.298    20961476.321    37410803.518 8 -45492902.338 8
  20296066.527    20296072.036    21739756.378 8 -60422273.170 7
  21308071.923    21308078.155    38786764.562 9 -47531389.775 9
 86  6 18  0 54 47.0800000  0  3G 6G 9G11
  20963487.855    20963493.247    37421399.308 8 -45484645.873 8
  20294676.977    20294681.822    21732451.569 8 -60427965.236 8
  21310297.290    21310303.639    38798463.763 8 -47522273.519 8
 86  6 18  0 54 53.0800000  0  3G 6G 9G11
  20965508.568    20965513.666    37432016.182 8 -45476373.009 8
  20293291.785    20293294.842    21725167.211 8 -60433641.348 7
  21312525.944    21312532.897    38810176.719 8 -47513146.551 9
 86  6 18  0 54 59.0800000  0  3G 6G 9G11
  20967532.892    20967538.816    37442654.107 8 -45468083.724 7
  20291907.957    20291912.910    21717903.289 7 -60439301.576 7
  21314756.145    21314764.171    38821903.312 9 -47504008.950 8
 86  6 18  0 55  5.0800000  0  3G 6G 9G11
  20969559.698    20969565.890    37453313.070 8 -45459778.038 8
  20290530.180    20290534.048    21710659.699 8 -60444945.931 7
  21316990.411    21316997.188    38833643.579 8 -47494860.692 8
 86  6 18  0 55 11.0800000  0  3G 6G 9G11
  20971593.297    20971599.902    37463993.022 9 -45451456.004 7
  20289154.639    20289160.889    21703436.468 7 -60450574.415 7
  21319226.908    21319233.561    38845397.400 8 -47485701.875 8
 86  6 18  0 55 17.0800000  0  3G 6G 9G11
  20973629.581    20973635.620    37474694.036 7 -45443117.557 7
  20287783.970    20287790.651    21696233.689 7 -60456186.965 8
  21321467.356    21321473.416    38857164.842 8 -47476532.455 8
 86  6 18  0 55 23.0800000  0  3G 6G 9G11
  20975669.779    20975675.830    37485416.050 8 -45434762.755 8
  20286416.575    20286424.972    21689051.319 7 -60461783.618 7
  21323709.922    21323713.049    38868945.884 8 -47467352.411 7
 86  6 18  0 55 29.0800000  0  3G 6G 9G11
  20977714.775    20977718.661    37496159.109 7 -45426391.541 8
  20285054.455    20285060.343    21681889.406 8 -60467364.328 7
  21325954.571    21325958.747    38880740.510 9 -47458161.775 7
 86  6 18  0 55 35.0800000  0  3G 6G 9G11
  20979763.865    20979768.081    37506923.220 7 -45418003.947 8
  20283694.474    20283701.411    21674748.043 8 -60472929.006 7
  21328201.832    21328204.915    38892548.745 9 -47448960.537 7
 86  6 18  0 55 41.0800000  0  3G 6G 9G11
  20981814.759    20981821.570    37517708.317 7 -45409599.968 8
  20282342.532    20282346.872    21667627.132 7 -60478477.774 7
  21330451.697    21330456.641    38904370.443 8 -47439748.822 7
 86  6 18  0 55 47.0800000  0  3G 6G 9G11
  20983870.460    20983878.184    37528514.367 7 -45401179.674 8
  20280989.464    20280994.625    21660526.749 7 -60484010.550 7
  21332703.989    21332707.390    38916205.544 8 -47430526.648 8
 86  6 18  0 55 53.0800000  0  3G 6G 9G11
  20985931.530    20985938.038    37539341.278 8 -45392743.133 8
  20279642.335    20279646.806    21653446.727 7 -60489527.442 7
  21334957.863    21334962.734    38928054.081 9 -47421294.026 8
 86  6 18  0 55 59.0800000  0  3G 6G 9G11
  20987996.401    20988000.931    37550189.015 8 -45384290.349 8
  20278299.010    20278303.316    21646387.173 8 -60495028.401 7
  21337212.361    21337219.378    38939915.934 7 -47412051.033 7
 86  6 18  0 56  5.0800000  0  3G 6G 9G11
  20990062.963    20990070.510    37561057.728 8 -45375821.229 8
  20276959.773    20276964.128    21639348.025 7 -60500513.437 7
  21339472.666    21339481.530    38951791.131 9 -47402797.623 8
 86  6 18  0 56 11.0800000  0  3G 6G 9G11
  20992136.019    20992142.320    37571947.491 9 -45367335.703 8
  20275624.461    20275628.834    21632329.637 7 -60505982.305 8
  21341735.350    21341743.954    38963679.825 8 -47393533.726 7
 86  6 18  0 56 17.0800000  0  3G 6G 9G11
  20994213.207    20994217.955    37582858.265 8 -45358833.815 8
  20274292.201    20274297.181    21625331.849 7 -60511435.142 8
  21344000.063    21344009.243    38975581.984 8 -47384259.329 8
 86  6 18  0 56 23.0800000  0  3G 6G 9G11
  20996293.519    20996299.255    37593790.115 8 -45350315.487 7
  20272964.303    20272969.748    21618354.803 8 -60516871.798 8
  21346268.445    21346275.224    38987497.599 9 -47374974.438 9
 86  6 18  0 56 29.0800000  0  3G 6G 9G11
  20998378.023    20998383.823    37604743.088 8 -45341780.725 7
  20271640.886    20271647.023    21611398.561 7 -60522292.244 8
  21348539.162    21348544.844    38999426.780 8 -47365678.969 8
 86  6 18  0 56 35.0800000  0  3G 6G 9G11
  21000465.468    21000471.008    37615717.172 8 -45333229.498 7
  20270320.042    20270326.924    21604463.096 8 -60527696.497 8
  21350812.271    21350817.402    39011369.463 8 -47356372.985 8
 86  6 18  0 56 41.0800000  0  3G 6G 9G11
  21002558.162    21002563.538    37626712.410 9 -45324661.766 7
  20269006.046    20269011.052    21597548.472 7 -60533084.518 8
  21353087.288    21353092.124    39023325.636 8 -47347056.472 7
 86  6 18  0 56 47.0800000  0  3G 6G 9G11
  21004654.246    21004660.419    37637728.749 7 -45316077.605 7
  20267694.171    20267698.234    21590654.741 8 -60538456.255 7
  21355364.367    21355370.267    39035295.239 8 -47337729.513 8
 86  6 18  0 56 53.0800000  0  3G 6G 9G11
  21006754.710    21006759.813    37648766.127 8 -45307477.053 7
  20266386.570    20266391.955    21583781.751 8 -60543811.824 8
  21357643.014    21357650.026    39047278.162 8 -47328392.178 8
 86  6 18  0 56 59.0800000  0  3G 6G 9G11
  21008858.981    21008864.339    37659824.586 8 -45298860.085 8
  20265082.529    20265086.369    21576929.682 8 -60549151.100 8
  21359926.251    21359932.658    39059274.396 8 -47319044.460 8
 86  6 18  0 57  5.0800000  0  3G 6G 9G11
  21010967.333    21010973.457    37670903.948 8 -45290226.821 7
  20263781.309    20263786.996    21570098.432 7 -60554474.159 7
  21362211.657    21362218.550    39071283.898 9 -47309686.411 8
 86  6 18  0 57 11.0800000  0  3G 6G 9G11
  21013080.708    21013085.207    37682004.380 8 -45281577.137 7
  20262485.873    20262490.146    21563287.973 9 -60559781.017 8
  21364500.351    21364508.347    39083306.772 8 -47300317.948 8
 86  6 18  0 57 17.0800000  0  3G 6G 9G11
  21015197.163    21015201.800    37693125.805 8 -45272911.093 8
  20261193.262    20261198.914    21556498.399 8 -60565071.600 8
  21366790.997    21366798.005    39095342.862 8 -47290939.184 8
 86  6 18  0 57 23.0800000  0  3G 6G 9G11
  21017316.097    21017322.508    37704268.184 8 -45264228.715 8
  20259905.964    20259910.989    21549729.654 8 -60570345.949 7
  21369083.787    21369089.861    39107392.151 8 -47281550.138 8
 86  6 18  0 57 29.0800000  0  3G 6G 9G11
  21019439.818    21019445.970    37715431.517 9 -45255530.034 8
  20258622.279    20258626.195    21542981.717 7 -60575604.063 7
  21371380.153    21371385.874    39119454.559 9 -47272150.858 7
 86  6 18  0 57 35.0800000  0  3G 6G 9G11
  21021568.566    21021573.935    37726615.687 8 -45246815.089 8
  20257341.043    20257347.997    21536254.574 7 -60580845.997 7
  21373678.182    21373684.026    39131530.012 8 -47262741.408 8
 86  6 18  0 57 41.0800000  0  3G 6G 9G11
  21023701.605    21023706.645    37737820.674 9 -45238083.935 7
  20256064.597    20256071.523    21529548.162 6 -60586071.779 7
  21375978.580    21375982.518    39143618.528 9 -47253321.773 7
 86  6 18  0 57 47.0800000  0  3G 6G 9G11
                  21025617.587                   -45230258.690 1
                  20254781.969    21522834.960 1
                  21378244.777    39155490.603 1
 86  6 18  0 58  5.0800000  0  3G 6G 9G11
                  21033099.003                    -4198455.984 3
                  20248237.796    -4211220.016 5
                  21384749.203    -4235651.655 2
 86  6 18  0 58 11.0800000  0  3G 6G 9G11
                  21036039.824                    -4184153.689 3
                  20246670.090    -4220560.276 4
                  21387782.720    -4258567.639 2
 86  6 18  1  1 47.0800000  0  3G 6G 9G11
                  21323419.719                    -4428100.858 3
                  20414610.180    -4865352.764 4
                  21692440.404    -4415747.740 2
 86  6 18  1  3 23.0800000  0  2G13G11
                  21367917.031    -5790652.187 3
                  21631719.395    -4224321.497 1
 86  6 18  1  4 41.0800000  0  2G13G11
                  21434243.488    -5967061.919 3
                  27438335.281    -6028007.607 1
 86  6 18  1 11 53.0800000  0  1G11
                  21726149.880    -9045631.119 8
 86  6 18  1 11 59.0800000  0  2G 6G11
                  21369097.310    -9037896.319 7
                  21728760.774    -9031871.895 8
 86  6 18  1 12  5.0800000  0  2G 6G11
                  21371795.995    -9023741.794 6
                  21731373.033    -9018102.392 7
 86  6 18  1 12 11.0800000  0  3G 6G11G13
                  21374480.235    -9009567.065 7
                  21734001.620    -9004322.834 7
                  21066230.117    -9162389.620 7
 86  6 18  1 12 17.0800000  0  4G 6G 9G11G13
  21377183.429    21377241.997    -8995372.592 7
  11851650.337 1  20114203.648    -9131948.423 7  21736625.606
                  21736691.572    -8990532.768 6  11852275.476 1
                  21064415.418    -9171866.624 8
 86  6 18  1 12 23.0800000  0  4G 6G 9G11G13
  21379888.299    21379894.474    -8981158.253 7
  11862726.454 8  20113548.043    -9135394.537 8  21739253.011
                  21739261.138    -8976732.511 7  11863029.014 7
                  21062622.461    -9181324.922 7
 86  6 18  1 12 29.0800000  0  4G 6G 9G11G13
  21382597.957    21382603.565    -8966923.992 8
  11873818.053 8  20112892.187    -9138817.996 7  21741880.693
                  21741888.565    -8962922.130 7  11873790.326 9
  21060825.719    21060833.757    -9190763.110 8  11925470.193 6
 86  6 18  1 12 35.0800000  0  4G 6G 9G11G13
  21385309.496    21385316.260    -8952669.917 8  11884925.128 7
  20112244.739    20112254.890    -9142217.417 7  11975216.517 7
  21744513.022    21744519.031    -8949101.632 8  11884560.039 8
  21059033.572    21059042.170    -9200181.785 8  11918130.980 9
 86  6 18  1 12 41.0800000  0  4G 6G 9G11G13
  21388025.380    21388033.520    -8938396.011 7  11896047.633 8
  20111604.822    20111611.125    -9145593.426 7  11972585.839 7
  21747143.834    21747150.278    -8935271.045 8  11895337.115 9
  21057245.097    21057251.821    -9209580.916 7  11910806.983 8
 86  6 18  1 12 47.0800000  0  4G 6G 9G11G13
  21390745.770    21390752.393    -8924102.217 8  11907185.652 8
  20110967.717    20110971.796    -9148945.967 7  11969973.474 7
  21749778.110    21749784.435    -8921430.347 8  11906122.072 8
  21055460.968    21055468.096    -9218960.551 7  11903498.197 8
 86  6 18  1 12 53.0800000  0  4G 6G 9G11G13
  21393469.309    21393476.893    -8909788.622 7  11918339.094 9
  20110333.721    20110338.642    -9152275.155 7  11967379.300 7
  21752414.238    21752419.935    -8907579.577 8  11916914.886 8
  21053679.959    21053686.769    -9228320.716 7  11896204.554 8
 86  6 18  1 12 59.0800000  0  4G 6G 9G11G13
  21396196.485    21396204.633    -8895455.246 8  11929507.939 8
  20109704.156    20109708.946    -9155580.931 8  11964803.371 7
  21755051.295    21755056.875    -8893718.681 9  11927715.576 8
  21051902.471    21051909.968    -9237661.424 7  11888926.087 8
 86  6 18  1 13  5.0800000  0  4G 6G 9G11G13
  21398927.811    21398935.759    -8881102.017 8  11940692.267 7
  20109078.984    20109084.430    -9158863.174 7  11962245.763 7
  21757691.530    21757695.767    -8879847.689 9  11938524.144 8
  21050128.555    21050134.999    -9246982.637 7  11881662.813 9
 86  6 18  1 13 11.0800000  0  4G 6G 9G11G13
  21401663.007    21401671.502    -8866728.870 8  11951892.100 8
  20108460.260    20108463.417    -9162121.919 7  11959706.506 8
  21760331.789    21760336.071    -8865966.666 9  11949340.534 8
  21048358.683    21048365.781    -9256284.317 8  11874414.774 8
 86  6 18  1 13 17.0800000  0  4G 6G 9G11G13
  21404403.217    21404409.503    -8852335.952 8  11963107.367 8
  20107844.346    20107848.734    -9165357.096 7  11957185.559 7
  21762975.133    21762980.850    -8852075.602 8  11960164.733 7
  21046591.844    21046599.493    -9265566.432 8  11867181.950 9
 86  6 18  1 13 23.0800000  0  4G 6G 9G11G13
  21407148.057    21407151.873    -8837923.404 9  11974337.912 7
  20107233.232    20107236.649    -9168569.021 8  11954682.762 8
  21765620.006    21765626.448    -8838174.691 8  11970996.633 9
  21044829.806    21044835.871    -9274829.157 8  11859964.248 8
 86  6 18  1 13 29.0800000  0  4G 6G 9G11G13
  21409893.845    21409898.559    -8823491.185 8  11985583.781 8
  20106626.317    20106629.332    -9171757.601 7  11952198.162 7
  21768268.182    21768273.600    -8824263.966 7  11981836.148 8
  21043069.829    21043077.716    -9284072.484 7  11852761.657 8
 86  6 18  1 13 35.0800000  0  4G 6G 9G11G13
  21412643.190    21412648.046    -8809039.341 8  11996844.962 8
  20106023.292    20106028.163    -9174922.774 7  11949731.786 6
  21770916.286    21770922.841    -8810343.357 8  11992683.376 8
  21041314.725    21041321.480    -9293296.341 8  11845574.245 8
 86  6 18  1 13 41.0800000  0  4G 6G 9G11G13
  21415397.011    21415402.459    -8794567.698 8  12008121.557 8
  20105426.359    20105430.297    -9178064.303 7  11947283.835 8
  21773567.399    21773573.934    -8796412.861 7  12003538.308 8
  21039563.076    21039570.902    -9302500.752 8  11838401.992 8
 86  6 18  1 13 47.0800000  0  4G 6G 9G11G13
  21418152.738    21418160.831    -8780076.203 8  12019413.619 8
  20104830.971    20104837.982    -9181182.243 8  11944854.256 8
  21776221.861    21776227.184    -8782472.364 8  12014401.026 8
  21037815.602    21037822.935    -9311685.586 8  11831244.990 9
 86  6 18  1 13 53.0800000  0  4G 6G 9G11G13
  21420915.554    21420921.548    -8765564.994 7  12030721.048 7
  20104242.659    20104249.170    -9184276.695 8  11942443.005 8
  21778876.551    21778882.897    -8768521.948 8  12025271.488 7
  21036071.601    21036078.988    -9320850.908 9  11824103.184 8
 86  6 18  1 13 59.0800000  0  4G 6G 9G11G13
  21423680.948    21423687.712    -8751034.027 7  12042043.874 7
  20103657.816    20103665.034    -9187347.542 7  11940050.125 7
  21781532.862    21781538.168    -8754561.640 9  12036149.653 8
  21034330.658    21034338.088    -9329996.682 8  11816976.611 8
 86  6 18  1 14  5.0800000  0  4G 6G 9G11G13
  21426449.710    21426456.396    -8736483.293 8  12053382.098 8
  20103077.588    20103084.264    -9190394.775 6  11937675.665 8
  21784190.355    21784197.320    -8740591.389 8  12047035.559 8
  21032594.927    21032601.181    -9339122.928 7  11809865.269 8
 86  6 18  1 14 11.0800000  0  4G 6G 9G11G13
  21429222.784    21429228.460    -8721912.817 8  12064735.705 8
  20102502.344    20102509.017    -9193418.356 7  11935319.637 8
  21786850.414    21786857.604    -8726611.282 8  12057929.135 8
  21030861.770    21030869.080    -9348229.651 8  11802769.125 8
 86  6 18  1 14 17.0800000  0  4G 6G 9G11G13
  21431998.392    21432004.219    -8707322.691 8  12076104.631 7
  20101932.749    20101938.172    -9196418.375 8  11932981.971 7
  21789511.886    21789520.472    -8712621.419 8  12068830.317 9
  21029132.726    21029139.726    -9357316.961 7  11795688.100 8
 86  6 18  1 14 23.0800000  0  4G 6G 9G11G13
  21434778.973    21434785.172    -8692712.959 9  12087488.837 7
  20101365.474    20101372.031    -9199394.800 7  11930662.678 7
  21792175.675    21792183.699    -8698621.809 8  12079739.084 7
  21027408.043    21027413.422    -9366384.800 8  11788622.263 8
 86  6 18  1 14 29.0800000  0  4G 6G 9G11G13
  21437563.275    21437568.614    -8678083.561 8  12098888.363 9
  20100803.788    20100809.273    -9202347.637 7  11928361.766 8
  21794841.594    21794850.327    -8684612.483 8  12090655.420 8
  21025684.956    21025692.194    -9375433.119 9  11781571.636 8
 86  6 18  1 14 35.0800000  0  4G 6G 9G11G13
  21440351.609    21440357.377    -8663434.522 8  12110303.205 7
  20100246.850    20100253.018    -9205276.924 7  11926079.210 7
  21797509.780    21797516.420    -8670593.451 8  12101579.327 8
  21023966.420    21023974.636    -9384461.905 8  11774536.229 8
 86  6 18  1 14 41.0800000  0  4G 6G 9G11G13
  21443141.341    21443147.146    -8648765.809 6  12121733.347 9
  20099693.531    20099699.762    -9208182.449 7  11923815.171 8
  21800180.497    21800186.352    -8656564.713 9  12112510.806 9
  21022253.614    21022259.291    -9393471.185 8  11767516.015 8
 86  6 18  1 14 47.0800000  0  4G 6G 9G11G13
  21445935.917    21445943.167    -8634077.495 8  12133178.784 9
  20099145.873    20099152.143    -9211064.383 7  11921569.491 8
  21802852.072    21802857.742    -8642526.324 9  12123449.805 8
  21020541.633    21020549.700    -9402461.003 8  11760510.964 8
 86  6 18  1 14 53.0800000  0  4G 6G 9G11G13
  21448735.307    21448742.086    -8619369.594 8  12144639.477 9
  20098602.034    20098607.300    -9213922.576 6  11919342.343 8
  21805525.523    21805530.527    -8628478.278 8  12134396.336 8
  21018834.857    21018841.470    -9411431.333 8  11753521.100 8
 86  6 18  1 14 59.0800000  0  4G 6G 9G11G13
  21451538.923    21451544.836    -8604642.109 8  12156115.431 9
  20098062.601    20098069.245    -9216757.146 8  11917133.585 8
  21808201.180    21808205.793    -8614420.603 9  12145350.364 8
  21017130.805    21017138.444    -9420382.196 8  11746546.411 8
 86  6 18  1 15  5.0800000  0  4G 6G 9G11G13
  21454344.237    21454351.372    -8589895.156 8  12167606.549 8
  20097526.509    20097533.756    -9219568.013 7  11914943.303 7
  21810877.170    21810883.167    -8600353.343 9  12156311.873 9
  21015432.332    21015438.899    -9429313.656 9  11739586.844 7
 86  6 18  1 15 11.0800000  0  4G 6G 9G11G13
  21457156.190    21457159.845    -8575128.657 8  12179112.910 9
  20096996.603    20097003.040    -9222355.281 8  11912771.399 7
  21813556.799    21813561.213    -8586276.534 9  12167280.832 8
  21013736.405    21013741.953    -9438225.650 8  11732642.448 8
 86  6 18  1 15 17.0800000  0  4G 6G 9G11G13
  21459968.357    21459974.880    -8560342.593 9  12190634.503 8
  20096471.032    20096476.672    -9225118.839 7  11910617.975 7
  21816237.851    21816242.208    -8572190.173 9  12178257.212 8
  21012044.942    21012049.851    -9447118.127 8  11725713.240 8
 86  6 18  1 15 23.0800000  0  4G 6G 9G11G13
  21462785.188    21462791.702    -8545537.022 8  12202171.307 8
  20095952.197    20095955.886    -9227858.675 8  11908483.040 8
  21818920.436    21818924.151    -8558094.316 8  12189240.999 8
  21010356.511    21010360.960    -9455991.176 8  11718799.181 8
 86  6 18  1 15 29.0800000  0  4G 6G 9G11G13
  21465606.891    21465612.424    -8530711.970 8  12213723.291 8
  20095432.877    20095437.876    -9230574.948 8  11906366.458 7
  21821604.584    21821608.245    -8543988.986 9  12200232.175 8
  21008671.919    21008676.545    -9464844.824 8  11711900.240 8
 86  6 18  1 15 35.0800000  0  4G 6G 9G11G13
  21468431.802    21468437.068    -8515867.454 9  12225290.426 8
  20094922.121    20094926.718    -9233267.412 6  11904268.431 7
  21824288.749    21824294.331    -8529874.205 9  12211230.703 8
  21006990.849    21006996.356    -9473679.083 8  11705016.416 8
 86  6 18  1 15 41.0800000  0  4G 6G 9G11G13
  21471260.335    21471265.594    -8501003.577 8  12236872.677 7
  20094412.551    20094417.946    -9235936.317 7  11902188.770 8
  21826975.900    21826983.319    -8515749.993 8  12222236.579 8
  21005312.696    21005319.831    -9482493.896 8  11698147.721 8
 86  6 18  1 15 47.0800000  0  4G 6G 9G11G13
  21474092.009    21474097.051    -8486120.253 7  12248470.064 8
  20093909.214    20093915.493    -9238581.456 7  11900127.609 7
  21829666.306    21829672.763    -8501616.322 7  12233249.816 8
  21003639.230    21003645.585    -9491289.324 8  11691294.152 8
 86  6 18  1 15 53.0800000  0  4G 6G 9G11G13
  21476927.843    21476933.940    -8471217.452 8  12260082.613 8
  20093410.785    20093416.622    -9241202.836 7  11898084.981 7
  21832356.434    21832364.060    -8487473.240 9  12244270.383 9
  21001968.836    21001976.161    -9500065.250 9  11684455.772 7
 86  6 18  1 15 59.0800000  0  4G 6G 9G11G13
  21479767.124    21479773.301    -8456295.077 8  12271710.445 9
  20092916.954    20092920.557    -9243800.226 8  11896061.040 7
  21835049.842    21835056.812    -8473320.604 9  12255298.404 8
  21000302.245    21000309.408    -9508821.627 8  11677632.629 8
 86  6 18  1 16  5.0800000  0  4G 6G 9G11G13
  21482609.180    21482617.102    -8441353.024 8  12283353.575 8
  20092426.303    20092431.314    -9246373.757 6  11894055.696 7
  21837743.350    21837751.878    -8459158.418 8  12266333.877 9
  20998638.687    20998647.039    -9517558.422 8  11670824.744 9
 86  6 18  1 16 11.0800000  0  4G 6G 9G11G13
  21485459.190    21485463.768    -8426391.421 7  12295011.957 8
  20091940.532    20091946.135    -9248923.257 8  11892069.058 7
  21840441.203    21840448.727    -8444986.623 7  12277376.822 7
  20996981.565    20996987.687    -9526275.628 8  11664032.110 8
 86  6 18  1 16 17.0800000  0  4G 6G 9G11G13
  21488311.200    21488315.254    -8411410.220 7  12306685.611 8
  20091459.809    20091466.331    -9251448.873 7  11890101.060 8
  21843139.518    21843146.745    -8430805.364 8  12288427.151 8
  20995326.159    20995333.442    -9534973.269 9  11657254.748 8
 86  6 18  1 16 23.0800000  0  4G 6G 9G11G13
  21491164.682    21491169.631    -8396409.485 8  12318374.490 8
  20090982.992    20090990.011    -9253950.495 7  11888151.745 7
  21845841.007    21845847.059    -8416614.689 8  12299484.814 8
  20993675.278    20993681.431    -9543651.348 8  11650492.614 8
 86  6 18  1 16 29.0800000  0  4G 6G 9G11G13
  21494022.383    21494027.420    -8381389.294 8  12330078.513 8
  20090511.307    20090518.249    -9256428.239 8  11886221.031 7
  21848542.649    21848548.993    -8402414.580 9  12310549.837 8
  20992026.973    20992033.448    -9552309.787 9  11643745.787 8
 86  6 18  1 16 35.0800000  0  4G 6G 9G11G13
  21496882.781    21496891.397    -8366349.590 9  12341797.762 8
  20090046.729    20090050.836    -9258881.877 7  11884309.117 8
  21851247.221    21851253.741    -8388205.015 8  12321622.212 8
  20990383.738    20990389.086    -9560948.629 9  11637014.224 8
 86  6 18  1 16 41.0800000  0  4G 6G 9G11G13
  21499749.733    21499756.592    -8351290.347 8  12353532.226 8
  20089583.466    20089588.409    -9261311.527 7  11882415.878 6
  21853951.638    21853959.350    -8373986.065 9  12332701.909 8
  20988743.043    20988748.109    -9569567.867 8  11630297.939 8
 86  6 18  1 16 47.0800000  0  4G 6G 9G11G13
  21502618.624    21502625.932    -8336211.610 8  12365281.876 9
  20089126.981    20089131.282    -9263717.163 7  11880541.330 7
  21856660.388    21856667.848    -8359757.748 9  12343788.906 8
  20987106.844    20987112.865    -9578167.473 8  11623596.938 8
 86  6 18  1 16 53.0800000  0  4G 6G 9G11G13
  21505491.274    21505498.535    -8321113.348 8  12377046.754 8
  20088673.095    20088678.424    -9266098.860 8  11878685.484 8
  21859370.502    21859377.413    -8345520.043 8  12354883.222 8
  20985472.935    20985479.129    -9586747.428 8  11616911.273 8
 86  6 18  1 16 59.0800000  0  4G 6G 9G11G13
  21508367.679    21508375.485    -8305995.697 7  12388826.719 8
  20088225.464    20088230.415    -9268456.528 7  11876848.337 7
  21862082.504    21862087.962    -8331273.065 8  12365984.761 8
  20983844.716    20983851.717    -9595307.884 8  11610240.793 8
 86  6 18  1 17  5.0800000  0  4G 6G 9G11G13
  21511248.863    21511256.155    -8290858.681 8  12400621.776 7
  20087781.126    20087785.061    -9270790.257 7  11875029.832 7
  21864795.155    21864800.267    -8317016.846 9  12377093.490 8
  20982219.710    20982226.232    -9603848.919 8  11603585.449 8
 86  6 18  1 17 11.0800000  0  4G 6G 9G11G13
  21514132.973    21514139.722    -8275702.371 8  12412431.895 9
  20087341.960    20087346.999    -9273100.013 8  11873230.036 7
  21867510.238    21867515.157    -8302751.472 8  12388209.368 9
  20980597.647    20980603.385    -9612370.498 8  11596945.273 8
 86  6 18  1 17 17.0800000  0  4G 6G 9G11G13
  21517020.946    21517027.820    -8260526.717 9  12424257.056 8
  20086906.414    20086911.381    -9275385.848 7  11871448.860 7
  21870226.362    21870230.935    -8288476.880 9  12399332.433 8
  20978979.909    20978986.301    -9620872.532 8  11590320.308 8
 86  6 18  1 17 23.0800000  0  4G 6G 9G11G13
  21519913.063    21519918.850    -8245331.706 8  12436097.325 8
  20086475.901    20086481.962    -9277647.629 8  11869686.420 7
  21872943.658    21872949.149    -8274193.125 8  12410462.633 8
  20977366.056    20977372.094    -9629355.023 8  11583710.585 8
 86  6 18  1 17 29.0800000  0  4G 6G 9G11G13
  21522808.725    21522814.209    -8230117.357 9  12447952.663 8
  20086049.179    20086054.261    -9279885.388 7  11867942.708 7
  21875663.329    21875669.135    -8259900.233 9  12421599.950 8
  20975754.469    20975761.396    -9637818.082 8  11577116.010 7
 86  6 18  1 17 35.0800000  0  4G 6G 9G11G13
  21525707.927    21525711.930    -8214883.827 8  12459822.932 7
  20085628.250    20085633.193    -9282099.322 7  11866217.557 8
  21878384.576    21878390.988    -8245598.296 9  12432744.309 8
  20974147.432    20974154.353    -9646261.743 8  11570536.527 7
 86  6 18  1 17 41.0800000  0  4G 6G 9G11G13
  21528610.104    21528615.970    -8199631.100 9  12471708.168 8
  20085211.827    20085216.915    -9284289.232 7  11864511.147 7
  21881108.407    21881115.126    -8231287.305 8  12443895.730 8
  20972543.602    20972552.070    -9654686.016 8  11563972.169 7
 86  6 18  1 17 47.0800000  0  4G 6G 9G11G13
  21531515.506    21531523.254    -8184359.229 8  12483608.322 8
  20084799.315    20084805.508    -9286455.284 7  11862823.310 8
  21883834.118    21883839.856    -8216967.395 8  12455054.100 8
  20970944.801    20970951.976    -9663090.987 8  11557422.844 9
 86  6 18  1 17 53.0800000  0  4G 6G 9G11G13
  21534424.876    21534432.828    -8169068.269 8  12495523.347 9
  20084391.358    20084397.050    -9288597.384 8  11861154.143 8
  21886559.028    21886566.058    -8202638.545 9  12466219.440 8
  20969349.499    20969356.398    -9671476.665 8  11550888.559 8
 86  6 18  1 17 59.0800000  0  4G 6G 9G11G13
  21537339.058    21537345.799    -8153758.156 9  12507453.300 8
  20083988.817    20083993.748    -9290715.646 8  11859503.550 7
  21889286.713    21889294.588    -8188300.879 8  12477391.632 8
  20967757.228    20967764.125    -9679843.079 8  11544369.282 8
 86  6 18  1 18  5.0800000  0  4G 6G 9G11G13
  21540255.093    21540262.887    -8138428.949 9  12519398.115 8
  20083587.991    20083596.101    -9292810.039 7  11857871.554 8
  21892017.186    21892023.679    -8173954.288 7  12488570.784 8
  20966168.826    20966175.849    -9688190.095 8  11537865.104 7
 86  6 18  1 18 11.0800000  0  4G 6G 9G11G13
  21543176.725    21543183.950    -8123080.620 7  12531357.842 8
  20083195.638    20083200.481    -9294880.387 7  11856258.305 7
  21894748.570    21894755.015    -8159598.755 7  12499756.902 8
  20964583.303    20964592.422    -9696517.701 8  11531376.076 8
 86  6 18  1 18 17.0800000  0  4G 6G 9G11G13
  21546100.214    21546107.408    -8107713.053 8  12543332.560 8
  20082805.453    20082812.672    -9296926.565 7  11854663.876 7
  21897481.224    21897489.055    -8145234.211 8  12510950.046 7
  20963003.717    20963010.568    -9704825.765 7  11524902.266 8
 86  6 18  1 18 23.0800000  0  4G 6G 9G11G13
  21549028.498    21549035.657    -8092326.214 9  12555322.304 9
  20082420.157    20082425.764    -9298948.695 8  11853088.189 7
  21900217.534    21900222.808    -8130860.674 8  12522150.202 8
  20961426.154    20961433.352    -9713114.340 9  11518443.653 8
 86  6 18  1 18 29.0800000  0  4G 6G 9G11G13
  21551960.880    21551967.091    -8076920.180 8  12567326.978 9
  20082041.281    20082047.016    -9300946.625 7  11851531.350 7
  21902955.015    21902961.064    -8116478.188 8  12533357.330 8
  20959851.684    20959859.600    -9721383.459 8  11512000.184 7
 86  6 18  1 18 35.0800000  0  4G 6G 9G11G13
  21554896.202    21554902.410    -8061494.929 8  12579346.668 8
  20081665.390    20081672.395    -9302920.416 6  11849993.331 6
  21905693.749    21905698.665    -8102086.699 8  12544571.494 8
  20958283.082    20958290.703    -9729633.036 9  11505571.938 9
 86  6 18  1 18 41.0800000  0  4G 6G 9G11G13
  21557835.027    21557840.951    -8046050.319 8  12591381.406 8
  20081294.409    20081299.979    -9304869.920 6  11848474.239 7
  21908433.701    21908439.182    -8087686.157 8  12555792.691 7
  20956717.199    20956723.607    -9737863.083 8  11499158.928 8
 86  6 18  1 18 47.0800000  0  4G 6G 9G11G13
  21560777.095    21560783.222    -8030586.514 9  12603431.108 8
  20080928.386    20080933.990    -9306795.151 6  11846974.045 6
  21911177.669    21911182.958    -8073276.680 9  12567020.847 8
  20955154.261    20955161.830    -9746073.551 8  11492761.168 7
 86  6 18  1 18 53.0800000  0  4G 6G 9G11G13
  21563722.687    21563730.099    -8015103.519 8  12615495.780 8
  20080567.151    20080572.052    -9308696.264 7  11845492.650 8
  21913921.439    21913926.992    -8058858.342 9  12578255.916 8
  20953596.015    20953602.755    -9754264.475 9  11486378.643 8
 86  6 18  1 18 59.0800000  0  4G 6G 9G11G13
  21566672.969    21566680.061    -7999601.435 8  12627575.316 8
  20080209.973    20080215.828    -9310573.099 7  11844030.177 7
  21916666.400    21916671.874    -8044431.174 9  12589497.865 8
  20952040.406    20952047.814    -9762435.950 8  11480011.259 9
 86  6 18  1 19  5.0800000  0  4G 6G 9G11G13
  21569628.764    21569632.583    -7984080.234 8  12639669.759 9
  20079857.334    20079861.075    -9312425.888 7  11842586.448 8
  21919413.087    21919419.541    -8029995.191 9  12600746.684 8
  20950489.661    20950496.058    -9770587.995 8  11473659.019 8
 86  6 18  1 19 11.0800000  0  4G 6G 9G11G13
  21572585.517    21572590.277    -7968539.946 8  12651779.064 8
  20079510.424    20079515.701    -9314254.448 6  11841161.593 8
  21922161.464    21922169.400    -8015550.413 8  12612002.354 9
  20948943.005    20948948.487    -9778720.575 9  11467321.945 7
 86  6 18  1 19 17.0800000  0  4G 6G 9G11G13
  21575545.068    21575552.024    -7952980.570 7  12663903.239 8
  20079165.776    20079171.823    -9316058.743 7  11839755.636 7
  21924912.118    21924919.651    -8001096.876 9  12623264.848 8
  20947397.730    20947405.869    -9786833.740 7  11461000.014 7
 86  6 18  1 19 23.0800000  0  4G 6G 9G11G13
  21578510.092    21578515.784    -7937402.156 8  12676042.249 8
  20078827.882    20078831.529    -9317838.924 8  11838368.481 6
  21927664.941    21927672.640    -7986634.583 8  12634534.158 8
  20945858.574    20945865.673    -9794927.542 8  11454693.155 7
 86  6 18  1 19 29.0800000  0  4G 6G 9G11G13
  21581478.257    21581484.742    -7921804.583 8  12688196.195 8
  20078492.022    20078498.220    -9319594.764 8  11837000.281 7
  21930418.106    21930424.965    -7972163.491 9  12645810.324 8
  20944321.590    20944328.734    -9803001.776 8  11448401.546 8
 86  6 18  1 19 35.0800000  0  4G 6G 9G11G13
  21584449.647    21584456.005    -7906187.910 9  12700365.008 9
  20078162.802    20078169.298    -9321326.348 7  11835651.005 7
  21933172.531    21933180.702    -7957683.639 8  12657093.324 7
  20942789.713    20942794.658    -9811056.487 8  11442125.155 7
 86  6 18  1 19 41.0800000  0  4G 6G 9G11G13
  21587425.908    21587430.644    -7890552.195 9  12712548.675 8
  20077837.914    20077843.684    -9323033.690 7  11834320.599 6
  21935929.311    21935937.715    -7943195.039 9  12668383.126 8
  20941260.630    20941267.148    -9819091.718 9  11435863.948 8
 86  6 18  1 19 47.0800000  0  4G 6G 9G11G13
  21590404.827    21590410.276    -7874897.266 8  12724747.319 7
  20077518.833    20077523.970    -9324716.564 6  11833009.257 7
  21938687.618    21938695.726    -7928697.565 8  12679679.840 9
  20939735.356    20939741.264    -9827107.291 8  11429618.053 8
 86  6 18  1 19 53.0800000  0  4G 6G 9G11G13
  21593387.091    21593392.979    -7859223.041 8  12736960.982 8
  20077202.726    20077208.590    -9326374.871 7  11831717.090 8
  21941448.844    21941457.775    -7914191.080 8  12690983.577 9
  20938213.400    20938220.155    -9835103.158 9  11423387.514 8
 86  6 18  1 19 59.0800000  0  4G 6G 9G11G13
  21596374.466    21596380.567    -7843529.585 8  12749189.632 9
  20076891.072    20076897.234    -9328008.673 6  11830443.967 7
  21944210.976    21944218.236    -7899675.690 8  12702294.270 8
  20936695.017    20936701.346    -9843079.337 8  11417172.325 8
 86  6 18  1 20  5.0800000  0  4G 6G 9G11G13
  21599363.806    21599370.224    -7827817.015 9  12761433.197 8
  20076584.981    20076591.669    -9329618.113 6  11829189.869 8
  21946975.609    21946982.818    -7885151.542 8  12713611.782 8
  20935181.192    20935187.403    -9851035.894 8  11410972.411 8
 86  6 18  1 20 11.0800000  0  4G 6G 9G11G13
  21602357.181    21602363.796    -7812085.347 8  12773691.633 8
  20076282.138    20076288.080    -9331203.113 7  11827954.808 7
  21949740.811    21949747.332    -7870618.671 8  12724936.096 8
  20933670.204    20933677.255    -9858972.949 8  11404787.698 8
 86  6 18  1 20 17.0800000  0  4G 6G 9G11G13
  21605353.694    21605360.350    -7796334.617 8  12785964.911 7
  20075987.205    20075992.228    -9332763.677 7  11826738.781 8
  21952509.180    21952516.198    -7856077.124 8  12736267.161 8
  20932162.786    20932170.136    -9866890.455 8  11398618.211 8
 86  6 18  1 20 23.0800000  0  4G 6G 9G11G13
  21608355.229    21608360.202    -7780564.894 8  12798252.995 8
  20075694.059    20075698.449    -9334299.911 6  11825541.712 7
  21955277.142    21955282.443    -7841527.019 9  12747604.902 8
  20930659.574    20930667.862    -9874788.539 8  11392463.867 8
 86  6 18  1 20 29.0800000  0  4G 6G 9G11G13
  21611359.987    21611365.210    -7764776.229 8  12810555.853 8
  20075405.093    20075411.304    -9335811.713 8  11824363.683 7
  21958046.524    21958054.019    -7826968.382 8  12758949.299 8
  20929160.937    20929167.940    -9882667.165 8  11386324.699 8
 86  6 18  1 20 35.0800000  0  4G 6G 9G11G13
  21614368.101    21614374.029    -7748968.723 8  12822873.369 8
  20075122.506    20075128.725    -9337299.390 7  11823204.466 7
  21960818.968    21960824.663    -7812401.300 8  12770300.266 7
  20927666.718    20927672.774    -9890526.518 7  11380200.530 8
 86  6 18  1 20 41.0800000  0  4G 6G 9G11G13
  21617380.192    21617385.363    -7733142.286 8  12835205.653 7
  20074843.708    20074850.949    -9338762.615 6  11822064.282 7
  21963592.366    21963598.018    -7797825.732 9  12781657.849 9
  20926173.983    20926180.667    -9898366.494 9  11374091.462 8
 86  6 18  1 20 47.0800000  0  4G 6G 9G11G13
  21620394.566    21620400.280    -7717297.042 8  12847552.589 7
  20074572.188    20074577.145    -9340201.612 7  11820942.991 7
  21966368.568    21966373.101    -7783241.735 9  12793022.007 8
  20924685.370    20924692.548    -9906187.096 9  11367997.486 8
 86  6 18  1 20 53.0800000  0  4G 6G 9G11G13
  21623414.079    21623420.175    -7701432.841 8  12859914.302 9
  20074302.436    20074308.127    -9341616.075 7  11819840.806 7
  21969145.995    21969151.154    -7768649.274 9  12804392.749 8
  20923201.333    20923207.715    -9913988.117 8  11361918.771 8
 86  6 18  1 20 59.0800000  0  4G 6G 9G11G13
  21626436.804    21626442.427    -7685549.752 8  12872290.715 9
  20074038.289    20074043.132    -9343006.197 7  11818757.597 7
  21971922.351    21971928.968    -7754048.379 8  12815770.073 8
  20921719.674    20921727.736    -9921769.724 8  11355855.183 8
 86  6 18  1 21  5.0800000  0  4G 6G 9G11G13
  21629462.714    21629468.564    -7669647.889 8  12884681.764 8
  20073777.891    20073783.557    -9344372.073 7  11817693.268 7
  21974703.323    21974709.464    -7739439.116 9  12827153.919 8
  20920242.791    20920249.859    -9929532.001 8  11349806.663 8
 86  6 18  1 21 11.0800000  0  4G 6G 9G11G13
  21632491.675    21632498.891    -7653727.267 8  12897087.437 8
  20073523.749    20073528.001    -9345713.541 7  11816647.971 7
  21977483.656    21977490.203    -7724821.522 6  12838544.245 9
  20918770.175    20918776.827    -9937275.012 8  11343773.164 8
 86  6 18  1 21 17.0800000  0  4G 6G 9G11G13
  21635524.982    21635532.604    -7637787.935 8  12909507.695 8
  20073272.479    20073277.893    -9347030.681 8  11815621.623 8
  21980268.587    21980273.931    -7710195.625 8  12849941.043 8
  20917301.109    20917306.315    -9944998.764 9  11337754.649 9
 86  6 18  1 21 23.0800000  0  4G 6G 9G11G13
  21638561.475    21638568.491    -7621829.845 8  12921942.573 8
  20073027.376    20073033.212    -9348323.361 7  11814614.341 7
  21983053.205    21983058.513    -7695561.455 8  12861344.298 8
  20915835.443    20915841.279    -9952703.119 9  11331751.264 8
 86  6 18  1 21 29.0800000  0  4G 6G 9G11G13
  21641602.573    21641608.045    -7605853.018 8  12934392.037 8
  20072784.019    20072790.304    -9349591.788 7  11813625.950 7
  21985839.602    21985845.208    -7680919.105 8  12872753.928 8
  20914372.298    20914377.865    -9960388.140 9  11325762.946 9
 86  6 18  1 21 35.0800000  0  4G 6G 9G11G13
  21644645.296    21644653.168    -7589857.485 8  12946856.076 8
  20072547.695    20072553.150    -9350835.865 8  11812656.539 7
  21988627.253    21988633.515    -7666268.460 8  12884170.005 9
  20912913.390    20912919.586    -9968053.725 9  11319789.776 9
 86  6 18  1 21 41.0800000  0  4G 6G 9G11G13
  21647692.823    21647699.203    -7573843.115 8  12959334.789 7
  20072315.259    20072321.335    -9352055.500 7  11811706.178 8
  21991416.113    21991421.769    -7651609.531 7  12895592.546 8
  20911457.575    20911464.996    -9975699.977 8  11313831.659 8
 86  6 18  1 21 47.0800000  0  4G 6G 9G11G13
  21650743.638    21650751.648    -7557810.042 7  12971828.094 8
  20072089.300    20072094.460    -9353250.650 7  11810774.886 8
  21994207.792    21994214.716    -7636942.314 8  12907021.536 9
  20910006.621    20910013.102    -9983326.870 8  11307888.633 8
 86  6 18  1 21 53.0800000  0  4G 6G 9G11G13
  21653797.976    21653804.703    -7541758.242 8  12984335.973 7
  20071864.569    20071871.000    -9354421.319 7  11809862.680 7
  21996999.028    21997006.447    -7622266.847 8  12918456.972 8
  20908557.245    20908564.838    -9990934.332 8  11301960.742 8
 86  6 18  1 21 59.0800000  0  4G 6G 9G11G13
  21656856.375    21656862.598    -7525687.590 8  12996858.555 7
  20071647.206    20071652.174    -9355567.445 7  11808969.597 7
  21999794.262    21999801.322    -7607583.035 9  12929898.872 9
  20907114.986    20907122.039    -9998522.356 8  11296048.006 8
 86  6 18  1 22  5.0800000  0  4G 6G 9G11G13
  21659918.669    21659923.881    -7509598.163 9  13009395.768 8
  20071433.234    20071439.304    -9356688.969 7  11808095.666 8
  22002587.969    22002597.380    -7592890.920 7  12941347.271 8
  20905674.453    20905681.475   -10006090.840 9  11290150.500 8
 86  6 18  1 22 11.0800000  0  4G 6G 9G11G13
  21662985.247    21662990.391    -7493489.933 8  13021947.624 7
  20071225.018    20071230.264    -9357785.965 7  11807240.876 7
  22005386.409    22005395.054    -7578190.494 8  12952802.129 9
  20904238.153    20904244.337   -10013639.809 8  11284268.187 8
 86  6 18  1 22 17.0800000  0  4G 6G 9G11G13
  21666053.462    21666059.427    -7477362.973 8  13034514.073 7
  20071020.502    20071026.753    -9358858.281 7  11806405.304 7
  22008186.327    22008194.227    -7563481.858 7  12964263.385 8
  20902805.172    20902812.255   -10021169.413 8  11278400.970 8
 86  6 18  1 22 23.0800000  0  4G 6G 9G11G13
  21669125.136    21669131.107    -7461217.160 8  13047095.228 8
  20070821.530    20070828.106    -9359906.030 8  11805588.872 8
  22010987.076    22010994.875    -7548764.937 8  12975731.099 8
  20901377.515    20901382.878   -10028679.506 9  11272548.955 8
 86  6 18  1 22 29.0800000  0  4G 6G 9G11G13
  21672201.085    21672207.348    -7445052.444 8  13059691.104 8
  20070625.077    20070632.529    -9360928.951 7  11804791.790 7
  22013789.322    22013796.923    -7534039.647 8  12987205.347 9
  20899951.602    20899956.568   -10036169.963 9  11266712.233 7
 86  6 18  1 22 35.0800000  0  4G 6G 9G11G13
  21675281.791    21675287.261    -7428868.820 9  13072301.714 8
  20070437.027    20070442.834    -9361927.097 7  11804014.011 8
  22016594.294    22016600.003    -7519305.985 9  12998686.122 8
  20898529.243    20898535.550   -10043640.781 9  11260890.832 8
 86  6 18  1 22 41.0800000  0  4G 6G 9G11G13
  21678364.242    21678369.978    -7412666.354 9  13084927.001 8
  20070252.159    20070259.350    -9362900.413 7  11803255.567 7
  22019400.842    22019406.205    -7504563.974 9  13010173.410 9
  20897111.684    20897118.065   -10051092.050 9  11255084.647 8
 86  6 18  1 22 47.0800000  0  4G 6G 9G11G13
  21681451.771    21681457.080    -7396445.075 9  13097566.964 8
  20070070.738    20070078.585    -9363849.022 8  11802516.394 7
  22022208.039    22022212.504    -7489813.707 9  13021667.119 8
  20895696.474    20895704.703   -10058523.794 8  11249293.683 8
 86  6 18  1 22 53.0800000  0  4G 6G 9G11G13
  21684541.806    21684547.881    -7380205.117 9  13110221.461 7
  20069896.563    20069902.490    -9364773.011 8  11801796.408 7
  22025015.903    22025020.430    -7475055.271 8  13033167.195 8
  20894286.164    20894293.645   -10065936.090 9  11243517.866 8
 86  6 18  1 22 59.0800000  0  4G 6G 9G11G13
  21687636.036    21687642.481    -7363946.560 9  13122890.454 8
  20069724.716    20069731.055    -9365672.243 7  11801095.703 9
  22027825.409    22027831.255    -7460288.827 8  13044673.524 9
  20892879.853    20892887.195   -10073328.949 9  11237757.201 8
 86  6 18  1 23  5.0800000  0  4G 6G 9G11G13
  21690731.877    21690738.953    -7347669.360 9  13135573.979 8
  20069558.489    20069564.467    -9366547.007 7  11800414.060 8
  22030637.022    22030640.967    -7445514.351 9  13056186.118 8
  20891477.465    20891483.359   -10080702.414 9  11232011.649 9
 86  6 18  1 23 11.0800000  0  4G 6G 9G11G13
  21693834.345    21693839.935    -7331373.640 8  13148271.931 8
  20069394.714    20069401.943    -9367397.153 7  11799751.615 8
  22033449.704    22033454.717    -7430731.874 8  13067704.937 8
  20890077.283    20890083.937   -10088056.562 8  11226281.159 8
 86  6 18  1 23 17.0800000  0  4G 6G 9G11G13
  21696938.174    21696944.581    -7315059.380 9  13160984.329 8
  20069239.047    20069246.150    -9368222.747 7  11799108.296 7
  22036263.253    22036267.977    -7415941.477 9  13079229.932 7
  20888681.107    20888688.720   -10095391.420 8  11220565.703 9
 86  6 18  1 23 23.0800000  0  4G 6G 9G11G13
  21700046.270    21700052.705    -7298726.727 8  13173711.050 8
  20069086.285    20069093.613    -9369023.728 8  11798484.146 8
  22039079.322    22039084.295    -7401143.196 8  13090761.074 7
  20887288.762    20887296.103   -10102707.057 8  11214865.210 9
 86  6 18  1 23 29.0800000  0  4G 6G 9G11G13
  21703157.241    21703163.172    -7282375.689 8  13186452.113 8
  20068938.273    20068945.308    -9369800.352 7  11797878.987 7
  22041896.640    22041902.058    -7386337.149 8  13102298.236 7
  20885901.116    20885907.677   -10110003.527 9  11209179.652 8
 86  6 18  1 23 35.0800000  0  4G 6G 9G11G13
  21706272.756    21706277.421    -7266006.307 9  13199207.467 8
  20068795.422    20068801.723    -9370552.495 7  11797292.909 7
  22044714.503    22044721.608    -7371523.328 8  13113841.473 8
  20884516.269    20884521.979   -10117280.771 9  11203509.085 8
 86  6 18  1 23 41.0800000  0  4G 6G 9G11G13
  21709392.084    21709395.863    -7249618.619 8  13211977.091 7
  20068657.745    20068663.404    -9371280.129 7  11796725.924 7
  22047533.964    22047541.663    -7356701.769 7  13125390.738 9
  20883135.003    20883140.398   -10124538.892 8  11197853.404 8
 86  6 18  1 23 47.0800000  0  4G 6G 9G11G13
  21712514.178    21712519.598    -7233212.528 8  13224761.043 7
  20068521.687    20068529.128    -9371983.251 8  11796178.036 8
  22050356.387    22050364.123    -7341872.423 7  13136946.067 8
  20881757.280    20881762.679   -10131777.738 8  11192212.741 8
 86  6 18  1 23 53.0800000  0  4G 6G 9G11G13
  21715638.689    21715644.247    -7216788.034 8  13237559.368 8
  20068392.445    20068400.315    -9372661.782 7  11795649.307 7
  22053180.823    22053188.047    -7327035.212 7  13148507.515 8
  20880382.998    20880389.510   -10138997.293 9  11186587.132 9
 86  6 18  1 23 59.0800000  0  4G 6G 9G11G13
  21718767.629    21718772.826    -7200344.983 8  13250372.119 7
  20068268.909    20068275.328    -9373315.507 5  11795139.915 7
  22056005.582    22056014.275    -7312190.187 8  13160075.045 9
  20879013.752    20879020.045   -10146197.530 8  11180976.565 8
 86  6 18  1 24  5.0800000  0  4G 6G 9G11G13
  21721900.363    21721906.134    -7183883.397 9  13263199.316 8
  20068149.304    20068156.579    -9373944.410 7  11794649.848 7
  22058833.095    22058838.756    -7297337.245 7  13171648.750 8
  20877646.935    20877653.349   -10153378.336 7  11175381.140 8
 86  6 18  1 24 11.0800000  0  4G 6G 9G11G13
  21725037.268    21725041.850    -7167403.190 8  13276041.016 8
  20068033.002    20068040.851    -9374548.442 6  11794179.191 8
  22061660.906    22061667.713    -7282476.276 8  13183228.738 8
  20876284.700    20876290.783   -10160539.552 8  11169800.969 8
 86  6 18  1 24 17.0800000  0  4G 6G 9G11G13
  21728176.069    21728181.292    -7150904.252 8  13288897.335 8
  20067924.025    20067930.676    -9375127.555 7  11793727.940 7
  22064490.798    22064497.339    -7267607.262 8  13194814.968 9
  20874925.215    20874931.794   -10167681.162 8  11164236.085 8
 86  6 18  1 24 23.0800000  0  4G 6G 9G11G13
  21731319.890    21731324.412    -7134386.686 8  13301768.142 8
  20067818.770    20067824.364    -9375681.601 7  11793296.198 7
  22067321.776    22067328.491    -7252730.220 8  13206407.466 9
  20873569.931    20873575.569   -10174803.200 8  11158686.452 8
 86  6 18  1 24 29.0800000  0  4G 6G 9G11G13
  21734465.814    21734471.298    -7117850.565 8  13314653.435 7
  20067717.029    20067724.510    -9376210.774 7  11792883.867 8
  22070152.928    22070161.298    -7237845.306 9  13218006.105 8
  20872218.514    20872225.024   -10181905.789 7  11153151.974 8
 86  6 18  1 24 35.0800000  0  4G 6G 9G11G13
  21737616.755    21737621.376    -7101295.957 8  13327553.118 7
  20067623.841    20067627.968    -9376715.198 7  11792490.798 8
  22072988.694    22072995.585    -7222952.502 8  13229610.891 8
  20870870.871    20870876.711   -10188988.836 8  11147632.726 7
 86  6 18  1 24 41.0800000  0  4G 6G 9G11G13
  21740770.838    21740775.466    -7084722.718 8  13340467.311 7
  20067531.842    20067537.133    -9377194.541 7  11792117.278 8
  22075822.688    22075830.080    -7208051.806 9  13241221.807 9
  20869526.095    20869533.116   -10196052.354 8  11142128.698 8
 86  6 18  1 24 47.0800000  0  4G 6G 9G11G13
  21743928.076    21743933.529    -7068131.011 9  13353395.921 8
  20067444.204    20067451.289    -9377649.048 7  11791763.127 7
  22078660.676    22078666.966    -7193143.225 8  13252838.884 9
  20868187.043    20868192.791   -10203096.416 8  11136639.818 7
 86  6 18  1 24 53.0800000  0  4G 6G 9G11G13
  21747089.161    21747095.137    -7051520.832 9  13366338.908 9
  20067364.243    20067369.172    -9378078.627 7  11791428.382 8
  22081498.779    22081506.189    -7178226.842 9  13264462.042 8
  20866849.273    20866855.625   -10210120.977 7  11131166.138 8
 86  6 18  1 24 59.0800000  0  4G 6G 9G11G13
  21750252.401    21750259.076    -7034892.202 8  13379296.276 8
  20067287.897    20067293.372    -9378483.236 7  11791113.091 7
  22084339.089    22084345.480    -7163302.735 8  13276091.216 9
  20865515.339    20865522.522   -10217126.082 9  11125707.621 7
 86  6 18  1 25  5.0800000  0  4G 6G 9G11G13
  21753420.132    21753426.723    -7018245.234 8  13392267.920 8
  20067214.572    20067219.033    -9378863.171 8  11790817.059 8
  22087180.782    22087187.392    -7148370.965 8  13287726.362 8
  20864186.073    20864193.250   -10224111.877 8  11120264.146 8
 86  6 18  1 25 11.0800000  0  4G 6G 9G11G13
  21756591.342    21756596.201    -7001579.953 8  13405253.836 8
  20067147.201    20067152.776    -9379218.217 8  11790540.389 7
  22090022.854    22090030.212    -7133431.559 8  13299367.449 9
  20862861.329    20862867.261   -10231078.427 7  11114835.673 7
 86  6 18  1 25 17.0800000  0  4G 6G 9G11G13
  21759766.348    21759771.946    -6984896.375 8  13418254.029 8
  20067084.244    20067089.283    -9379548.544 6  11790282.980 8
  22092867.196    22092875.238    -7118484.578 9  13311014.458 8
  20861537.928    20861545.011   -10238025.750 7  11109422.185 9
 86  6 18  1 25 23.0800000  0  4G 6G 9G11G13
  21762944.502    21762950.517    -6968194.696 9  13431268.317 8
  20067025.936    20067031.977    -9379854.122 8  11790044.867 6
  22095713.829    22095719.809    -7103530.125 8  13322667.256 9
  20860220.334    20860226.720   -10244953.898 8  11104023.631 9
 86  6 18  1 25 29.0800000  0  4G 6G 9G11G13
  21766126.511    21766133.172    -6951474.859 8  13444296.739 8
  20066972.460    20066978.215    -9380134.976 7  11789826.024 7
  22098561.206    22098567.384    -7088568.233 8  13334325.881 8
  20858905.608    20858912.615   -10251862.838 8  11098640.051 9
 86  6 18  1 25 35.0800000  0  4G 6G 9G11G13
  21769310.955    21769318.545    -6934736.882 8  13457339.308 8
  20066922.194    20066928.402    -9380391.142 7  11789626.414 7
  22101410.119    22101416.151    -7073598.901 9  13345990.301 9
  20857594.595    20857601.353   -10258752.586 9  11093271.424 8
 86  6 18  1 25 41.0800000  0  4G 6G 9G11G13
  21772500.900    21772506.555    -6917980.772 9  13470396.013 8
  20066879.470    20066884.879    -9380622.534 6  11789446.118 6
  22104259.164    22104264.930    -7058622.106 9  13357660.526 8
  20856286.964    20856293.018   -10265623.175 8  11087917.726 7
 86  6 18  1 25 47.0800000  0  4G 6G 9G11G13
  21775692.539    21775699.632    -6901206.463 9  13483466.900 8
  20066838.605    20066845.568    -9380829.085 6  11789285.161 8
  22107110.568    22107117.770    -7043637.780 8  13369336.616 8
  20854983.967    20854990.178   -10272474.445 9  11082579.082 8
 86  6 18  1 25 53.0800000  0  4G 6G 9G11G13
  21778888.809    21778894.265    -6884413.942 9  13496551.960 7
  20066804.412    20066810.900    -9381010.735 6  11789143.618 8
  22109962.922    22109970.058    -7028645.983 9  13381018.534 8
  20853684.955    20853690.032   -10279306.485 8  11077255.420 8
 86  6 18  1 25 59.0800000  0  4G 6G 9G11G13
  21782087.406    21782093.187    -6867603.278 9  13509651.173 8
  20066774.668    20066780.445    -9381167.614 6  11789021.382 8
  22112816.721    22112824.791    -7013646.725 8  13392706.259 8
  20852387.363    20852393.674   -10286119.141 8  11071946.861 8
 86  6 18  1 26  5.0800000  0  4G 6G 9G11G13
  21785289.498    21785295.540    -6850774.396 9  13522764.592 7
  20066749.914    20066755.946    -9381299.535 6  11788918.577 8
  22115672.941    22115679.950    -6998640.028 9  13404399.791 8
  20851095.104    20851100.752   -10292912.439 9  11066653.396 8
 86  6 18  1 26 11.0800000  0  4G 6G 9G11G13
  21788495.546    21788501.077    -6833927.187 9  13535892.284 8
  20066728.407    20066735.564    -9381406.418 7  11788835.307 8
  22118530.160    22118535.869    -6983625.740 9  13416099.225 8
  20849805.956    20849811.999   -10299686.382 9  11061375.001 8
 86  6 18  1 26 17.0800000  0  4G 6G 9G11G13
  21791705.215    21791710.928    -6817061.777 8  13549034.146 8
  20066713.673    20066721.426    -9381488.412 7  11788771.416 8
  22121390.580    22121395.779    -6968604.030 8  13427804.448 9
  20848520.707    20848527.631   -10306441.019 9  11056111.649 9
 86  6 18  1 26 23.0800000  0  4G 6G 9G11G13
  21794916.560    21794923.427    -6800178.227 9  13562190.154 8
  20066702.933    20066709.247    -9381545.437 7  11788726.978 8
  22124249.401    22124255.116    -6953574.858 8  13439515.497 9
  20847239.399    20847244.740   -10313176.381 9  11050863.316 8
 86  6 18  1 26 29.0800000  0  4G 6G 9G11G13
  21798133.998    21798139.921    -6783276.537 9  13575360.293 8
  20066697.859    20066703.860    -9381577.525 6  11788701.970 8
  22127110.602    22127117.184    -6938538.296 9  13451232.290 8
  20845961.990    20845967.868   -10319892.396 8  11045630.072 8
 86  6 18  1 26 35.0800000  0  4G 6G 9G11G13
  21801353.074    21801358.859    -6766356.643 8  13588544.614 8
  20066696.340    20066702.955    -9381584.573 7  11788696.482 8
  22129973.595    22129978.859    -6923494.377 8  13462954.839 8
  20844686.239    20844693.222   -10326589.087 8  11040411.882 8
 86  6 18  1 26 41.0800000  0  4G 6G 9G11G13
  21804577.068    21804582.296    -6749418.635 9  13601743.048 7
  20066700.907    20066705.886    -9381566.709 7  11788710.404 8
  22132837.379    22132843.685    -6908443.100 8  13474683.101 8
  20843415.582    20843421.465   -10333266.499 9  11035208.707 8
 86  6 18  1 26 47.0800000  0  4G 6G 9G11G13
  21807803.187    21807810.147    -6732462.552 8  13614955.568 7
  20066707.921    20066714.501    -9381523.728 6  11788743.894 7
  22135702.433    22135707.579    -6893384.501 8  13486417.070 8
  20842147.158    20842154.573   -10339924.674 8  11030020.520 8
 86  6 18  1 26 53.0800000  0  4G 6G 9G11G13
  21811032.806    21811040.643    -6715488.226 9  13628182.319 8
  20066721.083    20066726.686    -9381455.638 7  11788796.934 7
  22138569.880    22138576.691    -6878318.442 9  13498156.856 9
  20840884.313    20840890.640   -10346563.444 8  11024847.460 8
 86  6 18  1 26 59.0800000  0  4G 6G 9G11G13
  21814266.340    21814273.131    -6698495.695 8  13641423.233 8
  20066738.943    20066744.183    -9381362.523 7  11788869.500 7
  22141438.616    22141444.000    -6863244.965 8  13509902.412 8
  20839625.502    20839630.681   -10353182.832 8  11019689.498 7
 86  6 18  1 27  5.0800000  0  4G 6G 9G11G13
  21817502.542    21817510.835    -6681485.049 9  13654678.281 8
  20066761.263    20066767.639    -9381244.329 6  11788961.602 8
  22144307.387    22144314.440    -6848164.051 9  13521653.779 9
  20838368.414    20838375.854   -10359782.865 8  11014546.614 9
 86  6 18  1 27 11.0800000  0  4G 6G 9G11G13
  21820743.304    21820750.225    -6664456.201 9  13667947.499 8
  20066788.410    20066794.196    -9381101.033 7  11789073.260 7
  22147178.930    22147186.017    -6833075.763 8  13533410.881 9
  20837116.098    20837124.779   -10366363.492 8  11009418.862 8
 86  6 18  1 27 17.0800000  0  4G 6G 9G11G13
  21823988.425    21823995.014    -6647409.286 8  13681230.792 8
  20066820.625    20066826.346    -9380932.628 7  11789204.486 7
  22150051.127    22150058.030    -6817980.100 8  13545173.739 8
  20835867.536    20835874.391   -10372924.787 9  11004306.162 8
 86  6 18  1 27 23.0800000  0  4G 6G 9G11G13
  21827234.996    21827242.779    -6630344.215 7  13694528.246 8
  20066857.262    20066862.223    -9380739.118 7  11789355.261 7
  22152924.815    22152931.900    -6802877.137 8  13556942.267 8
  20834623.896    20834630.662   -10379466.822 7  10999208.493 9
 86  6 18  1 27 29.0800000  0  4G 6G 9G11G13
  21830486.026    21830492.933    -6613261.168 9  13707839.712 7
  20066898.505    20066904.022    -9380520.680 7  11789525.481 7
  22155799.886    22155807.684    -6787766.965 7  13568716.417 9
  20833383.056    20833389.111   -10385989.659 8  10994125.777 8
 86  6 18  1 27 35.0800000  0  4G 6G 9G11G13
  21833740.457    21833747.199    -6596160.161 8  13721165.167 8
  20066944.764    20066951.328    -9380277.065 6  11789715.303 7
  22158677.223    22158683.563    -6772649.577 7  13580496.187 9
  20832144.452    20832151.581   -10392493.170 8  10989058.100 7
 86  6 18  1 27 41.0800000  0  4G 6G 9G11G13
  21836997.955    21837004.882    -6579041.175 9  13734504.622 7
  20066996.645    20067000.998    -9380008.513 7  11789924.559 7
  22161555.575    22161562.927    -6757525.026 8  13592281.547 9
  20830911.400    20830917.883   -10398977.407 9  10984005.460 8
 86  6 18  1 27 47.0800000  0  4G 6G 9G11G13
  21840258.260    21840264.411    -6561904.199 8  13747858.096 7
  20067052.448    20067058.263    -9379714.895 7  11790153.374 8
  22164435.243    22164442.648    -6742393.329 8  13604072.468 8
  20829681.442    20829687.380   -10405442.405 8  10978967.800 8
 86  6 18  1 27 53.0800000  0  4G 6G 9G11G13
  21843522.797    21843528.750    -6544749.392 8  13761225.468 8
  20067111.393    20067117.257    -9379396.213 6  11790401.685 7
  22167315.848    22167322.824    -6727254.586 8  13615868.892 9
  20828454.452    20828461.412   -10411888.213 8  10973945.093 9
 86  6 18  1 27 59.0800000  0  4G 6G 9G11G13
  21846790.784    21846797.771    -6527576.621 8  13774606.840 8
  20067178.526    20067183.847    -9379052.520 6  11790669.481 7
  22170197.679    22170205.525    -6712108.691 7  13627670.871 8
  20827231.078    20827237.892   -10418314.760 9  10968937.400 8
 86  6 18  1 28  5.0800000  0  4G 6G 9G11G13
  21850062.692    21850069.200    -6510385.955 8  13788002.155 8
  20067247.012    20067252.627    -9378683.779 7  11790956.830 8
  22173082.508    22173089.965    -6696955.758 9  13639478.344 8
  20826012.388    20826017.213   -10424722.141 9  10963944.640 9
 86  6 18  1 28 11.0800000  0  4G 6G 9G11G13
  21853336.782    21853342.962    -6493177.380 8  13801411.431 7
  20067322.442    20067330.217    -9378289.927 5  11791263.710 7
  22175965.467    22175973.518    -6681795.725 8  13651291.354 8
  20824796.592    20824802.757   -10431110.324 8  10958966.845 8
 86  6 18  1 28 17.0800000  0  4G 6G 9G11G13
  21856615.151    21856621.436    -6475950.886 9  13814834.668 8
  20067403.498    20067408.306    -9377870.889 7  11791590.238 7
  22178851.525    22178859.617    -6666628.574 7  13663109.908 8
  20823584.605    20823591.413   -10437479.234 7  10954004.064 9
 86  6 18  1 28 23.0800000  0  4G 6G 9G11G13
  21859895.934    21859903.496    -6458706.554 8  13828271.783 8
  20067486.580    20067493.622    -9377426.865 7  11791936.218 8
  22181740.344    22181745.560    -6651454.385 8  13674933.945 9
  20822375.046    20822382.690   -10443828.902 7  10949056.267 9
 86  6 18  1 28 29.0800000  0  4G 6G 9G11G13
  21863181.347    21863187.910    -6441444.378 9  13841722.834 8
  20067575.697    20067581.927    -9376957.676 7  11792301.815 8
  22184630.095    22184635.337    -6636273.171 9  13686763.473 9
  20821171.130    20821177.452   -10450159.342 8  10944123.469 8
 86  6 18  1 28 35.0800000  0  4G 6G 9G11G13
  21866470.397    21866475.700    -6424164.313 8  13855187.809 7
  20067669.854    20067676.637    -9376463.350 7  11792687.014 8
  22187519.550    22187523.841    -6621084.909 9  13698598.495 8
  20819970.443    20819976.357   -10456470.552 7  10939205.648 9
 86  6 18  1 28 41.0800000  0  4G 6G 9G11G13
  21869762.023    21869767.027    -6406866.495 8  13868666.614 9
  20067771.275    20067775.873    -9375943.992 7  11793091.696 8
  22190410.634    22190415.588    -6605889.737 8  13710438.887 8
  20818772.250    20818779.631   -10462762.520 8  10934302.809 8
 86  6 18  1 28 47.0800000  0  4G 6G 9G11G13
  21873056.791    21873063.517    -6389550.766 8  13882159.385 8
  20067874.281    20067878.397    -9375399.336 8  11793516.105 8
  22193303.592    22193309.446    -6590687.544 9  13722284.763 8
  20817579.089    20817585.843   -10469035.214 8  10929415.001 8
 86  6 18  1 28 53.0800000  0  4G 6G 9G11G13
  21876355.422    21876362.068    -6372217.122 8  13895666.094 8
  20067982.126    20067988.062    -9374829.419 7  11793960.190 8
  22196197.102    22196203.679    -6575478.286 7  13734136.145 8
  20816388.450    20816395.076   -10475288.529 9  10924542.293 9
 86  6 18  1 28 59.0800000  0  4G 6G 9G11G13
  21879656.614    21879664.318    -6354865.606 9  13909186.754 7
  20068094.508    20068101.047    -9374234.201 7  11794423.998 7
  22199092.204    22199099.621    -6560261.853 9  13745993.090 8
  20815201.700    20815209.689   -10481522.520 8  10919684.647 9
 86  6 18  1 29  5.0800000  0  4G 6G 9G11G13
  21882962.984    21882968.987    -6337496.191 8  13922721.352 9
  20068212.822    20068219.956    -9373613.811 7  11794907.410 8
  22201989.261    22201997.070    -6545038.484 8  13757855.460 9
  20814020.847    20814027.792   -10487737.260 8  10914841.999 7
 86  6 18  1 29 11.0800000  0  4G 6G 9G11G13
  21886270.983    21886277.361    -6320109.011 8  13936269.792 8
  20068334.850    20068341.230    -9372968.208 7  11795410.476 7
  22204889.488    22204895.491    -6529808.222 8  13769723.192 8
  20812841.256    20812848.040   -10493932.808 8  10910014.305 9
 86  6 18  1 29 17.0800000  0  4G 6G 9G11G13
  21889583.841    21889590.447    -6302704.123 8  13949832.033 8
  20068462.122    20068469.153    -9372297.401 7  11795933.181 8
  22207788.930    22207794.630    -6514571.064 9  13781596.287 8
  20811665.615    20811672.625   -10500109.156 8  10905201.575 8
 86  6 18  1 29 23.0800000  0  4G 6G 9G11G13
  21892899.790    21892905.020    -6285281.436 9  13963408.143 8
  20068595.184    20068602.830    -9371601.523 7  11796475.438 8
  22210688.345    22210695.986    -6499327.011 7  13793474.765 8
  20810494.033    20810501.304   -10506266.278 9  10900403.822 8
 86  6 18  1 29 29.0800000  0  4G 6G 9G11G13
  21896217.726    21896223.944    -6267841.140 7  13976997.983 9
  20068734.223    20068738.389    -9370880.426 7  11797037.348 9
  22213592.549    22213597.327    -6484076.268 8  13805358.471 8
  20809325.915    20809333.714   -10512404.338 8  10895620.919 8
 86  6 18  1 29 35.0800000  0  4G 6G 9G11G13
  21899538.972    21899546.043    -6250383.212 9  13990601.546 8
  20068876.064    20068880.548    -9370134.197 7  11797618.809 8
  22216494.806    22216501.560    -6468818.768 9  13817247.424 9
  20808161.381    20808168.929   -10518523.341 8  10890852.864 8
 86  6 18  1 29 41.0800000  0  4G 6G 9G11G13
  21902864.794    21902871.769    -6232907.687 8  14004218.826 8
  20069021.453    20069027.498    -9369362.850 6  11798219.851 7
  22219399.105    22219406.947    -6453554.480 7  13829141.657 8
  20807000.474    20807006.955   -10524623.182 9  10886099.746 8
 86  6 18  1 29 47.0800000  0  4G 6G 9G11G13
  21906194.556    21906199.675    -6215414.534 8  14017849.849 8
  20069173.875    20069180.199    -9368566.404 7  11798840.472 8
  22222305.483    22222313.065    -6438283.481 7  13841041.111 8
  20805843.685    20805851.356   -10530703.926 8  10881361.518 8
 86  6 18  1 29 53.0800000  0  4G 6G 9G11G13
  21909526.187    21909532.949    -6197903.803 8  14031494.563 8
  20069331.159    20069334.212    -9367744.703 7  11799480.748 8
  22225210.608    22225220.490    -6423005.783 7  13852945.805 9
  20804690.423    20804696.657   -10536765.588 8  10876638.149 8
 86  6 18  1 29 59.0800000  0  4G 6G 9G11G13
  21912861.908    21912868.706    -6180375.516 9  14045152.965 8
  20069491.448    20069496.460    -9366897.929 7  11800140.565 8
  22228119.862    22228128.241    -6407721.358 8  13864855.722 9
  20803540.077    20803546.715   -10542808.132 9  10871929.676 8
 86  6 18  1 30  5.0800000  0  4G 6G 9G11G13
  21916200.885    21916206.613    -6162829.653 8  14058825.048 9
  20069655.338    20069662.041    -9366025.934 7  11800820.060 8
  22231030.638    22231037.619    -6392430.272 8  13876770.835 9
  20802394.823    20802401.818   -10548831.603 9  10867236.067 8
 86  6 18  1 30 11.0800000  0  4G 6G 9G11G13
  21919543.067    21919549.714    -6145266.166 7  14072510.874 9
  20069827.091    20069834.575    -9365128.690 7  11801519.200 7
  22233940.707    22233948.485    -6377132.490 7  13888691.183 8
  20801251.379    20801258.089   -10554835.893 9  10862557.395 8
 86  6 18  1 30 17.0800000  0  4G 6G 9G11G13
  21922887.923    21922895.989    -6127685.111 8  14086210.395 8
  20070002.872    20070009.761    -9364206.153 6  11802238.071 8
  22236852.780    22236861.463    -6361827.965 6  13900616.779 9
  20800113.221    20800119.317   -10560821.037 8  10857893.663 8
 86  6 18  1 30 23.0800000  0  4G 6G 9G11G13
  21926237.263    21926244.995    -6110086.428 7  14099923.640 8
  20070185.070    20070189.621    -9363258.306 8  11802976.642 8
  22239768.106    22239773.883    -6346516.769 7  13912547.571 8
  20798977.902    20798984.614   -10566787.088 9  10853244.785 9
 86  6 18  1 30 29.0800000  0  4G 6G 9G11G13
  21929589.261    21929597.147    -6092470.161 9  14113650.585 9
  20070368.044    20070374.810    -9362285.270 7  11803734.846 8
  22242683.053    22242687.653    -6331198.849 8  13924483.617 8
  20797845.932    20797852.484   -10572733.973 8  10848610.872 8
 86  6 18  1 30 35.0800000  0  4G 6G 9G11G13
  21932945.943    21932952.554    -6074836.402 8  14127391.162 8
  20070559.805    20070564.761    -9361286.842 8  11804512.855 6
  22245599.351    22245604.331    -6315874.371 9  13936424.762 8
  20796717.504    20796723.412   -10578661.808 8  10843991.770 8
 86  6 18  1 30 41.0800000  0  4G 6G 9G11G13
  21936304.626    21936310.411    -6057185.124 8  14141145.401 8
  20070754.639    20070759.464    -9360263.253 7  11805310.458 8
  22248517.129    22248522.629    -6300543.314 9  13948371.038 8
  20795593.199    20795599.073   -10584570.489 8  10839387.605 7
 86  6 18  1 30 47.0800000  0  4G 6G 9G11G13
  21939666.729    21939673.660    -6039516.314 8  14154913.296 8
  20070954.315    20070960.319    -9359214.341 7  11806127.790 8
  22251435.527    22251441.303    -6285205.619 8  13960322.489 8
  20794472.450    20794478.976   -10590460.056 9  10834798.348 8
 86  6 18  1 30 53.0800000  0  4G 6G 9G11G13
  21943032.563    21943039.236    -6021829.964 9  14168694.863 8
  20071157.698    20071163.298    -9358140.137 7  11806964.831 7
  22254356.872    22254359.485    -6269861.280 9  13972279.131 8
  20793354.787    20793361.568   -10596330.473 9  10830224.006 8
 86  6 18  1 30 59.0800000  0  4G 6G 9G11G13
  21946401.773    21946408.085    -6004126.087 7  14182490.082 8
  20071365.546    20071372.155    -9357040.613 7  11807821.592 7
  22257276.129    22257282.487    -6254510.302 9  13984240.945 7
  20792242.621    20792249.098   -10602181.651 8  10825664.634 8
 86  6 18  1 31  5.0800000  0  4G 6G 9G11G13
  21949774.046    21949780.504    -5986404.676 8  14196298.966 8
  20071581.874    20071586.111    -9355915.765 7  11808698.109 8
  22260199.944    22260204.405    -6239152.769 8  13996207.864 8
  20791132.450    20791139.110   -10608013.643 7  10821120.236 8
 86  6 18  1 31 11.0800000  0  4G 6G 9G11G13
  21953148.643    21953155.351    -5968665.791 7  14210121.449 8
  20071800.379    20071806.141    -9354765.516 7  11809594.379 8
  22263123.592    22263127.592    -6223788.667 8  14008179.900 8
  20790026.922    20790032.563   -10613826.544 9  10816590.709 8
 86  6 18  1 31 17.0800000  0  4G 6G 9G11G13
  21956528.080    21956534.506    -5950909.339 8  14223957.643 8
  20072023.406    20072029.502    -9353589.773 6  11810510.536 8
  22266048.714    22266052.970    -6208417.892 9  14020157.124 8
  20788924.082    20788931.452   -10619620.175 8  10812076.190 8
 86  6 18  1 31 23.0800000  0  4G 6G 9G11G13
  21959910.401    21959915.967    -5933135.343 8  14237807.494 8
  20072250.801    20072258.380    -9352388.569 6  11811446.549 7
  22268974.275    22268978.997    -6193040.533 7  14032139.485 8
  20787825.482    20787831.678   -10625394.667 8  10807576.597 8
 86  6 18  1 31 29.0800000  0  4G 6G 9G11G13
  21963296.077    21963302.033    -5915343.772 9  14251671.053 7
  20072484.882    20072492.112    -9351161.947 7  11812402.350 8
  22271900.781    22271906.821    -6177656.562 7  14044127.003 8
  20786728.654    20786736.863   -10631149.895 7  10803092.006 9
 86  6 18  1 31 35.0800000  0  4G 6G 9G11G13
  21966684.528    21966691.600    -5897534.650 9  14265548.276 8
  20072723.245    20072729.839    -9349909.902 7  11813377.962 7
  22274829.768    22274836.247    -6162265.975 8  14056119.663 8
  20785637.947    20785644.506   -10636885.867 9  10798622.418 9
 86  6 18  1 31 41.0800000  0  4G 6G 9G11G13
  21970076.850    21970082.915    -5879708.164 8  14279439.038 7
  20072965.705    20072972.500    -9348632.385 6  11814373.430 8
  22277759.519    22277766.565    -6146868.891 7  14068117.379 8
  20784550.964    20784556.818   -10642602.774 8  10794167.687 8
 86  6 18  1 31 47.0800000  0  4G 6G 9G11G13
  21973472.336    21973480.380    -5861864.199 8  14293343.427 7
  20073213.728    20073220.535    -9347329.487 7  11815388.677 7
  22280690.814    22280698.146    -6131465.305 8  14080120.151 9
  20783465.958    20783472.437   -10648300.629 8  10789727.806 9
 86  6 18  1 31 53.0800000  0  4G 6G 9G11G13
  21976870.438    21976877.836    -5844002.914 8  14307261.297 9
  20073466.373    20073473.648    -9346001.244 6  11816423.661 7
  22283621.545    22283630.672    -6116055.353 7  14092127.901 8
  20782384.785    20782392.035   -10653979.465 8  10785302.733 7
 86  6 18  1 31 59.0800000  0  4G 6G 9G11G13
  21980273.952    21980280.635    -5826124.336 9  14321192.644 9
  20073726.419    20073731.709    -9344647.573 6  11817478.463 8
  22286556.658    22286564.616    -6100639.001 8  14104140.620 8
  20781307.640    20781315.099   -10659639.207 8  10780892.546 9
 86  6 18  1 32  5.0800000  0  4G 6G 9G11G13
  21983679.301    21983686.186    -5808228.391 9  14335137.530 8
  20073986.794    20073992.991    -9343268.587 6  11818552.990 7
  22289489.661    22289498.055    -6085216.257 7  14116158.321 9
  20780235.082    20780241.135   -10665279.830 8  10776497.258 8
 86  6 18  1 32 11.0800000  0  4G 6G 9G11G13
  21987087.872    21987094.398    -5790315.123 8  14349095.917 8
  20074253.011    20074261.402    -9341864.087 7  11819647.408 8
  22292427.501    22292435.499    -6069787.100 8  14128181.033 8
  20779166.126    20779171.647   -10670901.361 8  10772116.862 8
 86  6 18  1 32 17.0800000  0  4G 6G 9G11G13
  21990498.198    21990507.224    -5772384.586 8  14363067.757 8
  20074526.139    20074533.254    -9340434.247 6  11820761.562 8
  22295364.051    22295372.857    -6054351.596 8  14140208.672 8
  20778099.629    20778105.155   -10676503.850 8  10767751.290 8
 86  6 18  1 32 23.0800000  0  4G 6G 9G11G13
  21993914.358    21993921.809    -5754436.749 8  14377053.063 8
  20074802.595    20074810.515    -9338979.034 6  11821895.497 7
  22298304.229    22298311.327    -6038909.764 8  14152241.262 8
  20777036.746    20777043.313   -10682087.319 9  10763400.529 7
 86  6 18  1 32 29.0800000  0  4G 6G 9G11G13
  21997333.416    21997341.427    -5736471.725 9  14391051.777 8
  20075085.543    20075092.485    -9337498.466 6  11823049.204 8
  22301244.004    22301251.025    -6023461.676 9  14164278.725 8
  20775978.321    20775984.447   -10687651.837 8  10759064.545 8
 86  6 18  1 32 35.0800000  0  4G 6G 9G11G13
  22000757.039    22000761.717    -5718489.544 9  14405063.842 8
  20075371.389    20075377.491    -9335992.611 6  11824222.574 7
  22304184.638    22304191.506    -6008007.432 9  14176321.005 9
  20774922.618    20774928.485   -10693197.432 9  10754743.312 8
 86  6 18  1 32 41.0800000  0  4G 6G 9G11G13
  22004181.200    22004187.732    -5700490.302 8  14419089.211 8
  20075663.685    20075670.256    -9334461.525 7  11825415.631 8
  22307128.011    22307132.682    -5992547.053 8  14188368.046 9
  20773870.805    20773876.518   -10698724.113 8  10750436.813 8
 86  6 18  1 32 47.0800000  0  4G 6G 9G11G13
  22007608.957    22007615.249    -5682473.934 8  14433127.928 7
  20075959.611    20075966.038    -9332905.050 6  11826628.461 7
  22310071.345    22310076.736    -5977080.587 8  14200419.849 8
  20772823.375    20772828.650   -10704231.816 9  10746145.110 7
 86  6 18  1 32 53.0800000  0  4G 6G 9G11G13
  22011040.226    22011046.896    -5664440.403 9  14447180.034 9
  20076260.810    20076266.200    -9331323.190 7  11827861.069 7
  22313014.947    22313020.919    -5961607.913 9  14212476.470 8
  20771778.658    20771784.140   -10709720.459 7  10741868.244 8
 86  6 18  1 32 59.0800000  0  4G 6G 9G11G13
  22014475.099    22014481.294    -5646389.619 8  14461245.560 7
  20076566.277    20076572.542    -9329715.789 7  11829113.581 7
  22315960.334    22315966.087    -5946128.993 9  14224537.977 7
  20770737.123    20770743.471   -10715189.987 8  10737606.273 8
 86  6 18  1 33  5.0800000  0  4G 6G 9G11G13
  22017913.707    22017919.667    -5628321.671 8  14475324.470 7
  20076878.072    20076882.994    -9328082.869 7  11830385.979 7
  22318905.915    22318912.519    -5930643.832 9  14236604.330 8
  20769699.326    20769706.242   -10720640.438 8  10733359.173 8
 86  6 18  1 33 11.0800000  0  4G 6G 9G11G13
  22021356.997    22021360.046    -5610236.520 8  14489416.800 7
  20077192.118    20077198.322    -9326424.556 7  11831678.169 8
  22321854.479    22321860.409    -5915152.445 8  14248675.539 8
  20768666.548    20768672.673   -10726071.820 7  10729126.933 7
 86  6 18  1 33 17.0800000  0  4G 6G 9G11G13
  22024800.803    22024806.023    -5592134.241 9  14503522.460 7
  20077512.813    20077518.786    -9324740.800 7  11832990.177 7
  22324803.386    22324808.353    -5899654.895 7  14260751.559 7
  20767636.740    20767643.385   -10731484.227 9  10724909.471 8
 86  6 18  1 33 23.0800000  0  4G 6G 9G11G13
  22028249.122    22028253.495    -5574014.913 8  14517641.400 7
  20077837.594    20077844.057    -9323031.686 7  11834321.957 8
  22327752.060    22327758.728    -5884151.276 8  14272832.300 7
  20766609.170    20766616.167   -10736877.701 8  10720706.779 7
 86  6 18  1 33 29.0800000  0  4G 6G 9G11G13
  22031699.653    22031704.518    -5555878.426 9  14531773.730 7
  20078167.516    20078174.529    -9321296.926 6  11835673.710 7
  22330704.591    22330710.272    -5868641.456 7  14284917.868 7
  20765586.893    20765594.490   -10742252.116 9  10716518.928 8
 86  6 18  1 33 35.0800000  0  4G 6G 9G11G13
  22035154.095    22035160.297    -5537724.848 8  14545919.355 8
  20078501.735    20078508.552    -9319536.716 6  11837045.290 8
  22333655.650    22333663.060    -5853125.520 7  14297008.206 8
  20764568.078    20764574.672   -10747607.524 8  10712345.880 8
 86  6 18  1 33 41.0800000  0  4G 6G 9G11G13
  22038613.257    22038618.694    -5519554.166 8  14560078.318 7
  20078842.030    20078849.654    -9317751.148 6  11838436.647 8
  22336610.815    22336616.600    -5837603.482 8  14309103.291 7
  20763552.810    20763559.539   -10752943.894 8  10708187.676 8
 86  6 18  1 33 47.0800000  0  4G 6G 9G11G13
  22042074.167    22042078.841    -5501366.523 8  14574250.500 7
  20079188.535    20079193.698    -9315940.055 7  11839847.894 8
  22339566.789    22339571.141    -5822075.438 7  14321203.074 7
  20762542.468    20762547.844   -10758261.295 9  10704044.242 9
 86  6 18  1 33 53.0800000  0  4G 6G 9G11G13
  22045538.152    22045544.194    -5483161.794 8  14588436.002 8
  20079537.798    20079543.255    -9314103.506 6  11841278.963 8
  22342521.991    22342528.166    -5806541.341 8  14333307.557 8
  20761533.693    20761539.006   -10763559.753 8  10699915.573 8
 86  6 18  1 33 59.0800000  0  4G 6G 9G11G13
  22049005.788    22049010.489    -5464940.082 8  14602634.707 7
  20079892.625    20079898.002    -9312241.344 6  11842729.989 9
  22345479.186    22345485.680    -5791001.240 8  14345416.740 8
  20760528.651    20760534.349   -10768839.338 8  10695801.617 8
 86  6 18  1 34  5.0800000  0  4G 6G 9G11G13
  22052475.868    22052481.821    -5446701.433 8  14616846.637 8
  20080251.148    20080258.027    -9310353.768 7  11844200.830 7
  22348437.582    22348442.981    -5775455.105 8  14357530.598 8
  20759526.947    20759533.487   -10774099.958 8  10691702.431 7
 86  6 18  1 34 11.0800000  0  4G 6G 9G11G13
  22055950.732    22055956.142    -5428445.871 8  14631071.729 8
  20080614.792    20080621.006    -9308440.907 7  11845691.379 7
  22351396.531    22351403.081    -5759903.074 7  14369649.079 8
  20758529.790    20758535.806   -10779341.733 8  10687617.936 8
 86  6 18  1 34 17.0800000  0  4G 6G 9G11G13
  22059427.414    22059432.989    -5410173.399 8  14645310.013 7
  20080982.250    20080990.349    -9306502.466 6  11847201.841 8
  22354357.963    22354364.802    -5744345.112 8  14381772.149 9
  20757535.881    20757541.499   -10784564.612 8  10683548.150 8
 86  6 18  1 34 23.0800000  0  4G 6G 9G11G13
  22062907.575    22062912.756    -5391884.137 9  14659561.381 7
  20081357.832    20081364.562    -9304538.683 7  11848732.056 8
  22357319.573    22357326.559    -5728781.389 7  14393899.726 9
  20756544.938    20756550.993   -10789768.666 8  10679493.063 8
 86  6 18  1 34 29.0800000  0  4G 6G 9G11G13
  22066390.976    22066397.278    -5373578.132 8  14673825.781 8
  20081735.848    20081743.533    -9302549.522 8  11850282.052 8
  22360282.189    22360289.184    -5713211.850 8  14406031.816 9
  20755558.117    20755564.928   -10794953.948 8  10675452.577 8
 86  6 18  1 34 35.0800000  0  4G 6G 9G11G13
  22069878.024    22069883.487    -5355255.311 8  14688103.307 8
  20082118.915    20082125.314    -9300534.941 7  11851851.850 8
  22363245.879    22363253.921    -5697636.509 8  14418168.451 8
  20754574.735    20754580.944   -10800120.533 8  10671426.673 8
 86  6 18  1 34 41.0800000  0  4G 6G 9G11G13
  22073368.564    22073373.051    -5336915.618 8  14702393.959 8
  20082507.186    20082514.489    -9298494.946 8  11853441.443 8
  22366211.383    22366217.665    -5682055.310 9  14430309.627 8
  20753595.642    20753601.823   -10805268.195 9  10667415.508 8
 86  6 18  1 34 47.0800000  0  4G 6G 9G11G13
  22076860.525    22076866.889    -5318559.095 8  14716697.740 8
  20082899.701    20082906.750    -9296429.451 6  11855050.916 7
  22369177.450    22369183.961    -5666468.324 8  14442455.328 9
  20752619.523    20752626.135   -10810397.007 9  10663419.034 8
 86  6 18  1 34 53.0800000  0  4G 6G 9G11G13
  22080357.494    22080363.029    -5300185.755 9  14731014.620 9
  20083297.608    20083303.612    -9294338.485 7  11856680.237 8
  22372144.804    22372151.740    -5650875.495 9  14454605.589 9
  20751649.530    20751653.726   -10815506.943 8  10659437.273 8
 86  6 18  1 34 59.0800000  0  4G 6G 9G11G13
  22083855.408    22083862.911    -5281795.405 8  14745344.741 9
  20083703.205    20083707.285    -9292221.871 7  11858329.540 7
  22375112.864    22375120.660    -5635276.632 8  14466760.523 8
  20750678.823    20750685.593   -10820597.793 8  10655470.385 8
 86  6 18  1 35  5.0800000  0  4G 6G 9G11G13
  22087358.245    22087365.978    -5263388.010 8  14759688.169 9
  20084107.777    20084115.092    -9290079.504 7  11859998.910 8
  22378082.472    22378089.736    -5619671.730 9  14478920.194 9
  20749714.497    20749720.736   -10825669.500 8  10651518.396 7
 86  6 18  1 35 11.0800000  0  4G 6G 9G11G13
  22090864.035    22090872.323    -5244963.603 9  14774044.819 8
  20084522.054    20084527.059    -9287911.280 5  11861688.436 6
  22381052.276    22381060.619    -5604060.851 8  14491084.506 8
  20748752.976    20748758.856   -10830722.075 8  10647581.337 8
 86  6 18  1 35 17.0800000  0  4G 6G 9G11G13
  22094374.633    22094380.569    -5226522.167 8  14788414.764 8
  20084938.634    20084946.272    -9285717.262 7  11863398.068 7
  22384024.183    22384032.825    -5588443.955 8  14503253.496 8
  20747795.748    20747801.867   -10835755.509 9  10643659.174 8
 86  6 18  1 35 23.0800000  0  4G 6G 9G11G13
  22097887.803    22097894.056    -5208063.778 9  14802797.914 8
  20085360.218    20085368.794    -9283497.561 7  11865127.716 7
  22386996.259    22387004.356    -5572821.158 7  14515427.111 8
  20746840.981    20746846.048   -10840769.953 8  10639751.827 7
 86  6 18  1 35 29.0800000  0  4G 6G 9G11G13
  22101402.513    22101408.847    -5189588.455 8  14817194.255 8
  20085787.632    20085794.819    -9281252.153 6  11866877.361 7
  22389970.043    22389978.669    -5557192.405 8  14527605.352 8
  20745890.565    20745896.460   -10845765.369 8  10635859.284 8
 86  6 18  1 35 35.0800000  0  4G 6G 9G11G13
  22104921.938    22104928.354    -5171096.258 8  14831603.756 8
  20086220.191    20086228.770    -9278980.996 7  11868647.103 7
  22392946.708    22392953.271    -5541557.792 8  14539788.160 8
  20744943.437    20744947.762   -10850741.742 9  10631981.600 8
 86  6 18  1 35 41.0800000  0  4G 6G 9G11G13
  22108445.001    22108449.440    -5152587.168 9  14846026.405 9
  20086657.082    20086665.046    -9276684.264 7  11870436.755 8
  22395921.160    22395930.494    -5525917.359 7  14551975.511 7
  20744000.059    20744005.278   -10855699.170 9  10628118.670 8
 86  6 18  1 35 47.0800000  0  4G 6G 9G11G13
  22111969.502    22111975.831    -5134061.405 8  14860462.066 7
  20087100.177    20087107.360    -9274361.917 6  11872246.373 8
  22398899.169    22398907.631    -5510271.189 8  14564167.328 7
  20743059.888    20743063.952   -10860637.746 9  10624270.421 7
 86  6 18  1 35 53.0800000  0  4G 6G 9G11G13
  22115497.974    22115503.966    -5115518.977 8  14874910.703 8
  20087546.420    20087553.075    -9272014.054 7  11874075.889 7
  22401877.504    22401885.026    -5494619.429 8  14576363.498 7
  20742122.407    20742128.089   -10865557.537 8  10620436.830 8
 86  6 18  1 35 59.0800000  0  4G 6G 9G11G13
  22119028.973    22119037.258    -5096959.877 8  14889372.333 8
  20087999.948    20088005.227    -9269640.522 6  11875925.388 7
  22404858.537    22404864.894    -5478962.036 8  14588564.066 8
  20741191.423    20741196.214   -10870458.498 8  10616617.900 8
 86  6 18  1 36  5.0800000  0  4G 6G 9G11G13
  22122564.403    22122570.791    -5078384.137 9  14903846.927 8
  20088455.767    20088460.906    -9267241.367 7  11877794.845 8
  22407839.019    22407844.494    -5463299.058 7  14600768.989 8
  20740262.065    20740267.372   -10875340.729 8  10612813.575 7
 86  6 18  1 36 11.0800000  0  4G 6G 9G11G13
  22126102.617    22126110.398    -5059791.892 8  14918334.374 8
  20088916.849    20088922.968    -9264816.840 6  11879684.090 7
  22410820.807    22410826.856    -5447630.531 8  14612978.240 7
  20739336.950    20739342.343   -10880204.269 8  10609023.805 7
 86  6 18  1 36 17.0800000  0  4G 6G 9G11G13
  22129643.793    22129650.836    -5041183.099 8  14932834.710 8
  20089383.317    20089388.766    -9262366.805 6  11881593.201 7
  22413803.558    22413808.933    -5431956.406 8  14625191.844 7
  20738414.691    20738419.757   -10885049.150 7  10605248.570 8
 86  6 18  1 36 23.0800000  0  4G 6G 9G11G13
  22133187.629    22133194.053    -5022557.752 8  14947347.970 8
  20089853.468    20089859.578    -9259891.297 7  11883522.170 7
  22416786.872    22416792.151    -5416276.777 8  14637409.744 8
  20737496.757    20737501.446   -10889875.283 9  10601487.940 9
 86  6 18  1 36 29.0800000  0  4G 6G 9G11G13
  22136734.586    22136741.181    -5003915.935 8  14961874.058 8
  20090329.996    20090335.829    -9257390.297 7  11885470.987 7
  22419771.989    22419777.227    -5400591.714 8  14649631.870 8
  20736581.684    20736587.231   -10894682.659 8  10597741.960 8
 86  6 18  1 36 35.0800000  0  4G 6G 9G11G13
  22140285.062    22140292.161    -4985257.714 9  14976412.919 8
  20090810.527    20090815.661    -9254863.805 6  11887439.689 8
  22422758.795    22422764.203    -5384901.233 8  14661858.240 8
  20735670.527    20735677.197   -10899471.274 8  10594010.565 8
 86  6 18  1 36 41.0800000  0  4G 6G 9G11G13
  22143839.780    22143845.903    -4966583.146 8  14990964.523 8
  20091296.702    20091301.361    -9252311.865 7  11889428.204 7
  22425745.780    22425750.069    -5369205.422 9  14674088.729 7
  20734762.839    20734767.304   -10904241.307 8  10590293.643 7
 86  6 18  1 36 47.0800000  0  4G 6G 9G11G13
  22147396.527    22147403.173    -4947892.053 8  15005529.013 7
  20091785.613    20091792.909    -9249734.397 6  11891436.621 7
  22428732.691    22428740.239    -5353504.111 9  14686323.520 8
  20733859.300    20733863.478   -10908992.645 8  10586591.307 8
 86  6 18  1 36 53.0800000  0  4G 6G 9G11G13
  22150956.295    22150962.244    -4929184.422 8  15020106.368 8
  20092280.126    20092288.512    -9247131.305 6  11893464.993 8
  22431722.225    22431728.802    -5337797.341 8  14698562.554 8
  20732956.991    20732961.917   -10913725.271 8  10582903.556 8
 86  6 18  1 36 59.0800000  0  4G 6G 9G11G13
  22154519.837    22154526.845    -4910460.209 9  15034696.657 8
  20092781.680    20092787.376    -9244502.561 7  11895513.372 7
  22434711.166    22434717.961    -5322085.059 8  14710805.889 9
  20732060.831    20732064.582   -10918439.150 9  10579230.410 9
 86  6 18  1 37  5.0800000  0  4G 6G 9G11G13
  22158085.144    22158092.718    -4891719.398 8  15049299.881 9
  20093287.434    20093293.612    -9241848.024 6  11897581.818 7
  22437703.268    22437709.190    -5306367.172 8  14723053.577 9
  20731166.851    20731172.848   -10923134.106 8  10575571.998 8
 86  6 18  1 37 11.0800000  0  4G 6G 9G11G13
  22161655.014    22161662.095    -4872961.991 8  15063916.025 8
  20093798.015    20093803.712    -9239167.772 7  11899670.338 8
  22440696.693    22440701.415    -5290643.741 8  14735305.599 8
  20730277.732    20730283.327   -10927810.174 9  10571928.313 8
 86  6 18  1 37 17.0800000  0  4G 6G 9G11G13
  22165227.173    22165234.352    -4854188.052 7  15078545.066 8
  20094312.154    20094318.167    -9236461.789 6  11901778.891 7
  22443687.972    22443694.736    -5274914.798 9  14747561.918 8
  20729391.452    20729396.944   -10932467.328 9  10568299.367 8
 86  6 18  1 37 23.0800000  0  4G 6G 9G11G13
  22168803.072    22168809.147    -4835397.656 8  15093186.922 8
  20094831.593    20094837.819    -9233730.043 7  11903907.523 7
  22446683.067    22446688.958    -5259180.443 9  14759822.441 8
  20728508.402    20728514.472   -10937105.711 9  10564685.038 7
 86  6 18  1 37 29.0800000  0  4G 6G 9G11G13
  22172381.397    22172388.585    -4816590.717 7  15107841.657 8
  20095354.977    20095362.200    -9230972.818 6  11906056.004 8
  22449678.327    22449683.349    -5243440.599 9  14772087.254 9
  20727627.961    20727635.271   -10941725.264 9  10561085.380 9
 86  6 18  1 37 35.0800000  0  4G 6G 9G11G13
  22175962.314    22175971.066    -4797767.357 8  15122509.189 8
  20095884.834    20095891.691    -9228189.799 6  11908224.584 7
  22452673.448    22452679.310    -5227695.328 8  14784356.294 8
  20726753.521    20726759.976   -10946326.084 8  10557500.334 9
 86  6 18  1 37 41.0800000  0  4G 6G 9G11G13
  22179548.490    22179556.447    -4778927.533 9  15137189.556 8
  20096419.454    20096426.374    -9225381.096 6  11910413.203 7
  22455670.932    22455677.134    -5211944.537 8  14796629.632 8
  20725881.746    20725887.270   -10950908.127 8  10553929.907 7
 86  6 18  1 37 47.0800000  0  4G 6G 9G11G13
  22183136.841    22183144.461    -4760071.285 7  15151882.724 8
  20096958.739    20096966.426    -9222546.584 6  11912621.893 7
  22458669.308    22458675.646    -5196188.349 9  14808907.177 9
  20725013.927    20725019.319   -10955471.339 8  10550374.162 9
 86  6 18  1 37 53.0800000  0  4G 6G 9G11G13
  22186729.325    22186735.104    -4741198.608 8  15166588.687 8
  20097504.923    20097511.051    -9219686.411 7  11914850.608 7
  22461667.655    22461674.934    -5180426.811 7  14821188.876 9
  20724149.533    20724153.870   -10960015.797 9  10546833.035 7
 86  6 18  1 37 59.0800000  0  4G 6G 9G11G13
  22190323.909    22190329.573    -4722309.779 8  15181307.241 8
  20098054.947    20098060.282    -9216800.776 7  11917099.139 8
  22464667.024    22464675.776    -5164660.199 9  14833474.541 8
  20723286.799    20723293.125   -10964541.669 8  10543306.372 8
 86  6 18  1 38  5.0800000  0  4G 6G 9G11G13
  22193920.070    22193925.721    -4703404.720 8  15196038.445 8
  20098607.876    20098612.881    -9213889.522 7  11919367.649 8
  22467669.064    22467675.040    -5148888.335 8  14845764.299 8
  20722428.882    20722436.347   -10969048.893 8  10539794.258 8
 86  6 18  1 38 11.0800000  0  4G 6G 9G11G13
  22197520.593    22197527.327    -4684483.457 8  15210782.279 8
  20099167.262    20099173.875    -9210952.727 7  11921656.044 7
  22470671.321    22470677.624    -5133111.347 8  14858058.060 9
  20721575.794    20721581.507   -10973537.602 9  10536296.557 8
 86  6 18  1 38 17.0800000  0  4G 6G 9G11G13
  22201125.219    22201130.597    -4665545.932 7  15225538.786 9
  20099731.648    20099737.343    -9207990.354 7  11923964.392 7
  22473674.173    22473681.534    -5117329.093 8  14870355.915 8
  20720725.651    20720731.945   -10978007.758 7  10532813.332 8
 86  6 18  1 38 23.0800000  0  4G 6G 9G11G13
  22204731.062    22204737.609    -4646592.132 8  15240307.962 7
  20100298.961    20100304.914    -9205002.173 7  11926292.827 8
  22476678.018    22476684.838    -5101541.579 8  14882657.873 8
  20719877.862    20719884.305   -10982459.192 8  10529344.684 8
 86  6 18  1 38 29.0800000  0  4G 6G 9G11G13
  22208342.209    22208346.543    -4627622.159 8  15255089.750 8
  20100873.691    20100878.742    -9201988.344 8  11928641.272 7
  22479682.396    22479689.467    -5085748.917 6  14894963.835 8
  20719034.507    20719039.684   -10986891.951 8  10525890.583 7
 86  6 18  1 38 35.0800000  0  4G 6G 9G11G13
  22211954.549    22211960.842    -4608636.085 8  15269884.090 8
  20101450.817    20101456.134    -9198948.958 7  11931009.635 7
  22482689.434    22482695.797    -5069951.160 8  14907273.763 8
  20718194.066    20718200.906   -10991306.147 8  10522450.948 7
 86  6 18  1 38 41.0800000  0  4G 6G 9G11G13
  22215570.081    22215576.627    -4589633.658 9  15284691.151 7
  20102034.343    20102039.388    -9195883.905 6  11933397.961 8
  22485696.985    22485703.702    -5054148.188 8  14919587.757 8
  20717358.472    20717363.465   -10995701.713 8  10519025.831 8
 86  6 18  1 38 47.0800000  0  4G 6G 9G11G13
  22219189.893    22219195.536    -4570615.091 8  15299510.802 7
  20102622.079    20102629.052    -9192793.223 8  11935806.271 7
  22488705.551    22488713.295    -5038340.011 7  14931905.829 8
  20716525.017    20716530.465   -11000078.630 9  10515615.259 7
 86  6 18  1 38 53.0800000  0  4G 6G 9G11G13
  22222813.442    22222818.832    -4551580.291 8  15314343.107 8
  20103216.371    20103222.609    -9189676.671 7  11938234.750 8
  22491715.327    22491721.256    -5022526.649 8  14944227.931 7
  20715695.000    20715701.137   -11004436.823 8  10512219.263 8
 86  6 18  1 38 59.0800000  0  4G 6G 9G11G13
  22226438.278    22226443.280    -4532529.273 8  15329188.048 9
  20103814.403    20103819.074    -9186534.478 7  11940683.212 8
  22494725.695    22494731.133    -5006708.105 8  14956554.077 8
  20714869.155    20714875.564   -11008776.331 8  10508837.836 8
 86  6 18  1 39  5.0800000  0  4G 6G 9G11G13
  22230066.666    22230072.268    -4513462.165 8  15344045.530 8
  20104416.757    20104422.738    -9183366.567 7  11943151.725 7
  22497737.628    22497743.639    -4990884.484 9  14968884.175 9
  20714047.090    20714052.816   -11013097.278 8  10505470.853 8
 86  6 18  1 39 11.0800000  0  4G 6G 9G11G13
  22233696.781    22233703.729    -4494378.802 8  15358915.674 8
  20105024.351    20105029.396    -9180172.880 7  11945640.291 7
  22500749.417    22500755.046    -4975055.599 9  14981218.380 8
  20713228.146    20713233.768   -11017399.469 8  10502118.508 8
 86  6 18  1 39 17.0800000  0  4G 6G 9G11G13
  22237331.424    22237336.808    -4475279.243 7  15373798.415 7
  20105636.833    20105643.083    -9176953.401 7  11948148.981 7
  22503762.131    22503768.742    -4959221.619 8  14993556.537 8
  20712413.296    20712418.831   -11021682.985 9  10498780.705 8
 86  6 18  1 39 23.0800000  0  4G 6G 9G11G13
  22240969.085    22240975.645    -4456163.532 8  15388693.782 9
  20106254.360    20106259.964    -9173708.144 7  11950677.751 7
  22506777.357    22506782.225    -4943382.480 9  15005898.732 8
  20711601.163    20711607.442   -11025947.869 8  10495457.418 7
 86  6 18  1 39 29.0800000  0  4G 6G 9G11G13
  22244609.095    22244616.135    -4437031.723 7  15403601.661 9
  20106875.470    20106883.999    -9170437.205 7  11953226.539 7
  22509792.647    22509797.196    -4927538.313 8  15018244.844 8
  20710793.013    20710800.057   -11030194.183 7  10492148.608 9
 86  6 18  1 39 35.0800000  0  4G 6G 9G11G13
  22248252.451    22248259.427    -4417883.915 8  15418522.027 8
  20107504.757    20107510.106    -9167140.521 7  11955795.382 8
  22512807.850    22512814.463    -4911689.109 9  15030594.874 9
  20709987.967    20709995.613   -11034421.903 8  10488854.293 7
 86  6 18  1 39 41.0800000  0  4G 6G 9G11G13
  22251899.851    22251906.857    -4398720.127 8  15433454.837 8
  20108135.944    20108140.684    -9163818.196 7  11958384.200 8
  22515824.561    22515830.123    -4895834.947 8  15042948.766 9
  20709187.712    20709195.568   -11038631.077 8  10485574.401 8
 86  6 18  1 39 47.0800000  0  4G 6G 9G11G13
  22255551.328    22255556.855    -4379540.330 8  15448400.115 7
  20108772.643    20108780.670    -9160470.172 6  11960993.043 7
  22518843.420    22518848.273    -4879975.782 8  15055306.554 9
  20708390.466    20708397.104   -11042821.720 8  10482308.981 7
 86  6 18  1 39 53.0800000  0  4G 6G 9G11G13
  22259204.153    22259208.789    -4360344.535 8  15463357.868 8
  20109415.758    20109421.007    -9157096.514 7  11963621.875 8
  22521858.127    22521868.063    -4864111.679 8  15067668.162 9
  20707597.103    20707602.938   -11046993.826 8  10479057.981 8
 86  6 18  1 39 59.0800000  0  4G 6G 9G11G13
  22262858.384    22262865.074    -4341132.779 8  15478328.049 8
  20110062.422    20110067.444    -9153697.082 7  11966270.779 8
  22524878.133    22524887.906    -4848242.658 8  15080033.616 9
  20706806.722    20706812.993   -11051147.362 9  10475821.467 8
 86  6 18  1 40  5.0800000  0  4G 6G 9G11G13
  22266517.355    22266524.908    -4321905.059 8  15493310.675 8
  20110714.268    20110719.800    -9150271.854 8  11968939.779 8
  22527898.982    22527908.389    -4832368.728 7  15092402.893 8
  20706020.000    20706024.748   -11055282.316 8  10472599.424 8
 86  6 18  1 40 11.0800000  0  4G 6G 9G11G13
  22270179.940    22270187.816    -4302661.343 8  15508305.764 8
  20111371.300    20111375.694    -9146820.980 8  11971628.784 7
  22530919.469    22530929.850    -4816489.836 7  15104776.035 8
  20705235.682    20705243.513   -11059398.658 8  10469391.887 7
 86  6 18  1 40 17.0800000  0  4G 6G 9G11G13
  22273845.372    22273851.791    -4283401.603 9  15523313.335 8
  20112033.350    20112038.604    -9143344.244 8  11974337.920 8
  22533943.080    22533952.898    -4800605.965 7  15117153.051 8
  20704456.632    20704462.925   -11063496.402 9  10466198.831 8
 86  6 18  1 40 23.0800000  0  4G 6G 9G11G13
  22277513.334    22277519.429    -4264126.012 9  15538333.276 8
  20112698.693    20112705.624    -9139841.822 8  11977067.078 8
  22536967.988    22536976.225    -4784717.197 7  15129533.890 9
  20703680.154    20703687.387   -11067575.622 8  10463020.220 7
 86  6 18  1 40 29.0800000  0  4G 6G 9G11G13
  22281184.268    22281191.340    -4244834.425 8  15553365.669 8
  20113371.928    20113376.519    -9136313.657 8  11979816.303 7
  22539993.839    22540000.306    -4768823.484 8  15141918.590 8
  20702908.262    20702912.842   -11071636.293 8  10459856.064 7
 86  6 18  1 40 35.0800000  0  4G 6G 9G11G13
  22284858.713    22284864.277    -4225526.866 8  15568410.502 8
  20114047.431    20114052.656    -9132759.641 7  11982585.644 7
  22543019.460    22543025.042    -4752924.809 8  15154307.175 8
  20702139.400    20702145.654   -11075678.364 9  10456706.396 8
 86  6 18  1 40 41.0800000  0  4G 6G 9G11G13
  22288535.793    22288542.128    -4206203.371 8  15583467.775 8
  20114728.426    20114733.991    -9129179.742 7  11985375.179 8
  22546045.204    22546051.831    -4737021.171 7  15166699.614 8
  20701373.971    20701380.170   -11079701.822 8  10453571.248 8
 86  6 18  1 40 47.0800000  0  4G 6G 9G11G13
  22292215.024    22292222.787    -4186863.848 8  15598537.511 8
  20115414.522    20115420.644    -9125573.951 7  11988184.894 7
  22549072.982    22549080.230    -4721112.549 8  15179095.943 9
  20700610.694    20700617.231   -11083706.568 8  10450450.666 8
 86  6 18  1 40 53.0800000  0  4G 6G 9G11G13
  22295896.702    22295905.822    -4167508.367 8  15613619.692 9
  20116103.658    20116112.367    -9121942.315 7  11991014.730 8
  22552101.294    22552107.316    -4705198.968 9  15191496.131 8
  20699852.250    20699859.227   -11087692.723 8  10447344.575 8
 86  6 18  1 40 59.0800000  0  4G 6G 9G11G13
  22299583.412    22299591.376    -4148136.980 9  15628714.267 8
  20116799.749    20116806.901    -9118284.844 7  11993864.708 7
  22555130.941    22555137.274    -4689280.518 8  15203900.116 8
  20699097.918    20699103.099   -11091660.325 8  10444252.931 8
 86  6 18  1 41  5.0800000  0  4G 6G 9G11G13
  22303272.757    22303281.387    -4128749.723 8  15643821.197 9
  20117502.683    20117508.046    -9114601.588 7  11996734.761 8
  22558161.888    22558165.213    -4673357.299 8  15216307.823 7
  20698346.915    20698351.879   -11095609.434 9  10441175.721 8
 86  6 18  1 41 11.0800000  0  4G 6G 9G11G13
  22306966.116    22306972.339    -4109346.720 8  15658940.421 8
  20118206.826    20118214.393    -9110892.533 8  11999624.946 8
  22561191.819    22561195.621    -4657429.310 8  15228719.255 9
  20697598.658    20697602.893   -11099539.995 8  10438112.953 8
 86  6 18  1 41 17.0800000  0  4G 6G 9G11G13
  22310661.531    22310669.182    -4089927.973 8  15674071.890 8
  20118918.227    20118924.523    -9107157.736 8  12002535.174 8
  22564223.710    22564227.300    -4641496.601 8  15241134.355 8
  20696853.952    20696858.345   -11103452.067 9  10435064.581 8
 86  6 18  1 41 23.0800000  0  4G 6G 9G11G13
  22314359.255    22314367.497    -4070493.452 9  15689215.657 8
  20119633.665    20119640.206    -9103397.097 7  12005465.558 8
  22567255.903    22567261.039    -4625559.148 9  15253553.152 9
  20696112.250    20696117.931   -11107345.601 8  10432030.649 7
 86  6 18  1 41 29.0800000  0  4G 6G 9G11G13
  22318061.835    22318067.932    -4051043.164 8  15704371.737 8
  20120354.547    20120360.376    -9099610.711 7  12008415.984 8
  22570289.232    22570295.945    -4609617.010 8  15265975.602 8
  20695374.694    20695381.043   -11111220.654 8  10429011.147 8
 86  6 18  1 41 35.0800000  0  4G 6G 9G11G13
  22321765.292    22321772.583    -4031577.084 9  15719540.092 8
  20121079.875    20121086.413    -9095798.548 7  12011386.496 8
  22573324.421    22573329.430    -4593670.064 8  15278401.792 8
  20694641.092    20694645.484   -11115077.215 8  10426006.033 8
 86  6 18  1 41 41.0800000  0  4G 6G 9G11G13
  22325473.008    22325480.103    -4012095.305 9  15734720.696 8
  20121809.496    20121815.987    -9091960.446 7  12014377.218 7
  22576357.922    22576363.811    -4577718.372 7  15290831.676 8
  20693910.121    20693917.116   -11118915.307 8  10423015.308 7
 86  6 18  1 41 47.0800000  0  4G 6G 9G11G13
  22329183.277    22329190.224    -3992597.817 8  15749913.521 8
  20122545.573    20122551.199    -9088096.653 7  12017387.965 8
  22579394.890    22579401.078    -4561761.954 7  15303265.246 8
  20693184.529    20693189.278   -11122734.963 8  10420038.955 8
 86  6 18  1 41 53.0800000  0  4G 6G 9G11G13
  22332896.547    22332903.270    -3973084.612 8  15765118.604 9
  20123285.802    20123291.717    -9084207.059 7  12020418.813 8
  22582432.642    22582438.730    -4545800.834 7  15315702.484 8
  20692461.199    20692466.792   -11126536.146 8  10417076.997 8
 86  6 18  1 41 59.0800000  0  4G 6G 9G11G13
  22336613.375    22336620.083    -3953555.781 7  15780335.860 8
  20124031.178    20124036.510    -9080291.618 7  12023469.802 7
  22585471.182    22585476.957    -4529835.071 8  15328143.319 8
  20691740.986    20691748.099   -11130318.876 8  10414129.423 8
 86  6 18  1 42  5.0800000  0  4G 6G 9G11G13
  22340331.953    22340339.068    -3934011.486 9  15795565.175 9
  20124781.141    20124786.443    -9076350.624 7  12026540.705 7
  22588508.218    22588514.678    -4513864.841 9  15340587.642 7
  20691024.893    20691032.390   -11134083.296 7  10411196.111 8
 86  6 18  1 42 11.0800000  0  4G 6G 9G11G13
  22344053.796    22344060.920    -3914451.585 8  15810806.656 8
  20125536.219    20125541.413    -9072383.810 7  12029631.725 7
  22591550.374    22591555.911    -4497890.121 7  15353035.465 8
  20690311.150    20690319.095   -11137829.354 8  10408277.117 8
 86  6 18  1 42 17.0800000  0  4G 6G 9G11G13
  22347778.574    22347785.946    -3894876.184 8  15826060.184 9
  20126295.710    20126300.842    -9068391.292 7  12032742.772 7
  22594592.346    22594597.302    -4481910.922 8  15365486.773 8
  20689602.510    20689609.014   -11141557.107 8  10405372.373 8
 86  6 18  1 42 23.0800000  0  4G 6G 9G11G13
  22351507.009    22351513.720    -3875285.364 8  15841325.743 9
  20127061.261    20127066.017    -9064373.075 7  12035873.849 8
  22597632.859    22597638.921    -4465927.265 8  15377941.577 9
  20688897.513    20688903.356   -11145266.597 8  10402481.875 7
 86  6 18  1 42 29.0800000  0  4G 6G 9G11G13
  22355238.865    22355244.711    -3855679.064 9  15856603.357 7
  20127829.705    20127833.585    -9060329.271 6  12039024.860 7
  22600675.921    22600681.938    -4449939.141 8  15390399.851 8
  20688193.908    20688199.315   -11148957.834 8  10399605.582 8
 86  6 18  1 42 35.0800000  0  4G 6G 9G11G13
  22358973.113    22358978.761    -3836057.420 8  15871892.951 8
  20128604.934    20128607.622    -9056259.826 7  12042195.865 7
  22603719.014    22603725.380    -4433946.595 8  15402861.557 9
  20687494.530    20687500.871   -11152630.846 9  10396743.499 8
 86  6 18  1 42 41.0800000  0  4G 6G 9G11G13
  22362709.866    22362715.071    -3816420.532 9  15887194.410 9
  20129382.544    20129388.496    -9052164.909 7  12045386.693 7
  22606763.258    22606769.828    -4417949.842 9  15415326.552 8
  20686799.937    20686806.183   -11156285.692 8  10393895.573 8
 86  6 18  1 42 47.0800000  0  4G 6G 9G11G13
  22366449.169    22366453.941    -3796768.315 8  15902507.819 8
  20130166.685    20130171.930    -9048044.394 7  12048597.489 8
  22609808.894    22609814.359    -4401948.762 9  15427794.927 9
  20686108.797    20686112.878   -11159922.349 8  10391061.817 8
 86  6 18  1 42 53.0800000  0  4G 6G 9G11G13
  22370191.131    22370196.971    -3777100.749 8  15917833.188 8
  20130956.803    20130962.313    -9043898.041 8  12051828.400 8
  22612854.042    22612860.801    -4385943.301 9  15440266.705 9
  20685419.525    20685424.973   -11163540.695 8  10388242.330 8
 86  6 18  1 42 59.0800000  0  4G 6G 9G11G13
  22373936.998    22373942.612    -3757417.711 8  15933170.612 8
  20131749.550    20131755.248    -9039726.055 7  12055079.294 8
  22615901.042    22615907.334    -4369933.403 8  15452741.940 9
  20684733.451    20684739.377   -11167140.796 8  10385437.061 7
 86  6 18  1 43  5.0800000  0  4G 6G 9G11G13
  22377685.094    22377692.021    -3737719.276 9  15948520.034 8
  20132549.947    20132554.812    -9035528.277 7  12058350.288 8
  22618948.051    22618954.356    -4353919.155 9  15465220.572 8
  20684051.877    20684058.216   -11170722.622 9  10382646.026 7
 86  6 18  1 43 11.0800000  0  4G 6G 9G11G13
  22381436.887    22381442.492    -3718005.406 9  15963881.474 8
  20133353.246    20133358.226    -9031304.594 7  12061641.458 7
  22621996.071    22622001.837    -4337900.473 8  15477702.657 8
  20683373.278    20683379.584   -11174286.104 8  10379869.291 8
 86  6 18  1 43 17.0800000  0  4G 6G 9G11G13
  22385190.939    22385197.973    -3698276.099 8  15979254.936 8
  20134160.812    20134166.701    -9027055.229 8  12064952.643 7
  22625044.483    22625051.199    -4321877.384 8  15490188.169 9
  20682699.258    20682705.334   -11177831.258 8  10377106.848 8
 86  6 18  1 43 23.0800000  0  4G 6G 9G11G13
  22388947.910    22388954.700    -3678531.350 8  15994640.439 8
  20134974.271    20134980.951    -9022779.870 7  12068284.086 7
  22628094.992    22628100.992    -4305849.816 8  15502677.177 8
  20682028.416    20682035.650   -11181358.104 8  10374358.649 8
 86  6 18  1 43 29.0800000  0  4G 6G 9G11G13
  22392709.265    22392715.652    -3658771.133 7  16010038.000 7
  20135793.951    20135799.906    -9018478.653 8  12071635.679 8
  22631145.617    22631151.483    -4289817.714 8  15515169.715 8
  20681360.433    20681367.051   -11184866.532 8  10371624.810 8
 86  6 18  1 43 35.0800000  0  4G 6G 9G11G13
  22396471.622    22396478.078    -3638995.431 9  16025447.619 8
  20136616.612    20136622.914    -9014151.591 7  12075007.410 7
  22634197.251    22634203.477    -4273781.116 8  15527665.765 9
  20680696.541    20680702.636   -11188356.549 9  10368905.327 8
 86  6 18  1 43 41.0800000  0  4G 6G 9G11G13
  22400237.710    22400243.942    -3619204.281 9  16040869.274 9
  20137445.838    20137450.025    -9009798.599 8  12078399.365 7
  22637248.420    22637256.314    -4257740.056 8  15540165.272 9
  20680035.486    20680041.851   -11191828.123 8  10366200.191 8
 86  6 18  1 43 47.0800000  0  4G 6G 9G11G13
  22404006.694    22404013.715    -3599397.697 9  16056302.969 8
  20138279.634    20138284.108    -9005419.679 7  12081811.501 8
  22640302.154    22640308.914    -4241694.538 7  15552668.277 9
  20679379.179    20679385.428   -11195281.300 8  10363509.411 8
 86  6 18  1 43 53.0800000  0  4G 6G 9G11G13
  22407779.878    22407785.532    -3579575.819 8  16071748.572 9
  20139117.371    20139121.928    -9001014.928 8  12085243.766 7
  22643357.359    22643363.064    -4225644.655 8  15565174.671 7
  20678724.788    20678730.229   -11198716.204 8  10360832.856 7
 86  6 18  1 43 59.0800000  0  4G 6G 9G11G13
  22411553.476    22411559.901    -3559738.567 8  16087206.158 9
  20139959.998    20139965.649    -8996584.255 7  12088696.241 7
  22646412.075    22646418.983    -4209590.411 8  15577684.463 8
  20678073.749    20678081.063   -11202132.812 8  10358170.569 8
 86  6 18  1 44  5.0800000  0  4G 6G 9G11G13
  22415331.592    22415339.593    -3539885.962 8  16102675.705 8
  20140809.110    20140814.430    -8992127.766 7  12092168.818 7
  22649467.678    22649474.740    -4193531.800 8  15590197.668 8
  20677428.231    20677434.873   -11205530.996 8  10355522.635 8
 86  6 18  1 44 11.0800000  0  4G 6G 9G11G13
  22419112.195    22419118.969    -3520018.082 8  16118157.154 8
  20141661.415    20141666.572    -8987645.468 8  12095661.510 8
  22652524.457    22652530.314    -4177468.919 8  15602714.201 8
  20676784.777    20676792.330   -11208910.835 8  10352888.995 8
 86  6 18  1 44 17.0800000  0  4G 6G 9G11G13
  22422896.945    22422902.802    -3500134.945 9  16133650.499 8
  20142519.525    20142525.151    -8983137.101 8  12099174.516 8
  22655582.217    22655588.311    -4161401.778 8  15615234.045 7
  20676144.122    20676151.465   -11212272.470 8  10350269.547 8
 86  6 18  1 44 23.0800000  0  4G 6G 9G11G13
  22426684.143    22426689.837    -3480236.526 9  16149155.747 8
  20143382.850    20143387.686    -8978602.973 7  12102707.591 8
  22658639.574    22658646.274    -4145330.344 8  15627757.242 8
  20675508.852    20675515.777   -11215615.865 8  10347664.294 9
 86  6 18  1 44 29.0800000  0  4G 6G 9G11G13
  22430473.363    22430479.491    -3460322.842 8  16164672.898 9
  20144250.388    20144255.951    -8974042.967 8  12106260.839 8
  22661699.787    22661704.976    -4129254.611 8  15640283.779 7
  20674876.272    20674882.625   -11218940.926 8  10345073.354 8
 86  6 18  1 44 35.0800000  0  4G 6G 9G11G13
  22434264.835    22434271.320    -3440393.964 9  16180201.887 7
  20145122.138    20145128.519    -8969457.115 7  12109834.227 7
  22664759.483    22664763.978    -4113174.690 8  15652813.601 8
  20674247.467    20674253.448   -11222247.703 8  10342496.646 7
 86  6 18  1 44 41.0800000  0  4G 6G 9G11G13
  22438060.199    22438066.867    -3420449.913 8  16195742.696 8
  20145999.420    20146004.883    -8964845.440 8  12113427.738 8
  22667820.145    22667825.310    -4097090.580 9  15665346.686 7
  20673621.811    20673626.947   -11225536.252 9  10339934.149 8
 86  6 18  1 44 47.0800000  0  4G 6G 9G11G13
  22441858.173    22441865.221    -3400490.687 9  16211295.333 7
  20146881.438    20146886.599    -8960207.990 7  12117041.326 7
  22670880.804    22670888.594    -4081002.174 9  15677883.090 7
  20672998.928    20673005.083   -11228806.593 9  10337385.837 8
 86  6 18  1 44 53.0800000  0  4G 6G 9G11G13
  22445658.936    22445665.008    -3380516.278 8  16226859.784 8
  20147769.025    20147775.113    -8955544.553 8  12120675.177 7
  22673944.051    22673949.843    -4064909.524 8  15690422.822 8
  20672380.258    20672387.267   -11232058.635 7  10334851.784 8
 86  6 18  1 44 59.0800000  0  4G 6G 9G11G13
  22449462.440    22449469.355    -3360526.766 7  16242436.023 8
  20148661.178    20148667.378    -8950855.392 7  12124329.071 8
  22677006.845    22677013.718    -4048812.737 8  15702965.783 7
  20671765.134    20671770.697   -11235292.483 8  10332331.898 8
 86  6 18  1 45  5.0800000  0  4G 6G 9G11G13
  22453269.865    22453277.722    -3340522.267 8  16258023.922 8
  20149558.226    20149564.620    -8946140.464 7  12128003.042 8
  22680071.053    22680078.181    -4032711.910 8  15715511.866 9
  20671152.500    20671157.794   -11238508.360 9  10329826.028 8
 86  6 18  1 45 11.0800000  0  4G 6G 9G11G13
  22457078.679    22457085.729    -3320502.904 9  16273623.407 8
  20150460.301    20150467.536    -8941399.892 7  12131696.974 7
  22683135.388    22683142.457    -4016607.144 8  15728061.031 8
  20670544.387    20670549.366   -11241706.220 9  10327334.197 8
 86  6 18  1 45 17.0800000  0  4G 6G 9G11G13
  22460891.284    22460898.472    -3300468.572 9  16289234.570 7
  20151368.073    20151373.938    -8936633.632 8  12135410.945 7
  22686199.977    22686207.757    -4000498.407 8  15740613.276 8
  20669939.162    20669945.500   -11244886.016 8  10324856.435 8
 86  6 18  1 45 23.0800000  0  4G 6G 9G11G13
  22464707.520    22464712.991    -3280419.342 9  16304857.340 8
  20152279.870    20152287.499    -8931841.704 7  12139144.920 8
  22689266.246    22689273.889    -3984385.719 8  15753168.614 9
  20669336.601    20669343.581   -11248047.746 7  10322392.754 8
 86  6 18  1 45 29.0800000  0  4G 6G 9G11G13
  22468524.450    22468530.595    -3260355.154 9  16320491.760 8
  20153197.114    20153203.350    -8927023.975 7  12142898.980 8
  22692333.192    22692340.930    -3968269.009 8  15765727.078 9
  20668739.052    20668745.561   -11251191.420 8  10319943.160 8
 86  6 18  1 45 35.0800000  0  4G 6G 9G11G13
  22472344.864    22472351.966    -3240275.977 8  16336137.864 8
  20154118.723    20154124.507    -8922180.440 8  12146673.170 8
  22695401.027    22695408.957    -3952148.259 8  15778288.691 8
  20668144.076    20668151.317   -11254316.972 8  10317507.656 8
 86  6 18  1 45 41.0800000  0  4G 6G 9G11G13
  22476170.162    22476176.004    -3220181.938 9  16351795.550 8
  20155045.272    20155051.365    -8917311.142 7  12150467.431 7
  22698470.035    22698477.157    -3936023.561 7  15790853.368 8
  20667551.961    20667559.257   -11257424.463 8  10315086.244 8
 86  6 18  1 45 47.0800000  0  4G 6G 9G11G13
  22479996.524    22480002.854    -3200073.009 8  16367464.833 7
  20155978.036    20155982.481    -8912416.135 6  12154281.719 7
  22701538.087    22701546.137    -3919894.993 8  15803421.081 9
  20666964.880    20666971.001   -11260513.916 8  10312678.893 8
 86  6 18  1 45 53.0800000  0  4G 6G 9G11G13
  22483826.128    22483831.500    -3179949.335 9  16383145.606 8
  20156912.535    20156918.343    -8907495.370 8  12158116.079 8
  22704609.574    22704616.231    -3903762.594 8  15815991.769 8
  20666380.638    20666387.261   -11263585.400 8  10310285.511 8
 86  6 18  1 45 59.0800000  0  4G 6G 9G11G13
  22487658.269    22487664.724    -3159810.892 8  16398837.891 8
  20157853.450    20157860.865    -8902548.983 7  12161970.402 7
  22707679.868    22707687.457    -3887626.403 8  15828565.417 9
  20665799.482    20665806.249   -11266638.990 8  10307906.109 9
 86  6 18  1 46  5.0800000  0  4G 6G 9G11G13
  22491492.776    22491499.028    -3139657.661 9  16414541.693 7
  20158800.845    20158805.644    -8897576.907 7  12165844.748 7
  22710751.747    22710758.201    -3871486.375 8  15841142.049 8
  20665221.556    20665228.016   -11269674.609 8  10305540.697 7
 86  6 18  1 46 11.0800000  0  4G 6G 9G11G13
  22495330.842    22495337.284    -3119489.598 9  16430257.061 8
  20159752.174    20159756.759    -8892579.062 7  12169739.167 7
  22713824.073    22713830.202    -3855342.492 8  15853721.693 8
  20664647.133    20664654.002   -11272692.224 8  10303189.302 8
 86  6 18  1 46 17.0800000  0  4G 6G 9G11G13
  22499171.022    22499177.949    -3099306.702 8  16445983.973 8
  20160708.388    20160714.382    -8887555.375 7  12173653.713 8
  22716896.706    22716903.827    -3839194.681 9  15866304.398 8
  20664075.796    20664082.997   -11275691.714 8  10300852.038 8
 86  6 18  1 46 23.0800000  0  4G 6G 9G11G13
  22503014.980    22503021.885    -3079108.835 9  16461722.570 8
  20161668.633    20161673.630    -8882505.821 7  12177588.430 7
  22719970.157    22719976.978    -3823042.845 8  15878890.233 8
  20663509.464    20663515.859   -11278673.003 8  10298528.967 8
 86  6 18  1 46 29.0800000  0  4G 6G 9G11G13
  22506861.831    22506867.755    -3058896.079 9  16477472.754 8
  20162634.941    20162639.615    -8877430.366 7  12181543.337 7
  22723044.533    22723051.261    -3806887.035 8  15891479.172 8
  20662944.480    20662951.623   -11281636.146 7  10296220.031 8
 86  6 18  1 46 35.0800000  0  4G 6G 9G11G13
  22510711.004    22510717.375    -3038668.382 8  16493234.591 8
  20163605.084    20163610.064    -8872328.863 7  12185518.530 8
  22726120.268    22726125.023    -3790727.152 8  15904071.293 8
  20662385.736    20662391.239   -11284581.111 8  10293925.254 8
 86  6 18  1 46 41.0800000  0  4G 6G 9G11G13
  22514561.709    22514569.072    -3018425.777 8  16509008.036 8
  20164581.108    20164586.167    -8867201.473 7  12189513.902 7
  22729195.246    22729200.731    -3774563.328 8  15916666.476 8
  20661828.705    20661834.029   -11287507.939 8  10291644.611 8
 86  6 18  1 46 47.0800000  0  4G 6G 9G11G13
  22518417.324    22518424.415    -2998168.419 8  16524792.977 7
  20165561.577    20165568.029    -8862048.248 8  12193529.382 6
  22732270.702    22732278.187    -3758395.557 8  15929264.732 7
  20661275.454    20661281.061   -11290416.711 7  10289378.044 8
 86  6 18  1 46 53.0800000  0  4G 6G 9G11G13
  22522275.152    22522282.001    -2977896.244 7  16540589.462 7
  20166546.318    20166553.177    -8856869.135 8  12197565.056 7
  22735349.433    22735354.190    -3742223.815 8  15941866.075 8
  20660724.894    20660731.020   -11293307.392 8  10287125.561 8
 86  6 18  1 46 59.0800000  0  4G 6G 9G11G13
  22526136.059    22526142.151    -2957609.182 8  16556397.540 8
  20167538.205    20167542.761    -8851664.155 8  12201620.883 7
  22738426.576    22738431.651    -3726048.192 7  15954470.452 8
  20660179.223    20660184.405   -11296179.980 9  10284887.184 8
 86  6 18  1 47  5.0800000  0  4G 6G 9G11G13
  22530000.094    22530006.299    -2937307.396 9  16572217.100 7
  20168532.946    20168537.731    -8846433.262 8  12205696.894 6
  22741506.551    22741511.559    -3709868.745 8  15967077.818 8
  20659635.530    20659641.274   -11299034.494 9  10282662.888 7
 86  6 18  1 47 11.0800000  0  4G 6G 9G11G13
  22533864.612    22533871.396    -2916991.032 8  16588048.015 7
  20169533.822    20169537.874    -8841176.620 7  12209792.976 8
  22744585.126    22744592.187    -3693685.631 7  15979688.042 7
  20659094.646    20659101.585   -11301871.111 9  10280452.542 7
 86  6 18  1 47 17.0800000  0  4G 6G 9G11G13
  22537734.816    22537740.521    -2896660.149 8  16603890.258 9
  20170539.564    20170541.991    -8835894.335 8  12213909.041 7
  22747664.960    22747670.904    -3677498.889 8  15992301.088 7
  20658559.248    20658565.746   -11304689.865 7  10278256.114 8
 86  6 18  1 47 23.0800000  0  4G 6G 9G11G13
  22541604.928    22541611.663    -2876314.793 9  16619743.758 8
  20171549.017    20171553.896    -8830586.370 8  12218045.116 7
  22750746.151    22750753.104    -3661308.605 8  16004916.891 8
  20658025.804    20658031.643   -11307490.922 8  10276073.486 8
 86  6 18  1 47 29.0800000  0  4G 6G 9G11G13
  22545479.632    22545487.060    -2855955.040 7  16635608.486 8
  20172563.267    20172567.891    -8825252.951 8  12222201.025 8
  22753827.786    22753835.091    -3645114.743 8  16017535.473 9
  20657496.594    20657502.211   -11310274.179 9  10273904.715 7
 86  6 18  1 47 35.0800000  0  4G 6G 9G11G13
  22549356.920    22549364.610    -2835580.706 8  16651484.585 9
  20173583.624    20173588.382    -8819893.650 8  12226377.107 7
  22756910.437    22756916.544    -3628917.188 8  16030156.944 8
  20656970.245    20656976.212   -11313039.540 8  10271749.895 7
 86  6 18  1 47 41.0800000  0  4G 6G 9G11G13
  22553236.330    22553244.204    -2815191.826 8  16667372.006 8
  20174607.655    20174613.133    -8814508.561 8  12230573.280 8
  22759994.513    22760000.585    -3612715.971 8  16042781.261 8
  20656448.128    20656453.250   -11315787.004 8  10269609.008 8
 86  6 18  1 47 47.0800000  0  4G 6G 9G11G13
  22557119.940    22557125.331    -2794788.384 8  16683270.782 9
  20175636.761    20175641.660    -8809097.806 7  12234789.449 7
  22763077.487    22763083.936    -3596511.119 8  16055408.411 9
  20655928.645    20655934.823   -11318516.550 8  10267482.083 9
 86  6 18  1 47 53.0800000  0  4G 6G 9G11G13
  22561004.431    22561012.072    -2774370.398 8  16699180.883 8
  20176671.641    20176678.659    -8803661.049 8  12239025.869 7
  22766161.481    22766168.131    -3580302.572 8  16068038.442 8
  20655412.001    20655418.104   -11321228.158 8  10265369.159 9
 86  6 18  1 47 59.0800000  0  4G 6G 9G11G13
  22564891.958    22564900.056    -2753937.956 9  16715102.244 8
  20177711.533    20177717.890    -8798198.643 8  12243282.289 7
  22769247.011    22769253.831    -3564090.418 8  16080671.276 9
  20654899.014    20654905.679   -11323921.830 8  10263270.191 7
 86  6 18  1 48  5.0800000  0  4G 6G 9G11G13
  22568783.009    22568790.190    -2733491.067 8  16731034.866 8
  20178756.213    20178762.117    -8792710.491 7  12247558.763 8
  22772332.740    22772339.791    -3547874.704 9  16093306.898 9
  20654388.913    20654396.732   -11326597.726 8  10261185.087 8
 86  6 18  1 48 11.0800000  0  4G 6G 9G11G13
  22572676.744    22572683.807    -2713029.658 8  16746978.802 9
  20179806.484    20179810.740    -8787196.607 8  12251855.296 7
  22775420.198    22775426.253    -3531655.388 8  16105945.312 8
  20653883.892    20653889.480   -11329255.785 8  10259113.861 8
 86  6 18  1 48 17.0800000  0  4G 6G 9G11G13
  22576573.160    22576580.572    -2692553.738 8  16762934.044 8
  20180861.222    20180866.014    -8781656.796 7  12256172.027 7
  22778506.833    22778513.219    -3515432.415 8  16118586.583 9
  20653381.777    20653389.058   -11331895.990 8  10257056.571 8
 86  6 18  1 48 23.0800000  0  4G 6G 9G11G13
  22580472.494    22580480.138    -2672063.292 8  16778900.616 8
  20181918.959    20181924.751    -8776091.144 8  12260508.891 7
  22781594.413    22781600.857    -3499205.785 8  16131230.709 8
  20652883.129    20652888.956   -11334518.273 8  10255013.244 8
 86  6 18  1 48 29.0800000  0  4G 6G 9G11G13
  22584374.967    22584382.062    -2651558.417 8  16794878.428 7
  20182982.587    20182987.432    -8770499.711 8  12264865.848 6
  22784683.835    22784689.482    -3482975.588 8  16143877.608 8
  20652386.515    20652393.427   -11337122.645 8  10252983.857 8
 86  6 18  1 48 35.0800000  0  4G 6G 9G11G13
  22588279.140    22588287.212    -2631039.107 8  16810867.492 9
  20184052.196    20184056.815    -8764882.422 8  12269242.954 7
  22787771.252    22787778.932    -3466741.841 7  16156527.265 9
  20651895.364    20651900.472   -11339709.107 8  10250968.440 7
 86  6 18  1 48 41.0800000  0  4G 6G 9G11G13
  22592187.808    22592193.389    -2610505.447 8  16826867.732 8
  20185125.766    20185130.290    -8759239.421 8  12273640.098 7
  22790862.000    22790868.205    -3450504.604 8  16169179.656 8
  20651407.161    20651412.613   -11342277.754 8  10248966.902 9
 86  6 18  1 48 47.0800000  0  4G 6G 9G11G13
  22596097.333    22596104.095    -2589957.422 8  16842879.180 8
  20186204.653    20186208.895    -8753570.647 7  12278057.324 7
  22793950.944    22793959.358    -3434263.798 8  16181834.807 8
  20650920.765    20650927.404   -11344828.536 8  10246979.273 8
 86  6 18  1 48 53.0800000  0  4G 6G 9G11G13
  22600009.123    22600017.256    -2569395.126 8  16858901.741 8
  20187287.361    20187293.382    -8747876.105 8  12282494.621 7
  22797042.186    22797050.749    -3418019.526 8  16194492.665 9
  20650438.260    20650444.874   -11347361.550 8  10245005.493 9
 86  6 18  1 48 59.0800000  0  4G 6G 9G11G13
  22603926.096    22603934.357    -2548818.523 7  16874935.438 8
  20188376.545    20188382.792    -8742155.881 8  12286951.945 6
  22800134.727    22800141.429    -3401771.914 7  16207153.122 8
  20649960.306    20649966.108   -11349876.867 8  10243045.511 9
 86  6 18  1 49  5.0800000  0  4G 6G 9G11G13
  22607843.641    22607851.562    -2528227.694 8  16890980.216 8
  20189470.883    20189475.911    -8736409.898 8  12291429.330 7
  22803226.269    22803233.995    -3385520.906 7  16219816.231 8
  20649484.433    20649491.875   -11352374.455 8  10241099.347 8
 86  6 18  1 49 11.0800000  0  4G 6G 9G11G13
  22611765.441    22611773.499    -2507622.672 8  16907036.071 9
  20190570.366    20190573.283    -8730638.252 8  12295926.707 7
  22806320.621    22806328.195    -3369266.483 8  16232482.004 9
  20649012.801    20649019.655   -11354854.252 7  10239167.043 9
 86  6 18  1 49 17.0800000  0  4G 6G 9G11G13
  22615688.395    22615696.152    -2487003.437 9  16923102.993 8
  20191671.817    20191677.111    -8724840.893 7  12300444.140 7
  22809414.709    22809421.257    -3353008.730 7  16245150.381 8
  20648544.580    20648550.691   -11357316.399 8  10237248.489 8
 86  6 18  1 49 23.0800000  0  4G 6G 9G11G13
  22619615.212    22619622.628    -2466369.974 8  16939180.996 8
  20192779.692    20192785.118    -8719017.736 8  12304981.652 6
  22812508.346    22812514.603    -3336747.504 8  16257821.444 9
  20648079.099    20648086.226   -11359760.794 8  10235343.776 9
 86  6 18  1 49 29.0800000  0  4G 6G 9G11G13
  22623544.129    22623550.325    -2445722.236 8  16955270.148 7
  20193892.887    20193898.459    -8713168.811 7  12309539.251 6
  22815602.947    22815609.485    -3320482.851 8  16270495.203 8
  20647616.622    20647624.253   -11362187.384 8  10233452.926 8
 86  6 18  1 49 35.0800000  0  4G 6G 9G11G13
  22627476.361    22627482.735    -2425060.245 8  16971370.395 8
  20195010.123    20195015.931    -8707294.049 8  12314116.988 8
  22818698.759    22818705.609    -3304214.829 8  16283171.585 8
  20647158.101    20647165.913   -11364596.181 9  10231575.946 8
 86  6 18  1 49 41.0800000  0  4G 6G 9G11G13
  22631410.658    22631417.720    -2404384.064 8  16987481.685 8
  20196133.005    20196138.963    -8701393.567 8  12318714.774 8
  22821795.221    22821801.277    -3287943.387 8  16295850.638 7
  20646703.558    20646710.852   -11366987.224 8  10229712.793 8
 86  6 18  1 49 47.0800000  0  4G 6G 9G11G13
  22635346.547    22635355.241    -2383693.631 7  17003604.096 8
  20197261.820    20197266.338    -8695467.183 8  12323332.719 7
  22824893.590    22824898.946    -3271668.563 8  16308532.315 8
  20646252.241    20646259.094   -11369360.542 8  10227863.463 8
 86  6 18  1 49 53.0800000  0  4G 6G 9G11G13
  22639286.765    22639294.807    -2362989.027 8  17019737.532 8
  20198394.973    20198397.727    -8689514.980 8  12327970.805 7
  22827989.995    22827995.986    -3255390.370 8  16321216.636 7
  20645804.648    20645810.674   -11371716.043 8  10226028.003 8
 86  6 18  1 49 59.0800000  0  4G 6G 9G11G13
  22643230.448    22643237.520    -2342270.297 8  17035881.982 8
  20199532.225    20199537.527    -8683537.001 8  12332628.978 7
  22831088.877    22831094.655    -3239108.764 8  16333903.613 8
  20645359.031    20645365.954   -11374053.682 8  10224206.483 8
 86  6 18  1 50  5.0800000  0  4G 6G 9G11G13
  22647175.550    22647183.289    -2321537.317 8  17052037.538 8
  20200674.381    20200678.709    -8677533.161 7  12337307.289 7
  22834188.221    22834192.547    -3222823.784 8  16346593.205 8
  20644918.535    20644924.004   -11376373.525 8  10222398.812 8
 86  6 18  1 50 11.0800000  0  4G 6G 9G11G13
  22651123.831    22651131.084    -2300790.197 8  17068204.118 8
  20201821.066    20201826.111    -8671503.574 9  12342005.680 6
  22837286.810    22837293.588    -3206535.452 9  16359285.411 8
  20644479.360    20644485.998   -11378675.627 8  10220604.973 7
 86  6 18  1 50 17.0800000  0  4G 6G 9G11G13
  22655075.782    22655081.877    -2280028.964 8  17084381.697 9
  20202973.877    20202978.790    -8665448.172 7  12346724.151 7
  22840387.839    22840394.237    -3190243.791 8  16371980.210 9
  20644043.956    20644050.840   -11380960.025 8  10218824.920 8
 86  6 18  1 50 23.0800000  0  4G 6G 9G11G13
  22659028.089    22659035.752    -2259253.660 8  17100570.237 8
  20204131.184    20204136.061    -8659367.038 8  12351462.698 7
  22843488.663    22843493.938    -3173948.857 9  16384677.551 9
  20643613.996    20643619.731   -11383226.709 8  10217058.677 8
 86  6 18  1 50 29.0800000  0  4G 6G 9G11G13
  22662984.386    22662991.770    -2238464.296 7  17116769.717 9
  20205292.349    20205298.980    -8653260.030 8  12356221.417 7
  22846590.344    22846597.388    -3157650.648 9  16397377.455 8
  20643186.088    20643191.287   -11385475.700 9  10215306.230 7
 86  6 18  1 50 35.0800000  0  4G 6G 9G11G13
  22666943.714    22666950.184    -2217660.941 8  17132980.103 9
  20206460.383    20206465.930    -8647127.339 8  12361000.123 7
  22849691.552    22849698.648    -3141349.243 8  16410079.847 9
  20642761.939    20642767.305   -11387707.044 8  10213567.521 9
 86  6 18  1 50 41.0800000  0  4G 6G 9G11G13
  22670904.797    22670911.873    -2196843.630 8  17149201.371 8
  20207631.304    20207636.701    -8640968.946 7  12365798.874 7
  22852794.789    22852802.287    -3125044.673 7  16422784.698 9
  20642340.244    20642345.940   -11389920.774 8  10211842.545 8
 86  6 18  1 50 47.0800000  0  4G 6G 9G11G13
  22674868.797    22674876.144    -2176012.447 8  17165433.443 8
  20208808.899    20208814.004    -8634784.833 8  12370617.651 7
  22855897.433    22855904.831    -3108736.931 8  16435492.009 8
  20641923.387    20641927.625   -11392116.854 9  10210131.312 8
 86  6 18  1 50 53.0800000  0  4G 6G 9G11G13
  22678834.428    22678842.970    -2155167.315 8  17181676.391 8
  20209990.076    20209995.588    -8628575.079 7  12375456.424 7
  22859001.878    22859008.675    -3092426.061 7  16448201.766 8
  20641508.335    20641513.147   -11394295.434 9  10208433.728 8
 86  6 18  1 50 59.0800000  0  4G 6G 9G11G13
  22682805.489    22682812.802    -2134308.355 8  17197930.107 9
  20211178.592    20211181.282    -8622339.643 7  12380315.208 7
  22862105.257    22862112.865    -3076112.108 8  16460913.932 8
  20641096.974    20641102.111   -11396456.518 8  10206749.771 8
 86  6 18  1 51  5.0800000  0  4G 6G 9G11G13
  22686777.593    22686783.406    -2113435.485 8  17214194.672 8
  20212369.052    20212374.217    -8616078.507 7  12385194.010 6
  22865209.022    22865218.215    -3059794.998 7  16473628.534 9
  20640689.794    20640693.942   -11398600.030 9  10205079.513 8
 86  6 18  1 51 11.0800000  0  4G 6G 9G11G13
  22690751.517    22690757.826    -2092548.776 9  17230470.025 7
  20213565.829    20213570.556    -8609791.728 8  12390092.796 7
  22868314.416    22868324.049    -3043474.838 7  16486345.533 8
  20640283.983    20640289.782   -11400725.968 8  10203422.924 8
 86  6 18  1 51 17.0800000  0  4G 6G 9G11G13
  22694728.894    22694735.483    -2071648.309 8  17246756.101 8
  20214765.205    20214770.588    -8603479.219 7  12395011.647 6
  22871421.581    22871430.542    -3027151.603 8  16499064.931 8
  20639883.895    20639889.049   -11402834.401 8  10201779.990 8
 86  6 18  1 51 23.0800000  0  4G 6G 9G11G13
  22698708.312    22698715.545    -2050734.062 8  17263052.891 8
  20215971.693    20215978.141    -8597141.033 7  12399950.485 7
  22874528.477    22874536.544    -3010825.410 8  16511786.620 9
  20639484.956    20639491.026   -11404925.439 8  10200150.624 8
 86  6 18  1 51 29.0800000  0  4G 6G 9G11G13
  22702692.258    22702697.919    -2029806.081 8  17279360.405 8
  20217182.869    20217188.309    -8590777.254 7  12404909.261 7
  22877636.290    22877644.557    -2994496.266 8  16524510.619 9
  20639090.594    20639095.962   -11406998.966 8  10198534.891 9
 86  6 18  1 51 35.0800000  0  4G 6G 9G11G13
  22706677.298    22706682.626    -2008864.296 8  17295678.658 8
  20218399.331    20218404.259    -8584387.784 7  12409888.078 7
  22880744.325    22880752.489    -2978164.049 8  16537237.020 8
  20638698.294    20638706.278   -11409054.967 8  10196932.815 8
 86  6 18  1 51 41.0800000  0  4G 6G 9G11G13
  22710663.784    22710671.701    -1987908.698 9  17312007.675 9
  20219619.112    20219626.058    -8577972.600 7  12414886.927 7
  22883852.948    22883860.332    -2961828.722 8  16549965.839 8
  20638311.830    20638317.051   -11411093.385 8  10195344.430 8
 86  6 18  1 51 47.0800000  0  4G 6G 9G11G13
  22714655.063    22714660.466    -1966939.357 8  17328347.408 8
  20220845.441    20220851.141    -8571531.718 8  12419905.778 7
  22886963.212    22886969.547    -2945490.318 8  16562697.047 9
  20637926.167    20637932.050   -11413114.311 8  10193769.692 8
 86  6 18  1 51 53.0800000  0  4G 6G 9G11G13
  22718647.996    22718653.985    -1945956.124 8  17344697.977 9
  20222075.210    20222081.057    -8565064.928 8  12424944.832 7
  22890072.572    22890079.516    -2929148.773 9  16575430.697 8
  20637545.400    20637551.082   -11415117.636 8  10192208.658 8
 86  6 18  1 51 59.0800000  0  4G 6G 9G11G13
  22722643.599    22722649.419    -1924959.112 7  17361059.262 8
  20223311.347    20223317.794    -8558572.416 8  12430003.933 6
  22893182.788    22893190.121    -2912804.187 8  16588166.738 8
  20637167.010    20637173.851   -11417103.414 9  10190661.296 8
 86  6 18  1 52  5.0800000  0  4G 6G 9G11G13
  22726641.502    22726648.826    -1903948.323 9  17377431.295 8
  20224550.825    20224556.358    -8552054.142 7  12435083.106 7
  22896293.885    22896301.021    -2896456.566 9  16600905.145 9
  20636792.336    20636799.546   -11419071.537 8  10189127.694 8
 86  6 18  1 52 11.0800000  0  4G 6G 9G11G13
  22730643.013    22730649.963    -1882923.874 9  17393813.979 7
  20225796.338    20225801.429    -8545510.168 8  12440182.311 7
  22899405.811    22899411.923    -2880105.975 9  16613645.858 8
  20636422.125    20636428.039   -11421022.203 8  10187607.723 7
 86  6 18  1 52 17.0800000  0  4G 6G 9G11G13
  22734645.275    22734653.061    -1861885.686 9  17410207.348 8
  20227045.725    20227051.857    -8538940.497 7  12445301.533 7
  22902517.582    22902524.580    -2863752.367 8  16626388.912 8
  20636053.862    20636059.815   -11422955.414 8  10186101.312 8
 86  6 18  1 52 23.0800000  0  4G 6G 9G11G13
  22738649.731    22738658.941    -1840833.766 8  17426611.430 9
  20228303.084    20228307.677    -8532344.989 8  12450440.870 7
  22905629.918    22905636.408    -2847395.735 9  16639134.357 8
  20635688.377    20635695.318   -11424871.013 9  10184608.637 8
 86  6 18  1 52 29.0800000  0  4G 6G 9G11G13
  22742659.523    22742667.449    -1819768.171 8  17443026.158 8
  20229561.206    20229565.977    -8525723.784 8  12455600.268 7
  22908742.835    22908749.386    -2831036.129 9  16651882.091 9
  20635328.099    20635333.681   -11426769.076 8  10183129.638 8
 86  6 18  1 52 35.0800000  0  4G 6G 9G11G13
  22746670.282    22746678.514    -1798688.891 9  17459451.552 9
  20230826.382    20230831.367    -8519076.837 7  12460779.692 7
  22911856.495    22911862.186    -2814673.552 8  16664632.160 8
  20634970.485    20634976.109   -11428649.584 8  10181664.309 9
 86  6 18  1 52 41.0800000  0  4G 6G 9G11G13
  22750684.995    22750692.047    -1777596.006 8  17475887.541 8
  20232096.134    20232102.973    -8512404.141 8  12465979.178 7
  22914970.997    22914976.775    -2798308.069 9  16677384.487 8
  20634614.558    20634621.085   -11430512.608 8  10180212.607 9
 86  6 18  1 52 47.0800000  0  4G 6G 9G11G13
  22754702.610    22754709.378    -1756489.590 9  17492334.088 8
  20233370.960    20233376.285    -8505705.863 8  12471198.624 7
  22918085.955    22918091.450    -2781939.655 9  16690139.080 8
  20634264.724    20634269.976   -11432358.221 9  10178774.478 8
 86  6 18  1 52 53.0800000  0  4G 6G 9G11G13
  22758721.254    22758729.226    -1735369.558 9  17508791.260 8
  20234650.270    20234655.373    -8498981.810 8  12476438.161 7
  22921201.990    22921207.114    -2765568.307 8  16702895.971 8
  20633915.038    20633922.766   -11434186.388 8  10177349.934 8
 86  6 18  1 52 59.0800000  0  4G 6G 9G11G13
  22762742.846    22762749.591    -1714235.904 9  17525259.017 8
  20235933.355    20235938.695    -8492231.963 8  12481697.753 7
  22924316.300    22924323.321    -2749194.026 7  16715655.143 8
  20633571.814    20633578.355   -11435997.094 8  10175938.992 8
 86  6 18  1 53  5.0800000  0  4G 6G 9G11G13
  22766767.093    22766773.634    -1693088.747 9  17541737.325 7
  20237223.383    20237231.021    -8485456.519 8  12486977.322 7
  22927433.759    22927440.271    -2732816.903 8  16728416.528 8
  20633229.999    20633238.167   -11437790.425 8  10174541.599 7
 86  6 18  1 53 11.0800000  0  4G 6G 9G11G13
  22770793.306    22770799.990    -1671928.183 8  17558226.075 7
  20238519.148    20238522.711    -8478655.350 7  12492276.925 7
  22930550.312    22930558.184    -2716437.008 8  16741180.086 8
  20632892.925    20632899.916   -11439566.340 8  10173157.776 8
 86  6 18  1 53 17.0800000  0  4G 6G 9G11G13
  22774822.444    22774828.826    -1650754.106 9  17574725.349 7
  20239818.106    20239823.686    -8471828.644 7  12497596.430 7
  22933667.492    22933675.363    -2700054.306 8  16753945.827 8
  20632557.550    20632563.515   -11441324.866 8  10171787.497 8
 86  6 18  1 53 23.0800000  0  4G 6G 9G11G13
  22778853.769    22778862.040    -1629566.540 9  17591235.125 8
  20241121.638    20241126.801    -8464976.175 7  12502936.011 7
  22936785.027    22936792.625    -2683668.744 8  16766713.784 8
  20632225.920    20632233.276   -11443065.957 9  10170430.810 8
 86  6 18  1 53 29.0800000  0  4G 6G 9G11G13
  22782888.503    22782894.763    -1608365.456 8  17607755.429 9
  20242432.335    20242435.955    -8458097.916 8  12508295.706 7
  22939902.943    22939910.157    -2667280.396 8  16779483.921 8
  20631897.269    20631905.163   -11444789.603 8  10169087.708 8
 86  6 18  1 53 35.0800000  0  4G 6G 9G11G13
  22786926.551    22786932.388    -1587150.994 9  17624286.177 7
  20243745.881    20243749.699    -8451194.023 7  12513675.352 7
  22943023.480    22943029.797    -2650889.308 8  16792256.192 8
  20631572.787    20631580.731   -11446495.995 9  10167758.048 8
 86  6 18  1 53 41.0800000  0  4G 6G 9G11G13
  22790965.190    22790972.225    -1565923.213 8  17640827.297 8
  20245064.241    20245068.365    -8444264.643 8  12519074.853 7
  22946141.872    22946149.628    -2634495.531 8  16805030.552 8
  20631252.096    20631259.078   -11448185.158 9  10166441.822 8
 86  6 18  1 53 47.0800000  0  4G 6G 9G11G13
  22795007.076    22795012.853    -1544682.138 8  17657378.775 7
  20246385.429    20246392.755    -8437309.559 7  12524494.392 6
  22949261.114    22949271.057    -2618099.069 9  16817807.006 8
  20630934.021    20630940.752   -11449857.167 8  10165138.967 8
 86  6 18  1 53 53.0800000  0  4G 6G 9G11G13
  22799051.496    22799059.164    -1523427.785 9  17673940.601 8
  20247715.454    20247721.580    -8430329.006 7  12529933.785 6
  22952381.922    22952390.527    -2601699.967 9  16830585.520 9
  20630618.940    20630623.818   -11451511.948 8  10163849.529 8
 86  6 18  1 53 59.0800000  0  4G 6G 9G11G13
  22803099.261    22803105.540    -1502160.159 8  17690512.776 8
  20249047.923    20249052.570    -8423322.811 7  12535393.153 7
  22955504.160    22955512.205    -2585298.167 8  16843366.123 8
  20630307.513    20630313.046   -11453149.436 8  10162573.568 8
 86  6 18  1 54  5.0800000  0  4G 6G 9G11G13
  22807148.114    22807155.165    -1480879.277 9  17707095.262 7
  20250386.479    20250391.470    -8416291.000 7  12540872.484 7
  22958626.284    22958633.522    -2568893.711 8  16856148.812 8
  20629999.863    20630005.315   -11454769.667 9  10161311.051 8
 86  6 18  1 54 11.0800000  0  4G 6G 9G11G13
  22811200.687    22811207.957    -1459585.160 9  17723688.069 6
  20251729.883    20251734.462    -8409233.617 8  12546371.731 7
  22961748.635    22961756.475    -2552486.608 8  16868933.555 9
  20629693.301    20629700.084   -11456372.644 8  10160061.973 8
 86  6 18  1 54 17.0800000  0  4G 6G 9G11G13
  22815255.829    22815262.553    -1438277.799 8  17740291.187 8
  20253077.814    20253083.183    -8402150.679 8  12551890.885 8
  22964872.255    22964878.837    -2536076.831 8  16881720.381 8
  20629391.866    20629398.134   -11457958.332 7  10158826.380 7
 86  6 18  1 54 23.0800000  0  4G 6G 9G11G13
  22819312.848    22819319.593    -1416957.163 7  17756904.661 7
  20254428.823    20254434.234    -8395042.131 8  12557430.029 8
  22967993.680    22968000.925    -2519664.369 8  16894509.308 8
  20629093.481    20629099.802   -11459526.771 8  10157604.220 8
 86  6 18  1 54 29.0800000  0  4G 6G 9G11G13
  22823371.084    22823378.669    -1395623.228 9  17773528.497 7
  20255786.438    20255792.669    -8387907.882 9  12562989.182 8
  22971118.951    22971124.507    -2503249.236 8  16907300.302 8
  20628799.116    20628803.800   -11461077.875 8  10156395.585 8
 86  6 18  1 54 35.0800000  0  4G 6G 9G11G13
  22827433.667    22827441.626    -1374276.007 8  17790162.689 8
  20257149.418    20257154.469    -8380747.937 7  12568568.350 8
  22974243.525    22974248.967    -2486831.391 9  16920093.428 8
  20628507.723    20628513.135   -11462611.573 8  10155200.490 8
 86  6 18  1 54 41.0800000  0  4G 6G 9G11G13
  22831499.137    22831507.305    -1352915.491 8  17806807.220 8
  20258516.005    20258523.772    -8373562.342 8  12574167.502 6
  22977368.022    22977373.507    -2470410.845 9  16932888.665 8
  20628219.222    20628224.645   -11464127.922 8  10154018.908 7
 86  6 18  1 54 47.0800000  0  4G 6G 9G11G13
  22835566.561    22835573.577    -1331541.679 8  17823462.136 8
  20259888.787    20259895.417    -8366350.898 8  12579786.805 7
  22980492.835    22980498.831    -2453987.550 8  16945686.033 8
  20627933.954    20627939.547   -11465626.930 9  10152850.864 8
 86  6 18  1 54 53.0800000  0  4G 6G 9G11G13
  22839636.066    22839643.279    -1310154.652 7  17840127.346 8
  20261266.560    20261271.663    -8359113.777 7  12585426.114 7
  22983617.762    22983624.768    -2437561.594 8  16958485.470 9
  20627651.692    20627658.217   -11467108.685 8  10151696.257 7
 86  6 18  1 54 59.0800000  0  4G 6G 9G11G13
  22843707.699    22843715.140    -1288754.416 8  17856802.839 7
  20262646.892    20262652.495    -8351851.081 7  12591085.350 6
  22986744.349    22986752.126    -2421133.065 8  16971286.917 9
  20627372.430    20627379.169   -11468573.225 9  10150555.061 8
 86  6 18  1 55  5.0800000  0  4G 6G 9G11G13
  22847782.715    22847790.095    -1267341.000 7  17873488.611 8
  20264037.401    20264040.027    -8344562.596 7  12596764.693 6
  22989871.166    22989878.079    -2404701.918 9  16984090.382 9
  20627097.412    20627103.517   -11470020.461 8  10149427.348 9
 86  6 18  1 55 11.0800000  0  4G 6G 9G11G13
  22851860.263    22851867.843    -1245914.389 7  17890184.659 8
  20265427.579    20265432.805    -8337248.466 7  12602464.020 7
  22992998.412    22993005.276    -2388268.101 9  16996895.939 8
  20626824.789    20626831.228   -11471450.378 8  10148313.127 8
 86  6 18  1 55 17.0800000  0  4G 6G 9G11G13
  22855939.858    22855947.958    -1224474.724 9  17906890.868 9
  20266825.138    20266829.955    -8329908.665 7  12608183.345 8
  22996126.775    22996133.208    -2371831.765 8  17009703.476 9
  20626555.721    20626562.656   -11472863.198 8  10147212.235 8
 86  6 18  1 55 23.0800000  0  4G 6G 9G11G13
  22860022.668    22860029.986    -1203022.073 8  17923607.206 8
  20268225.683    20268231.162    -8322543.400 8  12613922.509 6
  22999254.736    22999260.858    -2355393.002 8  17022512.887 8
  20626290.314    20626297.138   -11474258.937 8  10146124.647 8
 86  6 18  1 55 29.0800000  0  4G 6G 9G11G13
  22864107.682    22864115.544    -1181556.444 8  17940333.666 8
  20269633.208    20269638.184    -8315152.614 8  12619681.565 7
  23002383.373    23002388.203    -2338951.843 8  17035324.179 8
  20626028.394    20626034.590   -11475637.577 9  10145050.374 9
 86  6 18  1 55 35.0800000  0  4G 6G 9G11G13
  22868193.751    22868202.297    -1160077.945 8  17957070.139 7
  20271043.582    20271050.191    -8307736.419 8  12625460.412 7
  23005512.965    23005518.411    -2322508.295 8  17048137.324 8
  20625769.940    20625774.748   -11476999.289 8  10143989.313 8
 86  6 18  1 55 41.0800000  0  4G 6G 9G11G13
  22872284.482    22872291.749    -1138586.701 8  17973816.548 8
  20272459.510    20272466.098    -8300294.866 8  12631259.029 8
  23008641.984    23008647.970    -2306062.517 8  17060952.211 8
  20625513.491    20625519.975   -11478344.120 9  10142941.387 8
 86  6 18  1 55 47.0800000  0  4G 6G 9G11G13
  22876376.068    22876383.161    -1117082.659 8  17990572.945 7
  20273881.103    20273887.630    -8292827.827 8  12637077.480 7
  23011771.967    23011777.529    -2289614.445 7  17073768.883 8
  20625261.307    20625267.488   -11479671.980 8  10141906.682 8
 86  6 18  1 55 53.0800000  0  4G 6G 9G11G13
  22880471.416    22880477.712    -1095565.792 8  18007339.308 9
  20275305.154    20275311.990    -8285335.476 8  12642915.668 7
  23014902.935    23014907.784    -2273164.100 9  17086587.338 9
  20625010.608    20625016.892   -11480982.853 8  10140885.228 8
 86  6 18  1 55 59.0800000  0  4G 6G 9G11G13
  22884567.238    22884574.106    -1074036.189 8  18024115.629 8
  20276737.939    20276743.561    -8277817.717 7  12648773.666 6
  23018033.145    23018040.180    -2256711.533 9  17099407.514 7
  20624765.001    20624771.416   -11482276.774 8  10139876.981 9
 86  6 18  1 56  5.0800000  0  4G 6G 9G11G13
  22888665.238    22888674.210    -1052493.847 8  18040901.833 8
  20278173.783    20278179.255    -8270274.556 8  12654651.434 7
  23021163.777    23021171.089    -2240256.731 8  17112229.420 8
  20624521.118    20624528.345   -11483553.768 9  10138881.918 8
 86  6 18  1 56 11.0800000  0  4G 6G 9G11G13
  22892768.151    22892775.572    -1030938.820 9  18057697.964 8
  20279611.920    20279618.072    -8262706.040 8  12660548.988 7
  23024295.590    23024303.109    -2223799.641 9  17125053.118 8
  20624281.581    20624288.747   -11484813.777 8  10137900.090 7
 86  6 18  1 56 17.0800000  0  4G 6G 9G11G13
  22896872.809    22896880.921    -1009370.989 7  18074504.051 8
  20281058.290    20281063.455    -8255112.068 7  12666466.369 6
  23027428.360    23027435.123    -2207340.295 9  17137878.585 8
  20624044.333    20624051.989   -11486056.846 8  10136931.478 8
 86  6 18  1 56 23.0800000  0  4G 6G 9G11G13
  22900980.571    22900988.346     -987790.389 8  18091320.096 8
  20282508.452    20282513.119    -8247492.566 7  12672403.633 7
  23030559.631    23030566.971    -2190878.680 7  17150705.793 8
  20623812.324    20623819.611   -11487282.985 9  10135976.044 7
 86  6 18  1 56 29.0800000  0  4G 6G 9G11G13
  22905088.550    22905096.620     -966196.965 8  18108146.122 8
  20283962.942    20283966.493    -8239847.616 8  12678360.751 7
  23033692.466    23033700.814    -2174414.703 8  17163534.860 9
  20623582.717    20623588.144   -11488492.081 8  10135033.898 9
 86  6 18  1 56 35.0800000  0  4G 6G 9G11G13
  22909199.670    22909207.484     -944590.654 7  18124982.194 8
  20285423.391    20285427.621    -8232177.066 7  12684337.797 6
  23036826.857    23036834.265    -2157948.334 8  17176365.790 8
  20623355.889    20623361.971   -11489684.023 8  10134105.100 9
 86  6 18  1 56 41.0800000  0  4G 6G 9G11G13
  22913314.408    22913322.846     -922971.530 8  18141828.256 7
  20286886.323    20286892.070    -8224480.844 6  12690334.837 7
  23039960.065    23039967.195    -2141479.595 7  17189198.568 8
  20623132.032    20623138.546   -11490858.995 8  10133189.543 9
 86  6 18  1 56 47.0800000  0  4G 6G 9G11G13
  22917430.482    22917438.924     -901339.501 8  18158684.365 7
  20288356.438    20288361.349    -8216759.071 7  12696351.797 7
  23043095.237    23043102.235    -2125008.438 8  17202033.227 8
  20622911.159    20622917.957   -11492016.834 9  10132287.328 8
 86  6 18  1 56 53.0800000  0  4G 6G 9G11G13
  22921551.059    22921557.147     -879694.548 7  18175550.565 8
  20289829.477    20289836.369    -8209011.577 7  12702388.802 7
  23046228.884    23046236.301    -2108534.811 8  17214869.820 8
  20622694.462    20622701.171   -11493157.502 9  10131398.495 8
 86  6 18  1 56 59.0800000  0  4G 6G 9G11G13
  22925672.926    22925679.083     -858036.686 9  18192426.806 8
  20291309.743    20291314.795    -8201238.412 8  12708445.801 7
  23049365.058    23049372.413    -2092058.706 8  17227708.318 8
  20622480.423    20622488.020   -11494281.039 9  10130523.008 8
 86  6 18  1 57  5.0800000  0  4G 6G 9G11G13
  22929796.117    22929802.946     -836366.003 8  18209313.032 7
  20292791.878    20292798.594    -8193439.610 8  12714522.785 7
  23052500.621    23052508.513    -2075580.244 8  17240548.668 9
  20622271.104    20622277.174   -11495387.485 8  10129660.850 8
 86  6 18  1 57 11.0800000  0  4G 6G 9G11G13
  22933921.317    22933928.494     -814682.529 9  18226209.250 7
  20294281.038    20294286.293    -8185615.167 7  12720619.752 7
  23055636.865    23055644.482    -2059099.372 8  17253390.903 8
  20622064.422    20622070.802   -11496476.840 8  10128812.002 8
 86  6 18  1 57 17.0800000  0  4G 6G 9G11G13
  22938050.397    22938057.683     -792986.214 9  18243115.461 8
  20295776.878    20295780.716    -8177765.148 7  12726736.656 7
  23058773.877    23058781.876    -2042616.182 8  17266234.943 8
  20621859.258    20621865.413   -11497549.119 8  10127976.446 9
 86  6 18  1 57 23.0800000  0  4G 6G 9G11G13
  22942180.462    22942187.494     -771277.347 8  18260031.448 8
  20297274.444    20297279.958    -8169889.614 7  12732873.423 6
  23061910.358    23061918.728    -2026130.800 9  17279080.699 8
  20621658.184    20621663.559   -11498604.509 8  10127154.079 8
 86  6 18  1 57 29.0800000  0  4G 6G 9G11G13
  22946315.361    22946323.609     -749555.889 8  18276957.236 8
  20298778.455    20298784.021    -8161988.751 8  12739029.944 6
  23065049.049    23065054.920    -2009643.259 8  17291928.128 9
  20621460.973    20621467.069   -11499642.996 9  10126344.857 7
 86  6 18  1 57 35.0800000  0  4G 6G 9G11G13
  22950451.490    22950457.392     -727821.858 8  18293892.842 8
  20300286.182    20300291.666    -8154062.354 8  12745206.353 6
  23068185.644    23068192.741    -1993153.544 8  17304777.249 8
  20621265.422    20621271.731   -11500664.635 8  10125548.789 8
 86  6 18  1 57 41.0800000  0  4G 6G 9G11G13
  22954589.340    22954596.947     -706075.286 7  18310838.195 8
  20301799.336    20301804.674    -8146110.544 7  12751402.566 6
  23071324.374    23071331.914    -1976661.690 8  17317628.039 8
  20621075.228    20621081.190   -11501669.341 8  10124765.889 7
 86  6 18  1 57 47.0800000  0  4G 6G 9G11G13
  22958730.407    22958737.299     -684316.323 8  18327793.240 7
  20303316.648    20303323.988    -8138133.434 7  12757618.484 7
  23074462.322    23074470.736    -1960167.765 8  17330480.437 9
  20620886.342    20620892.639   -11502657.313 8  10123996.047 8
 86  6 18  1 57 53.0800000  0  4G 6G 9G11G13
  22962873.115    22962879.618     -662544.895 8  18344757.977 8
  20304840.291    20304845.801    -8130130.933 7  12763854.203 7
  23077603.020    23077609.805    -1943671.814 8  17343334.427 8
  20620700.553    20620706.907   -11503628.477 9  10123239.297 8
 86  6 18  1 57 59.0800000  0  4G 6G 9G11G13
  22967019.169    22967025.538     -640761.061 8  18361732.367 7
  20306369.474    20306372.419    -8122103.046 8  12770109.706 6
  23080742.676    23080749.824    -1927173.858 8  17356189.965 9
  20620520.541    20620525.879   -11504582.890 8  10122495.613 8
 86  6 18  1 58  5.0800000  0  4G 6G 9G11G13
  22971166.100    22971171.701     -618964.879 8  18378716.400 9
  20307901.739    20307906.520    -8114049.836 8  12776384.914 8
  23083882.256    23083889.529    -1910673.925 7  17369047.041 8
  20620341.363    20620348.454   -11505520.534 9  10121764.969 8
 86  6 18  1 58 11.0800000  0  4G 6G 9G11G13
  22975316.440    22975322.556     -597156.287 9  18395710.113 7
  20309438.781    20309444.470    -8105971.199 8  12782679.953 5
  23087019.725    23087030.024    -1894171.948 8  17381905.707 8
  20620166.870    20620173.643   -11506441.369 8  10121047.432 7
 86  6 18  1 58 17.0800000  0  4G 6G 9G11G13
  22979467.021    22979473.730     -575335.290 8  18412713.466 8
  20310981.945    20310985.095    -8097867.215 8  12788994.742 7
  23090162.599    23090169.633    -1877667.954 8  17394765.962 7
  20619995.363    20620000.831   -11507345.434 8  10120342.979 8
 86  6 18  1 58 23.0800000  0  4G 6G 9G11G13
  22983623.473    22983628.953     -553501.923 7  18429726.483 8
  20312527.712    20312532.577    -8089737.875 8  12795329.290 6
  23093303.283    23093309.536    -1861161.924 8  17407627.789 8
  20619826.114    20619831.993   -11508232.740 9  10119651.566 7
 86  6 18  1 58 29.0800000  0  4G 6G 9G11G13
  22987779.857    22987787.228     -531656.146 7  18446749.132 9
  20314079.991    20314084.346    -8081583.120 7  12801683.634 6
  23096444.305    23096451.826    -1844653.873 8  17420491.198 8
  20619660.757    20619666.538   -11509103.309 9  10118973.209 8
 86  6 18  1 58 35.0800000  0  4G 6G 9G11G13
  22991940.112    22991946.572     -509798.060 8  18463781.399 8
  20315636.501    20315642.467    -8073403.006 7  12808057.748 6
  23099586.403    23099592.326    -1828143.842 8  17433356.157 8
  20619497.803    20619504.244   -11509957.079 8  10118307.942 8
 86  6 18  1 58 41.0800000  0  4G 6G 9G11G13
  22996101.555    22996108.580     -487927.582 9  18480823.313 8
  20317198.798    20317201.860    -8065197.532 7  12814451.621 7
  23102728.664    23102735.265    -1811631.731 8  17446222.736 7
  20619338.571    20619343.666   -11510793.961 8  10117655.813 7
 86  6 18  1 58 47.0800000  0  4G 6G 9G11G13
  23000264.987    23000272.318     -466044.729 9  18497874.879 7
  20318763.283    20318768.884    -8056966.571 8  12820865.345 6
  23105870.752    23105877.493    -1795117.630 8  17459090.847 8
  20619182.884    20619187.935   -11511614.017 9  10117016.821 8
 86  6 18  1 58 53.0800000  0  4G 6G 9G11G13
  23004432.450    23004439.139     -444149.531 8  18514936.057 8
  20320335.267    20320340.805    -8048710.235 7  12827298.863 7
  23109013.242    23109020.710    -1778601.507 7  17471960.537 8
  20619029.033    20619035.532   -11512417.229 8  10116390.931 8
 86  6 18  1 58 59.0800000  0  4G 6G 9G11G13
  23008600.212    23008608.740     -422242.019 9  18532006.829 9
  20321910.401    20321916.700    -8040428.486 7  12833752.156 7
  23112157.678    23112163.924    -1762083.380 7  17484831.787 8
  20618879.871    20618886.272   -11513203.807 8  10115778.019 8
 86  6 18  1 59  5.0800000  0  4G 6G 9G11G13
  23012772.534    23012780.494     -400322.152 9  18549087.238 8
  20323491.268    20323497.270    -8032121.271 7  12840225.306 6
  23115301.710    23115308.332    -1745563.236 9  17497704.623 6
  20618733.716    20618739.410   -11513973.586 8  10115178.193 8
 86  6 18  1 59 11.0800000  0  4G 6G 9G11G13
  23016945.991    23016952.388     -378390.043 9  18566177.188 7
  20325077.291    20325083.106    -8023788.751 8  12846718.175 6
  23118446.062    23118451.923    -1729041.152 8  17510578.981 8
  20618589.163    20618595.635   -11514726.679 8  10114591.365 8
 86  6 18  1 59 17.0800000  0  4G 6G 9G11G13
  23021121.630    23021129.172     -356445.647 8  18583276.705 8
  20326667.356    20326674.242    -8015430.744 7  12853230.894 6
  23121591.195    23121596.051    -1712517.002 8  17523454.943 8
  20618450.025    20618456.249   -11515462.953 9  10114017.643 8
 86  6 18  1 59 23.0800000  0  4G 6G 9G11G13
  23025299.866    23025306.957     -334488.942 8  18600385.825 8
  20328262.185    20328267.914    -8007047.339 7  12859763.411 7
  23124735.076    23124741.753    -1695990.826 9  17536332.478 8
  20618312.656    20618319.777   -11516182.522 8  10113456.941 8
 86  6 18  1 59 29.0800000  0  4G 6G 9G11G13
  23029480.776    23029487.915     -312519.942 7  18617504.512 8
  20329863.091    20329867.830    -7998638.451 7  12866315.787 7
  23127880.276    23127885.443    -1679462.639 7  17549211.576 8
  20618179.344    20618185.672   -11516885.368 8  10112909.272 8
 86  6 18  1 59 35.0800000  0  4G 6G 9G11G13
  23033663.315    23033671.793     -290538.786 8  18634632.664 8
  20331467.318    20331473.826    -7990204.205 6  12872887.925 7
  23131025.559    23131031.750    -1662932.500 9  17562092.193 8
  20618048.041    20618054.384   -11517571.381 7  10112374.717 8
 86  6 18  1 59 41.0800000  0  4G 6G 9G11G13
  23037848.410    23037855.527     -268545.381 8  18651770.363 8
  20333077.848    20333082.791    -7981744.548 8  12879479.844 6
  23134171.712    23134176.827    -1646400.441 9  17574974.314 8
  20617920.127    20617927.835   -11518240.727 8  10111853.150 8
 86  6 18  1 59 47.0800000  0  4G 6G 9G11G13
  23042035.821    23042044.219     -246539.867 7  18668917.504 8
  20334692.996    20334697.915    -7973259.520 7  12886091.570 6
  23137318.351    23137325.248    -1629866.468 9  17587857.921 9
  20617797.404    20617803.446   -11518893.415 8  10111344.567 9
 86  6 18  1 59 53.0800000  0  4G 6G 9G11G13
  23046225.419    23046234.033     -224522.303 8  18686074.033 8
  20336310.635    20336317.154    -7964749.271 8  12892722.921 8
  23140465.801    23140471.467    -1613330.709 8  17600742.916 8
  20617676.321    20617683.189   -11519529.522 8  10110848.893 8
 86  6 18  1 59 59.0800000  0  4G 6G 9G11G13
  23050417.843    23050425.093     -202492.683 9  18703239.970 8
  20337935.338    20337940.739    -7956213.701 8  12899374.015 6
  23143611.668    23143618.901    -1596793.158 9  17613629.318 7
  20617558.212    20617564.476   -11520149.023 8  10110366.174 9
 86  6 18  2  0  5.0800000  0  3G 9G11G13
  20339565.850    20339570.920    -7947652.726 7  12906044.905 7
  23146759.088    23146765.084    -1580253.778 9  17626517.136 9
  20617441.755    20617450.257   -11520751.797 8  10109896.462 8
 86  6 18  2  0 11.0800000  0  3G 9G11G13
  20341199.446    20341206.114    -7939066.398 7  12912735.531 7
  23149905.908    23149913.687    -1563712.564 9  17639406.375 8
  20617332.052    20617337.003   -11521337.967 8  10109439.714 8
 86  6 18  2  0 17.0800000  0  3G 9G11G13
  20342838.760    20342843.202    -7930454.894 7  12919445.783 7
  23153054.986    23153061.459    -1547169.584 9  17652297.000 8
  20617223.958    20617228.074   -11521907.550 8  10108995.893 8
 86  6 18  2  0 23.0800000  0  3G 9G11G13
  20344480.822    20344487.183    -7921818.119 8  12926175.724 7
  23156203.474    23156209.322    -1530624.909 8  17665188.951 8
  20617118.482    20617124.264   -11522460.641 8  10108564.908 8
 86  6 18  2  0 29.0800000  0  4G12G 9G11G13
                  22049984.550   -26623372.921 9
  20346129.983    20346135.863    -7913156.159 8  12932925.309 7
  23159351.668    23159358.234    -1514078.514 9  17678082.243 8
  20617016.543    20617022.388   -11522997.163 8  10108146.837 7
 86  6 18  2  0 35.0800000  0  4G12G 9G11G13
                  22047010.260   -26639039.932 9
  20347781.605    20347787.699    -7904468.863 7  12939694.615 6
  23162500.435    23162507.700    -1497530.339 9  17690976.909 9
  20616918.161    20616923.477   -11523517.210 8  10107741.618 8
 86  6 18  2  0 41.0800000  0  4G12G 9G11G13
                  22044026.671   -26654692.729 8
  20349440.042    20349447.485    -7895756.432 7  12946483.520 7
  23165649.937    23165657.310    -1480980.515 9  17703872.876 8
  20616822.385    20616828.390   -11524020.719 8  10107349.277 8
 86  6 18  2  0 47.0800000  0  4G12G 9G11G13
  22041049.747    22041059.252   -26670330.800 8  33952823.363 7
  20351103.139    20351109.060    -7887018.826 7  12953292.039 7
  23168799.435    23168806.774    -1464429.087 9  17716770.085 8
  20616729.392    20616734.991   -11524507.832 8  10106969.702 8
 86  6 18  2  0 53.0800000  0  4G12G 9G11G13
  22038077.391    22038084.674   -26685954.382 9  33940649.101 8
  20352772.741    20352776.985    -7878256.133 7  12960120.117 8
  23171949.416    23171956.769    -1447876.033 9  17729668.561 7
  20616640.586    20616644.923   -11524978.550 8  10106602.919 8
 86  6 18  2  0 59.0800000  0  4G12G 9G11G13
  22035106.853    22035113.386   -26701563.514 9  33928485.646 9
  20354442.084    20354450.280    -7869468.258 7  12966967.802 7
  23175100.786    23175107.226    -1431321.393 9  17742568.293 8
  20616553.921    20616559.577   -11525432.839 8  10106248.929 7
 86  6 18  2  1  5.0800000  0  4G12G 9G11G13
  22032141.372    22032147.594   -26717158.043 8  33916334.075 9
  20356119.994    20356125.361    -7860655.247 8  12973835.074 7
  23178250.752    23178257.267    -1414765.196 8  17755469.213 8
  20616469.792    20616475.948   -11525870.736 9  10105907.712 8
 86  6 18  2  1 11.0800000  0  4G12G 9G11G13
  22029175.620    22029181.270   -26732738.003 9  33904193.844 9
  20357802.386    20357808.237    -7851817.148 7  12980721.890 7
  23181401.753    23181407.931    -1398207.412 8  17768371.377 9
  20616389.817    20616395.381   -11526292.290 8  10105579.226 8
 86  6 18  2  1 17.0800000  0  4G12G 9G11G13
  22026214.937    22026220.249   -26748303.347 9  33892065.005 9
  20359488.095    20359494.216    -7842953.952 8  12987628.284 7
  23184552.894    23184558.861    -1381648.036 9  17781274.785 9
  20616311.391    20616317.785   -11526697.476 9  10105263.501 8
 86  6 18  2  1 23.0800000  0  4G12G 9G11G13
  22023254.943    22023260.465   -26763854.047 9  33879947.585 8
  20361180.897    20361186.659    -7834065.494 8  12994554.357 7
  23187703.873    23187710.342    -1365087.052 9  17794179.445 8
  20616238.079    20616243.527   -11527086.253 8  10104960.561 8
 86  6 18  2  1 29.0800000  0  4G12G 9G11G13
  22020298.423    22020303.978   -26779389.940 8  33867841.693 9
  20362876.962    20362883.569    -7825151.792 7  13001500.068 7
  23190856.379    23190862.639    -1348524.386 9  17807085.410 8
  20616166.533    20616172.004   -11527458.466 8  10104670.531 8
 86  6 18  2  1 35.0800000  0  4G12G 9G11G13
  22017344.074    22017350.503   -26794910.934 9  33855747.404 8
  20364576.870    20364583.087    -7816212.843 7  13008465.496 8
  23194007.225    23194014.882    -1331960.033 9  17819992.697 9
  20616099.538    20616105.162   -11527814.180 9  10104393.356 8
 86  6 18  2  1 41.0800000  0  4G12G 9G11G13
  22014392.520    22014400.431   -26810417.008 9  33843664.764 8
  20366284.183    20366288.859    -7807248.521 7  13015450.690 7
  23197159.951    23197166.866    -1315393.969 8  17832901.317 8
  20616035.945    20616041.080   -11528153.277 9  10104129.124 9
 86  6 18  2  1 47.0800000  0  4G12G 9G11G13
  22011444.410    22011451.887   -26825908.158 9  33831593.735 8
  20367995.277    20367999.548    -7798258.884 7  13022455.591 6
  23200312.267    23200320.881    -1298826.238 9  17845811.211 8
  20615974.186    20615979.098   -11528475.903 8  10103877.719 8
 86  6 18  2  1 53.0800000  0  4G12G 9G11G13
  22008500.268    22008506.181   -26841384.383 9  33819534.350 8
  20369709.061    20369715.949    -7789244.005 7  13029480.167 7
  23203466.851    23203473.506    -1282256.883 9  17858722.391 8
  20615916.620    20615921.152   -11528782.088 9  10103639.148 9
 86  6 18  2  1 59.0800000  0  4G12G 9G11G13
  22005557.776    22005564.006   -26856845.600 9  33807486.646 8
  20371428.823    20371434.510    -7780203.917 7  13036524.379 7
  23206617.982    23206626.451    -1265685.819 8  17871634.893 8
  20615861.218    20615866.542   -11529071.789 7  10103413.403 8
 86  6 18  2  2  5.0800000  0  4G12G 9G11G13
  22002619.673    22002624.184   -26872291.760 8  33795450.674 8
  20373154.968    20373159.159    -7771138.538 8  13043588.315 8
  23209772.472    23209781.280    -1249113.129 9  17884548.671 8
  20615807.587    20615814.073   -11529345.072 8  10103200.468 9
 86  6 18  2  2 11.0800000  0  4G12G 9G11G13
  21999682.708    21999687.634   -26887722.916 9  33783426.397 8
  20374884.464    20374889.524    -7762047.907 7  13050671.923 6
  23212927.060    23212934.370    -1232538.848 8  17897463.680 9
  20615759.350    20615765.083   -11529601.884 8  10103000.353 8
 86  6 18  2  2 17.0800000  0  4G12G 9G11G13
  21996749.159    21996754.517   -26903139.059 9  33771413.810 8
  20376619.281    20376624.326    -7752931.991 7  13057775.233 7
  23216081.473    23216088.724    -1215962.980 8  17910379.948 8
  20615713.337    20615719.203   -11529842.222 8  10102813.073 9
 86  6 18  2  2 23.0800000  0  4G12G 9G11G13
  21993818.442    21993823.336   -26918540.395 9  33759412.780 7
  20378359.251    20378363.678    -7743791.113 7  13064898.003 7
  23219235.523    23219242.846    -1199385.686 8  17923297.303 8
  20615670.055    20615675.772   -11530066.252 8  10102638.510 9
 86  6 18  2  2 29.0800000  0  4G12G 9G11G13
  21990889.974    21990895.437   -26933926.896 9  33747423.284 8
  20380103.193    20380108.578    -7734625.301 8  13072040.177 8
  23222391.073    23222398.157    -1182807.130 8  17936215.655 9
  20615630.676    20615637.319   -11530274.225 8  10102476.442 8
 86  6 18  2  2 35.0800000  0  4G12G 9G11G13
  21987965.760    21987971.048   -26949298.732 9  33735445.242 8
  20381852.805    20381856.607    -7725434.591 7  13079201.755 8
  23225546.080    23225552.198    -1166227.349 9  17949134.966 9
  20615594.846    20615600.791   -11530466.202 8  10102326.855 8
 86  6 18  2  2 41.0800000  0  4G12G 9G11G13
  21985043.581    21985048.640   -26964655.680 9  33723478.788 8
  20383605.887    20383610.325    -7716219.085 8  13086382.685 8
  23228701.466    23228707.954    -1149646.288 9  17962055.265 8
  20615561.420    20615567.273   -11530642.074 8  10102189.819 8
 86  6 18  2  2 47.0800000  0  4G12G 9G11G13
  21982123.781    21982129.979   -26979997.715 9  33711523.941 8
  20385364.885    20385369.635    -7706978.619 8  13093583.038 7
  23231856.728    23231863.974    -1133063.966 8  17974976.550 8
  20615530.394    20615536.703   -11530801.847 9  10102065.321 8
 86  6 18  2  2 53.0800000  0  4G12G 9G11G13
  21979207.841    21979214.228   -26995324.791 8  33699580.759 8
  20387126.256    20387132.490    -7697713.178 7  13100802.858 7
  23235011.935    23235019.224    -1116480.368 8  17987898.829 8
  20615504.274    20615509.744   -11530945.496 9  10101953.394 8
 86  6 18  2  2 59.0800000  0  4G12G 9G11G13
  21976293.179    21976300.067   -27010636.813 9  33687649.317 9
  20388895.445    20388900.487    -7688422.767 7  13108042.133 7
  23238168.168    23238175.010    -1099895.431 8  18000822.147 8
  20615479.897    20615484.858   -11531073.011 8  10101854.040 8
 86  6 18  2  3  5.0800000  0  4G12G 9G11G13
  21973382.598    21973389.156   -27025933.700 9  33675729.662 9
  20390668.206    20390674.113    -7679107.264 7  13115300.969 7
  23241323.965    23241331.732    -1083309.128 8  18013746.541 9
  20615458.165    20615464.075   -11531184.327 8  10101767.285 8
 86  6 18  2  3 11.0800000  0  4G12G 9G11G13
  21970473.895    21970480.817   -27041215.454 9  33663821.820 9
  20392446.213    20392450.995    -7669766.763 7  13122579.272 8
  23244481.289    23244487.515    -1066721.380 8  18026672.056 8
  20615440.453    20615446.274   -11531279.352 8  10101693.243 9
 86  6 18  2  3 17.0800000  0  4G12G 9G11G13
  21967569.567    21967576.868   -27056481.867 9  33651925.909 9
  20394227.643    20394233.281    -7660401.003 7  13129877.269 7
  23247638.306    23247645.120    -1050132.161 9  18039598.718 9
  20615424.114    20615431.192   -11531358.031 8  10101631.942 7
 86  6 18  2  3 23.0800000  0  4G12G 9G11G13
  21964665.956    21964673.856   -27071733.004 9  33640041.905 9
  20396014.638    20396018.839    -7651010.138 8  13137194.824 8
  23250795.270    23250802.423    -1033541.465 9  18052526.524 9
  20615412.907    20615420.511   -11531420.377 8  10101583.363 8
 86  6 18  2  3 29.0800000  0  4G12G 9G11G13
  21961767.053    21961774.426   -27086968.681 8  33628169.960 8
  20397806.688    20397811.606    -7641593.899 8  13144532.154 8
  23253952.841    23253959.989    -1016949.233 8  18065455.532 9
  20615404.948    20615411.857   -11531466.301 8  10101547.582 8
 86  6 18  2  3 35.0800000  0  4G12G 9G11G13
  21958869.979    21958878.048   -27102188.767 9  33616310.171 9
  20399603.037    20399607.950    -7632152.508 8  13151889.068 7
  23257109.563    23257118.034    -1000355.407 8  18078385.779 9
  20615399.370    20615406.963   -11531495.837 8  10101524.565 9
 86  6 18  2  3 41.0800000  0  4G12G 9G11G13
  21955976.158    21955983.917   -27117393.440 8  33604462.380 8
  20401404.503    20401410.322    -7622685.786 9  13159265.726 7
  23260267.428    23260276.324     -983760.103 8  18091317.162 8
  20615397.109    20615403.283   -11531509.028 9  10101514.291 8
 86  6 18  2  3 47.0800000  0  4G12G 9G11G13
  21953087.021    21953093.312   -27132582.649 8  33592626.645 8
  20403210.727    20403215.552    -7613193.903 8  13166662.005 7
  23263426.879    23263434.785     -967163.358 8  18104249.670 9
  20615397.581    20615403.444   -11531505.888 8  10101516.738 7
 86  6 18  2  3 53.0800000  0  4G12G 9G11G13
  21950199.852    21950205.248   -27147756.472 9  33580802.890 8
  20405021.781    20405027.374    -7603677.068 8  13174077.714 7
  23266584.505    23266592.445     -950565.289 8  18117183.224 8
  20615400.784    20615406.986   -11531486.573 9  10101531.810 7
 86  6 18  2  3 59.0800000  0  4G12G 9G11G13
  21947315.411    21947320.197   -27162914.925 9  33568991.098 8
  20406837.731    20406842.146    -7594135.172 9  13181512.938 8
  23269743.756    23269750.158     -933965.872 8  18130117.833 8
  20615407.452    20615412.338   -11531451.043 9  10101559.492 8
 86  6 18  2  4  5.0800000  0  4G12G 9G11G13
  21944435.349    21944438.816   -27178058.128 9  33557191.196 8
  20408657.969    20408663.537    -7584568.343 8  13188967.626 8
  23272903.790    23272909.133     -917365.332 8  18143053.313 9
  20615417.923    20615423.522   -11531399.484 8  10101599.659 8
 86  6 18  2  4 11.0800000  0  4G12G 9G11G13
  21941556.397    21941560.788   -27193186.111 9  33545403.139 7
  20410483.570    20410488.320    -7574976.704 8  13196441.606 7
  23276062.479    23276069.901     -900763.657 9  18155989.688 9
  20615430.180    20615436.068   -11531332.039 8  10101652.218 8
 86  6 18  2  4 17.0800000  0  4G12G 9G11G13
  21938680.793    21938684.792   -27208298.693 9  33533627.095 8
  20412312.744    20412319.748    -7565360.155 8  13203935.024 7
  23279221.431    23279228.574     -884160.731 8  18168927.019 9
  20615445.525    20615452.163   -11531248.517 8  10101717.314 9
 86  6 18  2  4 23.0800000  0  4G12G 9G11G13
  21935807.043    21935812.905   -27223395.940 9  33521862.998 8
  20414148.778    20414153.410    -7555718.838 8  13211447.735 8
  23282381.226    23282387.627     -867556.666 9  18181865.261 9
  20615464.176    20615470.347   -11531149.005 9  10101794.845 8
 86  6 18  2  4 29.0800000  0  4G12G 9G11G13
  21932936.390    21932941.724   -27238477.879 9  33510110.824 9
  20415987.799    20415992.041    -7546052.556 8  13218979.886 7
  23285540.380    23285547.905     -850951.477 8  18194804.352 9
  20615486.462    20615493.797   -11531033.627 8  10101884.749 8
 86  6 18  2  4 35.0800000  0  4G12G 9G11G13
  21930069.184    21930075.016   -27253544.415 9  33498370.680 8
  20417831.566    20417836.499    -7536361.430 8  13226531.414 8
  23288700.892    23288708.218     -834345.105 8  18207744.363 9
  20615510.930    20615517.934   -11530902.162 8  10101987.183 8
 86  6 18  2  4 41.0800000  0  4G12G 9G11G13
  21927204.834    21927210.029   -27268595.435 9  33486642.602 8
  20419680.114    20419686.041    -7526645.433 8  13234102.319 8
  23291861.220    23291867.482     -817737.597 8  18220685.276 8
  20615540.017    20615545.705   -11530754.677 8  10102102.112 8
 86  6 18  2  4 47.0800000  0  4G12G 9G11G13
  21924343.358    21924350.501   -27283630.938 8  33474926.619 9
  20421534.522    20421540.166    -7516904.426 8  13241692.714 6
  23295021.547    23295029.543     -801128.958 7  18233627.074 7
  20615571.642    20615577.728   -11530591.231 8  10102229.479 9
 86  6 18  2  4 53.0800000  0  4G12G 9G11G13
  21921484.585    21921492.523   -27298650.896 9  33463222.761 9
  20423392.312    20423398.393    -7507138.575 8  13249302.471 7
  23298183.869    23298189.823     -784519.143 7  18246569.773 8
  20615605.290    20615611.006   -11530411.670 9  10102369.401 8
 86  6 18  2  4 59.0800000  0  4G12G 9G11G13
  21918628.397    21918637.127   -27313655.374 9  33451530.971 9
  20425255.915    20425261.918    -7497347.813 7  13256931.612 8
  23301344.199    23301350.576     -767908.208 7  18259513.347 8
  20615642.594    20615648.204   -11530216.214 9  10102521.715 8
 86  6 18  2  5  5.0800000  0  4G12G 9G11G13
  21915778.158    21915785.608   -27328644.276 9  33439851.312 9
  20427121.830    20427129.650    -7487532.297 8  13264580.069 8
  23304504.821    23304511.582     -751296.289 7  18272457.694 9
  20615682.556    20615688.287   -11530004.876 8  10102686.386 8
 86  6 18  2  5 11.0800000  0  4G12G 9G11G13
  21912928.292    21912936.489   -27343617.609 9  33428183.791 8
  20428996.047    20429002.095    -7477691.865 8  13272247.933 8
  23307666.150    23307672.509     -734683.255 8  18285402.891 8
  20615726.093    20615730.242   -11529777.574 8  10102863.513 9
 86  6 18  2  5 17.0800000  0  4G12G 9G11G13
  21910081.793    21910088.924   -27358575.258 8  33416528.489 8
  20430873.471    20430879.102    -7467826.590 7  13279935.155 7
  23310826.238    23310834.812     -718069.145 7  18298348.941 7
  20615771.419    20615777.713   -11529534.326 9  10103053.056 9
 86  6 18  2  5 23.0800000  0  4G12G 9G11G13
  21907237.717    21907245.849   -27373517.181 9  33404885.432 8
  20432756.560    20432761.347    -7457936.406 8  13287641.786 7
  23313988.819    23313995.858     -701453.923 7  18311295.849 8
  20615821.782    20615826.274   -11529275.163 8  10103255.004 8
 86  6 18  2  5 29.0800000  0  4G12G 9G11G13
  21904397.393    21904404.808   -27388443.403 9  33393254.610 9
  20434642.852    20434647.485    -7448021.263 7  13295367.857 7
  23317151.122    23317159.070     -684837.611 8  18324243.618 8
  20615874.754    20615879.029   -11529000.020 8  10103469.410 8
 86  6 18  2  5 35.0800000  0  4G12G 9G11G13
  21901560.885    21901567.836   -27403353.818 9  33381636.107 8
  20436536.017    20436540.773    -7438081.164 8  13303113.394 7
  23320314.467    23320320.133     -668220.166 7  18337192.279 8
  20615930.140    20615935.286   -11528708.789 9  10103696.349 8
 86  6 18  2  5 41.0800000  0  4G12G 9G11G13
  21898726.826    21898734.277   -27418248.348 8  33370029.993 8
  20438430.749    20438436.058    -7428116.054 8  13310878.413 7
  23323477.092    23323482.555     -651601.467 8  18350141.907 9
  20615988.487    20615992.695   -11528401.468 9  10103935.832 8
 86  6 18  2  5 47.0800000  0  4G12G 9G11G13
  21895896.276    21895901.617   -27433126.821 9  33358436.371 9
  20440332.388    20440337.561    -7418125.922 8  13318662.936 7
  23326637.649    23326645.199     -634981.496 8  18363092.536 8
  20616049.455    20616055.517   -11528078.040 9  10104187.842 7
 86  6 18  2  5 53.0800000  0  4G12G 9G11G13
  21893068.443    21893074.198   -27447989.413 9  33346855.118 8
  20442236.736    20442244.540    -7408110.837 8  13326466.877 7
  23329801.061    23329808.347     -618360.435 8  18376044.007 8
  20616113.798    20616118.775   -11527738.690 9  10104452.284 8
 86  6 18  2  5 59.0800000  0  4G12G 9G11G13
  21890242.266    21890247.987   -27462836.120 9  33335286.253 8
  20444147.388    20444153.663    -7398071.091 9  13334290.059 8
  23332962.628    23332971.834     -601738.337 8  18388996.289 9
  20616181.128    20616187.243   -11527383.469 9  10104729.089 8
 86  6 18  2  6  5.0800000  0  4G12G 9G11G13
  21887420.341    21887425.199   -27477666.916 9  33323729.779 8
  20446063.875    20446068.827    -7388006.448 8  13342132.629 7
  23336128.195    23336134.241     -585115.214 8  18401949.383 7
  20616252.113    20616258.502   -11527012.377 8  10105018.252 7
 86  6 18  2  6 11.0800000  0  4G12G 9G11G13
  21884600.323    21884607.752   -27492481.864 9  33312185.658 8
  20447984.135    20447988.652    -7377917.010 8  13349994.516 8
  23339290.715    23339297.405     -568491.089 7  18414903.231 8
  20616325.777    20616331.788   -11526625.452 8  10105319.756 8
 86  6 18  2  6 17.0800000  0  4G12G 9G11G13
  21881784.567    21881790.515   -27507280.879 9  33300653.961 9
  20449908.435    20449913.650    -7367802.771 8  13357875.737 7
  23342452.980    23342461.495     -551865.932 8  18427857.895 7
  20616402.477    20616407.587   -11526222.678 8  10105633.608 8
 86  6 18  2  6 23.0800000  0  4G12G 9G11G13
  21878970.489    21878977.146   -27522063.932 8  33289134.702 8
  20451839.029    20451842.774    -7357663.628 8  13365776.369 8
  23345619.215    23345627.014     -535239.796 9  18440813.328 9
  20616482.147    20616489.051   -11525804.053 8  10105959.821 8
 86  6 18  2  6 29.0800000  0  4G12G 9G11G13
  21876160.536    21876167.248   -27536831.084 9  33277627.832 8
  20453771.089    20453776.887    -7347499.792 9  13373696.228 8
  23348781.955    23348790.490     -518612.668 8  18453769.513 8
  20616565.006    20616570.499   -11525369.541 9  10106298.411 8
 86  6 18  2  6 35.0800000  0  4G12G 9G11G13
  21873352.408    21873359.040   -27551582.285 8  33266133.395 8
  20455711.185    20455715.455    -7337311.192 8  13381635.396 8
  23351946.842    23351953.702     -501984.615 8  18466726.442 7
  20616650.314    20616655.718   -11524919.239 8  10106649.289 8
 86  6 18  2  6 41.0800000  0  4G12G 9G11G13
  21870549.593    21870556.094   -27566317.517 9  33254651.399 8
  20457652.908    20457658.602    -7327097.770 8  13389593.889 8
  23355111.035    23355118.070     -485355.643 8  18479684.072 9
  20616739.289    20616745.214   -11524453.163 9  10107012.480 8
 86  6 18  2  6 47.0800000  0  4G12G 9G11G13
  21867748.267    21867755.887   -27581036.707 8  33243181.919 8
  20459600.704    20459606.095    -7316859.709 7  13397571.597 6
  23358275.751    23358283.486     -468725.742 7  18492642.429 8
  20616831.391    20616836.667   -11523971.287 8  10107387.966 8
 86  6 18  2  6 53.0800000  0  4G12G 9G11G13
  21864952.092    21864957.998   -27595739.893 8  33231724.892 9
  20461554.424    20461559.829    -7306596.835 8  13405568.625 7
  23361441.268    23361448.190     -452094.958 8  18505601.484 9
  20616926.167    20616931.537   -11523473.671 9  10107775.723 8
 86  6 18  2  6 59.0800000  0  4G12G 9G11G13
  21862156.985    21862163.655   -27610427.099 9  33220280.314 9
  20463512.114    20463518.727    -7296309.323 8  13413584.876 8
  23364604.316    23364613.269     -435463.326 8  18518561.177 8
  20617024.917    20617030.339   -11522960.328 9  10108175.738 8
 86  6 18  2  7  5.0800000  0  4G12G 9G11G13
  21859364.320    21859370.778   -27625098.245 8  33208848.257 9
  20465475.229    20465480.618    -7285997.130 8  13421620.345 7
  23367771.638    23367777.298     -418830.845 6  18531521.552 9
  20617125.193    20617131.041   -11522431.279 9  10108587.976 7
 86  6 18  2  7 11.0800000  0  4G12G 9G11G13
  21856576.206    21856581.922   -27639753.255 9  33197428.775 9
  20467442.083    20467446.395    -7275660.119 9  13429675.156 7
  23370935.455    23370943.484     -402197.468 7  18544482.598 9
  20617227.873    20617234.628   -11521886.457 8  10109012.519 9
 86  6 18  2  7 17.0800000  0  4G12G 9G11G13
  21853790.442    21853796.849   -27654392.127 9  33186021.848 9
  20469414.575    20469419.260    -7265298.517 8  13437749.122 6
  23374099.736    23374108.493     -385563.298 7  18557444.266 9
  20617333.670    20617341.981   -11521325.897 9  10109449.317 8
 86  6 18  2  7 23.0800000  0  4G12G 9G11G13
  21851008.992    21851014.490   -27669014.905 8  33174627.490 8
  20471390.874    20471394.545    -7254912.237 9  13445842.322 7
  23377266.836    23377273.965     -368928.303 7  18570406.586 9
  20617443.867    20617450.405   -11520749.706 8  10109898.294 8
 86  6 18  2  7 29.0800000  0  4G12G 9G11G13
  21848229.263    21848235.661   -27683621.490 9  33163245.726 9
  20473371.408    20473376.152    -7244501.320 9  13453954.726 7
  23380431.752    23380440.347     -352292.577 8  18583369.468 9
  20617557.170    20617562.720   -11520157.912 7  10110359.425 8
 86  6 18  2  7 35.0800000  0  4G12G 9G11G13
  21845452.752    21845458.083   -27698211.889 9  33151876.586 9
  20475357.122    20475361.056    -7234065.802 8  13462086.301 8
  23383598.186    23383606.162     -335656.054 7  18596332.988 8
  20617671.741    20617678.905   -11519550.426 9  10110832.792 8
 86  6 18  2  7 41.0800000  0  4G12G 9G11G13
  21842679.007    21842684.764   -27712786.024 9  33140520.113 9
  20477347.898    20477352.659    -7223605.674 8  13470237.041 8
  23386764.875    23386770.470     -319018.718 7  18609297.147 9
  20617790.788    20617797.116   -11518927.359 8  10111318.307 9
 86  6 18  2  7 47.0800000  0  4G12G 9G11G13
  21839907.310    21839914.956   -27727343.924 9  33129176.317 9
  20479341.885    20479347.592    -7213120.859 8  13478407.022 7
  23389930.337    23389936.896     -302380.589 8  18622261.909 8
  20617910.945    20617917.691   -11518288.609 8  10111816.023 9
 86  6 18  2  7 53.0800000  0  4G12G 9G11G13
  21837139.970    21837147.808   -27741885.706 9  33117845.052 8
  20481343.251    20481347.928    -7202611.492 8  13486596.129 7
  23393095.883    23393103.950     -285741.783 7  18635227.206 8
  20618036.934    20618043.137   -11517634.316 9  10112325.869 8
 86  6 18  2  7 59.0800000  0  4G12G 9G11G13
  21834375.834    21834381.943   -27756411.252 8  33106526.450 8
  20483347.055    20483352.829    -7192077.520 8  13494804.415 7
  23396262.792    23396269.969     -269102.223 7  18648193.092 9
  20618164.106    20618170.941   -11516964.524 8  10112847.786 8
 86  6 18  2  8  5.0800000  0  4G12G 9G11G13
  21831614.653    21831622.011   -27770920.505 9  33095220.551 8
  20485355.549    20485362.301    -7181518.945 8  13503031.878 7
  23399429.274    23399436.650     -252461.877 8  18661159.585 9
  20618295.155    20618300.576   -11516279.097 8  10113381.874 8
 86  6 18  2  8 11.0800000  0  4G12G 9G11G13
  21828857.558    21828863.215   -27785413.336 8  33083927.419 8
  20487370.686    20487376.061    -7170935.814 8  13511278.466 8
  23402595.745    23402602.948     -235820.789 8  18674126.666 8
  20618428.170    20618433.886   -11515578.102 8  10113928.112 8
 86  6 18  2  8 17.0800000  0  4G12G 9G11G13
  21826103.121    21826108.663   -27799889.821 9  33072647.050 8
  20489389.254    20489393.458    -7160328.035 9  13519544.265 8
  23405763.869    23405770.094     -219178.922 8  18687094.334 8
  20618564.288    20618570.001   -11514861.470 9  10114486.515 8
 86  6 18  2  8 23.0800000  0  4G12G 9G11G13
  21823351.676    21823357.537   -27814349.897 9  33061379.465 8
  20491412.140    20491417.986    -7149695.624 8  13527829.249 7
  23408931.123    23408937.480     -202536.328 9  18700062.594 9
  20618703.202    20618711.084   -11514129.194 9  10115057.124 8
 86  6 18  2  8 29.0800000  0  4G12G 9G11G13
  21820603.952    21820609.636   -27828793.472 9  33050124.727 9
  20493439.069    20493446.434    -7139038.616 7  13536133.421 7
  23412096.486    23412104.373     -185893.003 8  18713031.417 7
  20618845.232    20618851.280   -11513381.322 8  10115639.890 8
 86  6 18  2  8 35.0800000  0  4G12G 9G11G13
  21817858.034    21817864.160   -27843220.444 9  33038882.919 9
  20495473.580    20495479.091    -7128356.819 8  13544456.899 8
  23415263.959    23415271.296     -169248.852 8  18726000.875 8
  20618990.361    20618997.342   -11512617.702 9  10116234.907 9
 86  6 18  2  8 41.0800000  0  4G12G 9G11G13
  21815115.712    21815121.738   -27857630.956 9  33027653.960 8
  20497511.376    20497515.430    -7117650.440 8  13552799.534 7
  23418431.472    23418439.801     -152603.880 9  18738970.982 8
  20619139.531    20619145.299   -11511838.404 7  10116842.154 8
 86  6 18  2  8 47.0800000  0  4G12G 9G11G13
  21812377.219    21812383.433   -27872024.870 9  33016437.924 9
  20499552.092    20499557.608    -7106919.474 8  13561161.324 7
  23421599.288    23421606.757     -135958.168 7  18751941.651 9
  20619290.831    20619296.461   -11511043.521 9  10117461.549 9
 86  6 18  2  8 53.0800000  0  4G12G 9G11G13
  21809640.650    21809647.839   -27886402.179 9  33005234.833 9
  20501597.594    20501604.142    -7096163.811 8  13569542.347 8
  23424768.336    23424774.445     -119311.799 9  18764912.845 8
  20619444.368    20619450.606   -11510233.104 9  10118093.041 9
 86  6 18  2  8 59.0800000  0  4G12G 9G11G13
  21806908.281    21806915.070   -27900762.829 9  32994044.725 8
  20503650.394    20503656.378    -7085383.684 7  13577942.436 7
  23427935.428    23427942.478     -102664.743 9  18777884.569 8
  20619602.943    20619608.704   -11509407.158 9  10118736.639 8
 86  6 18  2  9  5.0800000  0  4G12G 9G11G13
  21804177.629    21804184.475   -27915106.896 9  32982867.532 9
  20505706.214    20505711.161    -7074579.044 9  13586361.636 8
  23431103.712    23431110.051      -86016.977 9  18790856.847 8
  20619761.495    20619767.800   -11508565.652 8  10119392.361 8
 86  6 18  2  9 11.0800000  0  4G12G 9G11G13
  21801451.263    21801458.038   -27929434.477 9  32971703.184 8
  20507767.802    20507772.461    -7063750.031 8  13594799.824 7
  23434271.862    23434278.815      -69368.704 9  18803829.529 9
  20619925.020    20619931.177   -11507708.826 8  10120060.027 8
 86  6 18  2  9 17.0800000  0  4G12G 9G11G13
  21798727.786    21798734.169   -27943745.464 9  32960551.771 8
  20509832.101    20509838.289    -7052896.443 8  13603257.153 6
  23437439.609    23437446.056      -52719.802 9  18816802.697 8
  20620091.246    20620096.940   -11506836.579 7  10120739.703 8
 86  6 18  2  9 23.0800000  0  4G12G 9G11G13
  21796007.500    21796013.588   -27958039.870 8  32949413.287 9
  20511903.613    20511907.787    -7042018.357 9  13611733.586 7
  23440606.932    23440615.196      -36070.328 8  18829776.313 8
  20620260.261    20620265.702   -11505948.931 8  10121431.374 9
 86  6 18  2  9 29.0800000  0  4G12G 9G11G13
  21793290.639    21793296.796   -27972317.555 9  32938287.810 8
  20513978.869    20513983.230    -7031115.830 8  13620229.046 7
  23443777.010    23443783.720      -19420.252 9  18842750.398 8
  20620432.015    20620436.823   -11505045.850 8  10122135.085 9
 86  6 18  2  9 35.0800000  0  4G12G 9G11G13
  21790575.530    21790582.133   -27986578.610 8  32927175.304 8
  20516058.313    20516061.367    -7020188.834 8  13628743.590 6
  23446944.062    23446951.606       -2769.614 9  18855724.914 8
  20620606.687    20620612.477   -11504127.307 9  10122850.831 8
 86  6 18  2  9 41.0800000  0  4G12G 9G11G13
  21787865.038    21787871.734   -28000823.004 8  32916075.792 8
  20518141.303    20518146.392    -7009237.435 8  13637277.145 8
  23450112.224    23450119.699       13881.558 8  18868699.858 8
  20620785.136    20620790.140   -11503193.396 8  10123578.563 8
 86  6 18  2  9 47.0800000  0  4G12G 9G11G13
  21785158.455    21785164.914   -28015050.736 9  32904989.247 8
  20520229.470    20520234.491    -6998261.730 8  13645829.640 7
  23453282.284    23453288.236       30533.221 8  18881675.160 8
  20620965.721    20620971.809   -11502244.207 8  10124318.193 8
 86  6 18  2  9 53.0800000  0  4G12G 9G11G13
  21782456.034    21782460.841   -28029261.710 9  32893915.764 8
  20522322.763    20522326.893    -6987261.576 8  13654401.191 7
  23456449.937    23456457.971       47185.358 8  18894650.849 8
  20621149.039    20621155.014   -11501279.696 8  10125069.765 8
 86  6 18  2  9 59.0800000  0  4G12G 9G11G13
  21779754.859    21779760.014   -28043456.010 9  32882855.275 8
  20524420.657    20524424.530    -6976237.057 8  13662991.717 7
  23459619.717    23459626.556       63837.936 9  18907626.885 8
  20621334.841    20621340.838   -11500299.890 8  10125833.251 8
 86  6 18  2 10  5.0800000  0  4G12G 9G11G13
  21777056.164    21777061.080   -28057633.503 9  32871807.865 9
  20526522.964    20526527.038    -6965188.204 7  13671601.199 7
  23462789.004    23462794.990       80490.980 8  18920603.279 7
  20621525.004    20621530.474   -11499304.795 8  10126608.643 9
 86  6 18  2 10 11.0800000  0  4G12G 9G11G13
  21774361.749    21774367.195   -28071794.240 9  32860773.514 8
  20528630.366    20528634.676    -6954115.012 8  13680229.667 8
  23465958.375    23465965.526       97144.471 8  18933580.019 7
  20621717.039    20621723.574   -11498294.501 9  10127395.889 8
 86  6 18  2 10 17.0800000  0  4G12G 9G11G13
  21771670.619    21771675.938   -28085938.231 9  32849752.228 9
  20530741.545    20530747.460    -6943017.581 7  13688877.009 6
  23469127.156    23469134.358      113798.316 8  18946557.049 8
  20621912.388    20621919.112   -11497268.965 8  10128195.008 9
 86  6 18  2 10 23.0800000  0  4G12G 9G11G13
  21768981.795    21768988.460   -28100065.481 9  32838743.980 8
  20532858.274    20532864.369    -6931895.862 8  13697543.288 7
  23472295.192    23472303.362      130452.571 8  18959534.357 8
  20622109.975    20622116.430   -11496228.126 8  10129006.042 8
 86  6 18  2 10 29.0800000  0  4G12G 9G11G13
  21766296.978    21766303.302   -28114175.999 9  32827748.769 8
  20534979.322    20534985.579    -6920749.987 8  13706228.367 8
  23475465.213    23475471.891      147107.109 8  18972511.924 7
  20622310.086    20622318.149   -11495172.165 8  10129828.872 8
 86  6 18  2 10 35.0800000  0  4G12G 9G11G13
  21763614.999    21763622.313   -28128269.753 9  32816766.625 9
  20537103.663    20537110.969    -6909579.935 8  13714932.305 8
  23478635.080    23478642.004      163761.957 8  18985489.731 8
  20622513.749    20622521.008   -11494101.097 8  10130663.475 9
 86  6 18  2 10 41.0800000  0  4G12G 9G11G13
  21760935.685    21760942.503   -28142346.659 9  32805797.611 9
  20539235.013    20539240.163    -6898385.636 8  13723655.133 7
  23481803.545    23481810.927      180417.091 8  18998467.752 8
  20622720.880    20622727.798   -11493014.875 7  10131509.885 7
 86  6 18  2 10 47.0800000  0  4G12G 9G11G13
  21758259.634    21758267.837   -28156406.750 9  32794841.711 9
  20541370.380    20541376.379    -6887167.107 8  13732396.841 7
  23484974.206    23484979.429      197072.557 9  19011446.033 7
  20622929.791    20622938.544   -11491913.439 8  10132368.140 8
 86  6 18  2 10 53.0800000  0  4G12G 9G11G13
  21755586.868    21755593.735   -28170449.857 8  32783899.031 9
  20543508.738    20543515.201    -6875924.156 8  13741157.569 8
  23488142.640    23488149.826      213728.457 9  19024424.656 8
  20623142.813    20623149.284   -11490796.786 8  10133238.259 7
 86  6 18  2 10 59.0800000  0  4G12G 9G11G13
  21752917.721    21752924.985   -28184475.972 8  32772969.611 9
  20545653.172    20545659.815    -6864656.949 8  13749937.199 7
  23491313.005    23491319.759      230384.843 8  19037403.650 9
  20623358.838    20623366.212   -11489664.864 7  10134120.284 8
 86  6 18  2 11  5.0800000  0  4G12G 9G11G13
  21750251.810    21750259.139   -28198484.886 9  32762053.567 8
  20547800.868    20547806.960    -6853365.318 8  13758735.870 8
  23494482.113    23494489.915      247041.756 8  19050383.059 9
  20623575.914    20623582.938   -11488517.614 8  10135014.244 8
 86  6 18  2 11 11.0800000  0  4G12G 9G11G13
  21747589.352    21747596.656   -28212476.615 9  32751150.933 8
  20549954.628    20549959.926    -6842049.327 8  13767553.541 7
  23497652.321    23497660.140      263699.203 9  19063362.872 9
  20623797.409    20623806.105   -11487355.017 8  10135920.163 9
 86  6 18  2 11 17.0800000  0  4G12G 9G11G13
  21744930.514    21744936.943   -28226451.180 9  32740261.658 8
  20552113.713    20552118.601    -6830708.846 7  13776390.274 6
  23500821.558    23500830.093      280357.087 8  19076343.031 9
  20624021.786    20624028.813   -11486177.050 9  10136838.050 8
 86  6 18  2 11 23.0800000  0  4G12G 9G11G13
  21742275.421    21742280.848   -28240408.548 9  32729385.803 9
  20554276.236    20554279.972    -6819344.051 8  13785245.951 7
  23503991.081    23503999.859      297015.475 8  19089323.565 8
  20624249.702    20624256.197   -11484983.832 8  10137767.837 8
 86  6 18  2 11 29.0800000  0  4G12G 9G11G13
  21739623.094    21739627.823   -28254348.635 9  32718523.386 8
  20556443.553    20556448.835    -6807954.980 8  13794120.552 8
  23507160.711    23507169.636      313674.308 9  19102304.472 8
  20624480.533    20624485.962   -11483775.427 8  10138709.458 8
 86  6 18  2 11 35.0800000  0  4G12G 9G11G13
  21736973.404    21736977.924   -28268271.489 9  32707674.414 8
  20558616.579    20558620.883    -6796541.630 8  13803014.075 8
  23510332.390    23510337.662      330333.560 8  19115285.708 8
  20624713.277    20624719.259   -11482551.827 9  10139662.909 8
 86  6 18  2 11 41.0800000  0  4G12G 9G11G13
  21734327.011    21734332.243   -28282177.142 9  32696838.839 8
  20560791.662    20560797.535    -6785104.044 7  13811926.455 7
  23513502.230    23513509.475      346993.141 8  19128267.203 9
  20624948.975    20624954.571   -11481313.063 8  10140628.196 8
 86  6 18  2 11 47.0800000  0  4G12G 9G11G13
  21731684.167    21731689.434   -28296065.532 9  32686016.711 9
  20562974.472    20562978.928    -6773642.194 9  13820857.767 7
  23516672.144    23516680.123      363653.082 9  19141248.963 9
  20625186.731    20625193.357   -11480059.167 8  10141605.258 8
 86  6 18  2 11 53.0800000  0  4G12G 9G11G13
  21729044.665    21729050.080   -28309936.604 9  32675208.079 7
  20565160.173    20565163.962    -6762156.082 8  13829807.995 8
  23519843.121    23519849.652      380313.351 8  19154230.993 9
  20625428.960    20625434.937   -11478790.051 9  10142594.177 9
 86  6 18  2 11 59.0800000  0  4G12G 9G11G13
  21726408.157    21726414.743   -28323790.496 9  32664412.828 9
  20567349.622    20567355.162    -6750645.795 8  13838777.036 8
  23523013.819    23523020.502      396973.887 9  19167213.228 9
  20625673.192    20625678.422   -11477505.865 9  10143594.847 8
 86  6 18  2 12  5.0800000  0  4G12G 9G11G13
  21723774.783    21723781.305   -28337627.151 8  32653631.017 8
  20569544.764    20569549.059    -6739111.376 8  13847764.877 8
  23526184.211    23526191.305      413634.651 8  19180195.620 8
  20625920.780    20625926.635   -11476206.591 8  10144607.275 8
 86  6 18  2 12 11.0800000  0  4G12G 9G11G13
  21721145.157    21721152.015   -28351446.554 8  32642862.647 8
  20571743.544    20571748.484    -6727552.861 8  13856771.519 8
  23529354.479    23529361.387      430295.666 8  19193178.225 8
  20626170.330    20626175.838   -11474892.277 9  10145631.415 8
 86  6 18  2 12 17.0800000  0  4G12G 9G11G13
  21718517.074    21718525.637   -28365248.725 8  32632107.721 8
  20573947.442    20573952.390    -6715970.174 8  13865796.985 7
  23532525.433    23532531.627      446956.880 8  19206160.979 8
  20626423.758    20626430.117   -11473562.960 8  10146667.264 9
 86  6 18  2 12 23.0800000  0  4G12G 9G11G13
  21715894.641    21715902.737   -28379033.620 8  32621366.244 8
  20576155.863    20576160.912    -6704363.415 9  13874841.223 8
  23535695.989    23535702.577      463618.263 9  19219143.876 9
  20626679.778    20626684.661   -11472218.720 8  10147714.717 9
 86  6 18  2 12 29.0800000  0  4G12G 9G11G13
  21713275.188    21713281.723   -28392801.182 9  32610638.295 8
  20578369.491    20578374.053    -6692732.679 8  13883904.129 8
  23538866.924    23538873.335      480279.862 9  19232126.929 8
  20626937.406    20626943.698   -11470859.451 8  10148773.892 9
 86  6 18  2 12 35.0800000  0  4G12G 9G11G13
  21710658.144    21710667.037   -28406551.376 9  32599923.857 9
  20580588.341    20580592.173    -6681077.758 8  13892985.869 8
  23542037.012    23542043.164      496941.604 8  19245110.110 8
  20627197.444    20627205.441   -11469485.130 8  10149844.792 8
 86  6 18  2 12 41.0800000  0  4G12G 9G11G13
  21708045.686    21708053.230   -28420284.226 9  32589222.942 9
  20582810.292    20582815.229    -6669398.871 8  13902086.297 8
  23545208.005    23545215.217      513603.436 9  19258093.356 9
  20627463.626    20627469.565   -11468095.827 8  10150927.370 8
 86  6 18  2 12 47.0800000  0  4G12G 9G11G13
  21705436.179    21705443.782   -28433999.715 9  32578535.546 9
  20585036.545    20585042.783    -6657696.027 8  13911205.399 6
  23548379.008    23548384.957      530265.391 8  19271076.696 8
  20627729.242    20627737.285   -11466691.695 8  10152021.493 8
 86  6 18  2 12 53.0800000  0  4G12G 9G11G13
  21702828.873    21702835.809   -28447697.780 9  32567861.735 8
  20587268.550    20587273.170    -6645969.038 7  13920343.316 8
  23551549.619    23551555.574      546927.525 9  19284060.172 9
  20627999.958    20628006.578   -11465272.596 8  10153127.304 8
 86  6 18  2 12 59.0800000  0  4G12G 9G11G13
  21700225.566    21700232.169   -28461378.449 8  32557201.482 9
  20589502.562    20589510.715    -6634217.993 7  13929499.961 8
  23554720.260    23554727.603      563589.825 9  19297043.778 8
  20628273.100    20628279.117   -11463838.564 8  10154244.731 8
 86  6 18  2 13  5.0800000  0  4G12G 9G11G13
  21697625.834    21697632.524   -28475041.582 9  32546554.874 8
  20591744.636    20591750.539    -6622442.910 7  13938675.341 8
  23557890.004    23557897.670      580252.302 8  19310027.528 8
  20628548.254    20628554.998   -11462389.610 8  10155373.781 9
 86  6 18  2 13 11.0800000  0  4G12G 9G11G13
  21695029.409    21695035.211   -28488687.222 9  32535921.909 8
  20593988.229    20593996.472    -6610643.765 8  13947869.470 8
  23561061.482    23561069.093      596914.975 8  19323011.410 8
  20628828.081    20628833.179   -11460925.670 8  10156514.514 9
 86  6 18  2 13 17.0800000  0  4G12G 9G11G13
  21692435.839    21692441.032   -28502315.245 9  32525302.662 8
  20596239.580    20596246.468    -6598820.552 7  13957082.365 7
  23564232.628    23564238.335      613577.807 8  19335995.435 8
  20629108.927    20629115.242   -11459446.731 7  10157666.922 8
 86  6 18  2 13 23.0800000  0  4G12G 9G11G13
  21689845.176    21689851.415   -28515925.629 9  32514697.154 8
  20598494.851    20598499.070    -6586973.340 7  13966313.960 7
  23567403.012    23567409.496      630240.778 8  19348979.567 8
  20629392.516    20629400.298   -11457952.896 8  10158830.952 8
 86  6 18  2 13 29.0800000  0  4G12G 9G11G13
  21687258.824    21687265.034   -28529518.459 8  32504105.346 8
  20600753.759    20600760.488    -6575102.091 8  13975564.286 8
  23570575.263    23570581.085      646903.852 8  19361963.772 9
  20629679.593    20629686.505   -11456444.199 8  10160006.572 8
 86  6 18  2 13 35.0800000  0  4G12G 9G11G13
  21684675.843    21684681.186   -28543093.751 9  32493527.188 9
  20603016.386    20603023.556    -6563206.810 8  13984833.342 6
  23573743.615    23573750.179      663567.092 7  19374948.101 8
  20629969.091    20629977.148   -11454920.611 9  10161193.791 8
 86  6 18  2 13 41.0800000  0  4G12G 9G11G13
  21682095.724    21682101.774   -28556651.540 9  32482962.676 8
  20605286.221    20605291.664    -6551287.669 9  13994120.977 7
  23576914.761    23576922.390      680230.367 7  19387932.462 8
  20630263.468    20630270.034   -11453382.205 8  10162392.533 8
 86  6 18  2 13 47.0800000  0  4G12G 9G11G13
  21679518.505    21679525.404   -28570191.726 9  32472411.883 8
  20607557.723    20607564.312    -6539344.596 8  14003427.246 7
  23580086.748    23580092.748      696893.629 8  19400916.813 9
  20630558.672    20630565.994   -11451829.031 8  10163602.802 8
 86  6 18  2 13 53.0800000  0  4G12G 9G11G13
  21676945.843    21676952.371   -28583714.304 9  32461874.811 9
  20609835.456    20609840.639    -6527377.617 8  14012752.179 8
  23583257.740    23583263.051      713556.888 8  19413901.166 8
  20630856.862    20630862.618   -11450261.099 8  10164824.574 8
 86  6 18  2 13 59.0800000  0  4G12G 9G11G13
  21674375.861    21674382.922   -28597219.184 9  32451351.536 9
  20612117.775    20612122.652    -6515386.817 7  14022095.646 8
  23586428.975    23586435.842      730220.110 9  19426885.485 7
  20631158.244    20631164.079   -11448678.344 8  10166057.887 8
 86  6 18  2 14  5.0800000  0  4G12G 9G11G13
  21671809.091    21671815.484   -28610706.394 9  32440842.021 9
  20614403.522    20614409.580    -6503372.162 8  14031457.703 7
  23589598.886    23589606.305      746883.265 7  19439869.760 8
  20631461.788    20631468.583   -11447080.893 9  10167302.668 8
 86  6 18  2 14 11.0800000  0  4G12G 9G11G13
  21669245.717    21669252.774   -28624175.859 9  32430346.329 9
  20616693.906    20616700.109    -6491333.714 8  14040838.307 7
  23592770.044    23592777.684      763546.387 6  19452854.010 9
  20631769.095    20631775.212   -11445468.642 9  10168558.961 8
 86  6 18  2 14 17.0800000  0  4G12G 9G11G13
  21666686.305    21666693.060   -28637627.689 9  32419864.393 8
  20618989.757    20618995.697    -6479271.388 8  14050237.513 7
  23595941.233    23595947.987      780209.412 8  19465838.175 9
  20632078.462    20632086.048   -11443841.798 9  10169826.635 8
 86  6 18  2 14 23.0800000  0  4G12G 9G11G13
  21664130.998    21664136.981   -28651061.780 9  32409396.266 8
  20621289.585    20621294.979    -6467185.283 7  14059655.257 8
  23599111.296    23599119.705      796872.360 8  19478822.284 9
  20632389.999    20632397.170   -11442200.311 8  10171105.719 7
 86  6 18  2 14 29.0800000  0  4G12G 9G11G13
  21661577.080    21661583.939   -28664478.028 9  32398942.045 9
  20623594.282    20623597.897    -6455075.341 8  14069091.569 8
  23602281.363    23602289.348      813535.382 8  19491806.447 8
  20632706.301    20632712.601   -11440544.082 8  10172396.297 7
 86  6 18  2 14 35.0800000  0  4G12G 9G11G13
  21659027.360    21659034.515   -28677876.341 9  32388501.812 9
  20625903.242    20625909.331    -6442941.334 8  14078546.634 7
  23605452.679    23605460.298      830198.540 7  19504790.714 9
  20633024.077    20633030.111   -11438872.969 9  10173698.454 8
 86  6 18  2 14 41.0800000  0  4G12G 9G11G13
  21656480.400    21656487.892   -28691256.742 9  32378075.525 8
  20628215.892    20628221.523    -6430783.421 7  14088020.331 8
  23608623.178    23608630.957      846861.794 7  19517775.061 8
  20633344.935    20633350.906   -11437186.951 9  10175012.237 8
 86  6 18  2 14 47.0800000  0  4G12G 9G11G13
  21653937.523    21653944.916   -28704619.089 8  32367663.303 9
  20630534.612    20630540.999    -6418601.547 7  14097512.690 8
  23611794.467    23611802.057      863525.141 7  19530759.469 8
  20633668.625    20633675.026   -11435486.111 8  10176337.560 8
 86  6 18  2 14 53.0800000  0  4G12G 9G11G13
  21651399.613    21651406.000   -28717963.421 9  32357265.124 9
  20632857.330    20632862.993    -6406395.658 8  14107023.772 8
  23614965.411    23614972.910      880188.562 7  19543743.955 8
  20633995.986    20634001.865   -11433770.484 8  10177674.409 9
 86  6 18  2 14 59.0800000  0  4G12G 9G11G13
  21648861.999    21648869.740   -28731289.605 9  32346881.085 8
  20635183.407    20635189.999    -6394165.754 8  14116553.559 7
  23618135.872    23618144.505      896852.138 8  19556728.555 9
  20634325.271    20634329.809   -11432039.945 8  10179022.878 8
 86  6 18  2 15  5.0800000  0  4G12G 9G11G13
  21646329.215    21646338.285   -28744597.755 8  32336511.097 8
  20637516.148    20637520.877    -6381912.029 8  14126101.898 8
  23621308.485    23621314.911      913515.708 8  19569713.146 8
  20634657.293    20634662.668   -11430294.621 9  10180382.860 8
 86  6 18  2 15 11.0800000  0  4G12G 9G11G13
  21643801.206    21643807.398   -28757887.845 9  32326155.191 7
  20639851.635    20639858.683    -6369634.451 8  14135668.833 7
  23624479.937    23624486.286      930179.199 6  19582697.685 8
  20634993.127    20634998.328   -11428534.500 8  10181754.392 8
 86  6 18  2 15 17.0800000  0  4G12G 9G11G13
  21641275.341    21641283.049   -28771159.934 9  32315813.291 9
  20642192.621    20642198.158    -6357333.089 8  14145254.308 8
  23627648.804    23627658.264      946842.643 8  19595682.170 8
  20635329.642    20635335.446   -11426759.766 8  10183137.301 8
 86  6 18  2 15 23.0800000  0  4G12G 9G11G13
  21638754.249    21638759.761   -28784414.017 9  32305485.452 8
  20644538.469    20644544.384    -6345008.003 8  14154858.278 9
  23630820.721    23630827.724      963505.927 7  19608666.536 8
  20635670.544    20635674.999   -11424970.362 8  10184531.644 8
 86  6 18  2 15 29.0800000  0  4G12G 9G11G13
  21636235.529    21636240.898   -28797650.161 9  32295171.574 8
  20646888.608    20646894.567    -6332659.279 8  14164480.644 7
  23633991.592    23633998.108      980169.053 8  19621650.795 8
  20636013.913    20636018.139   -11423166.413 9  10185937.328 9
 86  6 18  2 15 35.0800000  0  4G12G 9G11G13
  21633719.738    21633725.988   -28810868.444 8  32284871.605 9
  20649243.156    20649249.306    -6320287.059 7  14174121.332 8
  23637162.994    23637169.769      996831.901 8  19634634.826 8
  20636360.252    20636364.770   -11421348.061 8  10187354.217 8
 86  6 18  2 15 41.0800000  0  4G12G 9G11G13
  21631207.327    21631213.825   -28824068.780 9  32274585.615 8
  20651603.197    20651608.341    -6307891.175 7  14183780.471 8
  23640333.272    23640340.237     1013494.508 6  19647618.662 8
  20636708.785    20636714.412   -11419515.270 9  10188782.377 7
 86  6 18  2 15 47.0800000  0  4G12G 9G11G13
  21628699.224    21628705.505   -28837251.188 9  32264313.616 9
  20653965.986    20653971.969    -6295471.814 8  14193457.879 7
  23643503.121    23643511.055     1030156.750 7  19660602.214 9
  20637059.137    20637066.023   -11417668.103 9  10190221.730 8
 86  6 18  2 15 53.0800000  0  4G12G 9G11G13
  21626193.392    21626200.391   -28850415.633 9  32254055.612 8
  20656334.361    20656338.605    -6283028.901 7  14203153.647 8
  23646674.859    23646682.267     1046818.675 7  19673585.515 9
  20637413.947    20637419.369   -11415806.518 9  10191672.316 8
 86  6 18  2 15 59.0800000  0  4G12G 9G11G13
  21623692.826    21623698.093   -28863562.059 8  32243811.649 8
  20658704.677    20658712.759    -6270562.418 8  14212867.792 8
  23649845.336    23649853.576     1063480.283 8  19686568.586 8
  20637771.740    20637775.633   -11413930.492 8  10193134.150 8
 86  6 18  2 16  5.0800000  0  4G12G 9G11G13
  21621195.039    21621200.436   -28876690.353 9  32233581.804 8
  20661082.804    20661089.151    -6258072.400 8  14222600.267 8
  23653015.130    23653023.852     1080141.686 8  19699551.498 8
  20638131.187    20638136.603   -11412040.063 9  10194607.227 8
 86  6 18  2 16 11.0800000  0  4G12G 9G11G13
  21618700.415    21618705.495   -28889800.447 9  32223366.140 8
  20663464.342    20663470.900    -6245558.719 8  14232351.192 7
  23656186.483    23656194.287     1096802.871 7  19712534.224 8
  20638493.799    20638498.424   -11410135.169 9  10196091.565 8
 86  6 18  2 16 17.0800000  0  4G12G 9G11G13
  21616209.293    21616214.759   -28902892.258 9  32213164.730 8
  20665849.915    20665856.460    -6233021.435 7  14242120.481 7
  23659356.276    23659365.063     1113463.831 8  19725516.789 8
  20638858.841    20638863.229   -11408215.818 9  10197587.168 8
 86  6 18  2 16 23.0800000  0  4G12G 9G11G13
  21613721.090    21613726.112   -28915965.770 8  32202977.568 9
  20668240.748    20668246.184    -6220460.594 9  14251908.156 7
  23662527.019    23662536.953     1130124.526 8  19738499.150 9
  20639225.633    20639233.899   -11406281.930 8  10199094.104 8
 86  6 18  2 16 29.0800000  0  4G12G 9G11G13
  21611235.996    21611242.515   -28929021.023 9  32192804.650 8
  20670634.986    20670640.363    -6207876.077 8  14261714.268 7
  23665697.908    23665705.999     1146784.996 8  19751481.331 8
  20639596.745    20639602.671   -11404333.557 8  10200612.318 8
 86  6 18  2 16 35.0800000  0  4G12G 9G11G13
  21608755.202    21608761.748   -28942057.908 9  32182646.050 9
  20673034.553    20673039.654    -6195267.979 8  14271538.750 8
  23668865.069    23668876.368     1163445.283 7  19764463.347 9
  20639969.892    20639976.077   -11402370.712 8  10202141.804 8
 86  6 18  2 16 41.0800000  0  4G12G 9G11G13
  21606277.432    21606285.289   -28955076.456 9  32172501.713 9
  20675438.554    20675442.955    -6182636.138 7  14281381.746 7
  23672036.491    23672046.541     1180105.400 8  19777445.236 8
  20640346.344    20640353.365   -11400393.361 8  10203682.610 8
 86  6 18  2 16 47.0800000  0  4G12G 9G11G13
  21603804.187    21603810.804   -28968076.634 8  32162371.728 8
  20677846.448    20677851.526    -6169980.715 7  14291243.105 8
  23675207.692    23675216.018     1196765.307 7  19790426.970 9
  20640725.202    20640731.814   -11398401.536 8  10205234.674 9
 86  6 18  2 16 53.0800000  0  4G12G 9G11G13
  21601334.951    21601339.773   -28981058.372 8  32152256.078 9
  20680257.977    20680264.621    -6157301.834 7  14301122.740 8
  23678378.094    23678386.167     1213425.004 8  19803408.543 8
  20641106.909    20641113.280   -11396395.254 9  10206798.025 8
 86  6 18  2 16 59.0800000  0  4G12G 9G11G13
  21598868.702    21598872.244   -28994021.737 9  32142154.760 9
  20682676.347    20682680.816    -6144599.291 8  14311020.820 8
  23681549.307    23681556.573     1230084.470 8  19816389.947 8
  20641490.707    20641498.020   -11394374.631 9  10208372.540 8
 86  6 18  2 17  5.0800000  0  4G12G 9G11G13
  21596404.503    21596409.726   -29006966.624 9  32132067.826 8
  20685097.344    20685103.076    -6131873.158 8  14320937.277 8
  23684719.415    23684725.605     1246743.702 7  19829371.156 8
  20641878.329    20641885.055   -11392339.572 8  10209958.303 8
 86  6 18  2 17 11.0800000  0  4G12G 9G11G13
  21593944.594    21593949.813   -29019893.032 9  32121995.300 8
  20687524.327    20687529.211    -6119123.546 8  14330872.023 7
  23687889.473    23687897.003     1263402.704 8  19842352.196 7
  20642268.832    20642275.582   -11390290.083 9  10211555.316 8
 86  6 18  2 17 17.0800000  0  4G12G 9G11G13
  21591488.125    21591492.798   -29032800.913 8  32111937.207 8
  20689953.737    20689958.409    -6106350.292 8  14340825.201 7
  23691059.120    23691065.734     1280061.495 8  19855333.066 7
  20642660.955    20642668.133   -11388226.078 9  10213163.632 8
 86  6 18  2 17 23.0800000  0  4G12G 9G11G13
  21589034.493    21589040.902   -29045690.310 9  32101893.526 9
  20692389.276    20692395.163    -6093553.527 8  14350796.717 7
  23694228.940    23694236.732     1296719.995 8  19868313.695 8
  20643056.870    20643064.504   -11386147.643 8  10214783.201 8
 86  6 18  2 17 29.0800000  0  4G12G 9G11G13
  21586585.821    21586590.760   -29058561.319 9  32091864.176 7
  20694828.709    20694835.527    -6080733.442 9  14360786.389 8
  23697399.667    23697406.936     1313378.042 8  19881293.993 8
  20643455.516    20643462.351   -11384055.006 8  10216413.823 8
 86  6 18  2 17 35.0800000  0  4G12G 9G11G13
  21584140.482    21584145.573   -29071413.858 9  32081849.211 9
  20697273.003    20697278.391    -6067889.948 8  14370794.298 7
  23700568.370    23700577.727     1330035.710 7  19894273.989 8
  20643856.897    20643863.541   -11381948.090 9  10218055.575 8
 86  6 18  2 17 41.0800000  0  4G12G 9G11G13
  21581697.331    21581702.199   -29084248.052 8  32071848.547 8
  20699720.161    20699728.505    -6055023.163 8  14380820.350 8
  23703737.826    23703744.798     1346692.867 8  19907253.586 8
  20644260.078    20644267.632   -11379826.990 9  10219708.384 8
 86  6 18  2 17 47.0800000  0  4G12G 9G11G13
  21579258.605    21579264.125   -29097063.853 9  32061862.206 8
  20702174.589    20702179.801    -6042133.127 7  14390864.534 8
  23706907.591    23706915.942     1363349.482 8  19920232.763 8
  20644667.026    20644673.738   -11377691.758 8  10221372.206 9
 86  6 18  2 17 53.0800000  0  4G12G 9G11G13
  21576822.647    21576828.729   -29109861.097 9  32051890.330 8
  20704631.470    20704636.834    -6029219.677 8  14400926.953 7
  23710078.650    23710084.594     1380005.648 9  19933211.586 8
  20645077.011    20645082.374   -11375542.312 8  10223047.098 8
 86  6 18  2 17 59.0800000  0  4G12G 9G11G13
  21574390.542    21574398.463   -29122639.822 9  32041932.886 9
  20707093.396    20707099.555    -6016283.003 9  14411007.473 8
  23713247.697    23713253.688     1396661.333 8  19946190.051 8
  20645487.581    20645494.028   -11373378.680 9  10224733.054 9
 86  6 18  2 18  5.0800000  0  4G12G 9G11G13
  21571962.103    21571970.151   -29135400.031 9  32031989.867 8
  20709558.982    20709566.218    -6003323.152 8  14421106.057 7
  23716416.611    23716423.797     1413316.432 9  19959168.054 8
  20645901.564    20645908.204   -11371200.911 9  10226430.012 8
 86  6 18  2 18 11.0800000  0  4G12G 9G11G13
  21569537.096    21569544.244   -29148141.702 9  32022061.308 8
  20712031.953    20712035.785    -5990339.973 9  14431222.824 8
  23719586.834    23719593.898     1429971.075 9  19972145.691 7
  20646317.763    20646324.847   -11369009.080 9  10228137.937 8
 86  6 18  2 18 17.0800000  0  4G12G 9G11G13
  21567116.823    21567124.536   -29160864.796 9  32012147.207 9
  20714505.384    20714511.959    -5977333.546 8  14441357.685 8
  23722755.153    23722763.016     1446625.208 9  19985122.937 8
  20646738.356    20646744.999   -11366803.182 9  10229856.818 8
 86  6 18  2 18 23.0800000  0  4G12G 9G11G13
  21564699.858    21564706.928   -29173569.276 9  32002247.621 8
  20716985.279    20716990.739    -5964303.960 9  14451510.617 8
  23725925.739    23725932.044     1463278.791 8  19998099.743 8
  20647161.015    20647167.486   -11364583.086 9  10231586.767 8
 86  6 18  2 18 29.0800000  0  4G12G 9G11G13
  21562286.199    21562291.932   -29186255.039 9  31992362.619 8
  20719470.044    20719474.799    -5951250.984 8  14461681.757 8
  23729093.500    23729101.808     1479931.956 9  20011076.233 8
  20647585.887    20647591.783   -11362348.787 8  10233327.781 8
 86  6 18  2 18 35.0800000  0  4G12G 9G11G13
  21559876.200    21559881.145   -29198922.006 9  31982492.245 8
  20721958.583    20721961.833    -5938174.605 8  14471871.135 8
  23732262.431    23732270.917     1496584.780 9  20024052.442 8
  20648014.361    20648019.588   -11360100.228 8  10235079.905 8
 86  6 18  2 18 41.0800000  0  4G12G 9G11G13
  21557468.478    21557475.210   -29211570.092 9  31972636.596 8
  20724451.126    20724456.330    -5925074.866 7  14482078.726 8
  23735431.935    23735438.957     1513237.245 9  20037028.391 8
  20648444.620    20648450.667   -11357837.446 9  10236843.114 9
 86  6 18  2 18 47.0800000  0  4G12G 9G11G13
  21555064.741    21555072.112   -29224199.239 9  31962795.708 8
  20726948.538    20726954.474    -5911951.697 8  14492304.558 7
  23738600.706    23738607.648     1529889.381 9  20050004.088 7
  20648878.759    20648884.281   -11355560.415 9  10238617.426 9
 86  6 18  2 18 53.0800000  0  4G12G 9G11G13
  21552666.262    21552671.026   -29236809.418 9  31952969.593 9
  20729450.011    20729455.101    -5898805.197 8  14502548.586 8
  23741769.084    23741776.326     1546541.174 9  20062979.496 8
  20649315.208    20649320.911   -11353269.088 8  10240402.890 8
 86  6 18  2 18 59.0800000  0  4G12G 9G11G13
  21550270.071    21550275.786   -29249400.570 9  31943158.305 9
  20731955.382    20731961.452    -5885635.190 8  14512810.922 8
  23744937.971    23744944.817     1563192.615 9  20075954.655 8
  20649753.222    20649759.104   -11350963.539 8  10242199.420 8
 86  6 18  2 19  5.0800000  0  4G12G 9G11G13
  21547877.402    21547882.536   -29261972.739 9  31933361.803 8
  20734467.100    20734471.621    -5872441.908 8  14523091.389 8
  23748106.837    23748113.495     1579843.702 9  20088929.527 8
  20650194.289    20650199.593   -11348643.729 9  10244007.067 8
 86  6 18  2 19 11.0800000  0  4G12G 9G11G13
  21545488.460    21545494.942   -29274526.005 8  31923580.041 8
  20736980.970    20736987.359    -5859225.303 9  14533390.043 8
  23751274.644    23751282.114     1596494.316 9  20101904.022 8
  20650638.681    20650643.430   -11346309.727 8  10245825.774 8
 86  6 18  2 19 17.0800000  0  4G12G 9G11G13
  21543103.251    21543109.984   -29287060.358 9  31913813.017 8
  20739500.814    20739506.507    -5845985.455 8  14543706.813 7
  23754443.157    23754451.057     1613144.410 9  20114878.118 8
  20651084.563    20651090.569   -11343961.573 8  10247655.515 9
 86  6 18  2 19 23.0800000  0  4G12G 9G11G13
  21540720.592    21540728.771   -29299575.802 9  31904060.738 9
  20742024.724    20742030.275    -5832722.427 9  14554041.626 7
  23757612.691    23757619.627     1629793.945 9  20127851.780 9
  20651534.392    20651540.701   -11341599.428 8  10249496.147 8
 86  6 18  2 19 29.0800000  0  4G12G 9G11G13
  21538342.879    21538350.036   -29312072.344 9  31894323.178 8
  20744552.330    20744558.207    -5819436.269 8  14564394.479 8
  23760779.420    23760788.336     1646442.941 9  20140825.018 7
  20651985.988    20651992.506   -11339223.178 8  10251347.769 8
 86  6 18  2 19 35.0800000  0  4G12G 9G11G13
  21535969.829    21535976.648   -29324549.958 9  31884600.363 9
  20747085.170    20747092.347    -5806126.926 9  14574765.384 7
  23763948.458    23763955.480     1663091.303 9  20153797.769 8
  20652442.729    20652446.559   -11336832.916 8  10253210.313 9
 86  6 18  2 19 41.0800000  0  4G12G 9G11G13
  21533599.578    21533604.552   -29337008.675 9  31874892.270 8
  20749622.506    20749628.707    -5792794.588 8  14585154.219 8
  23767116.647    23767123.612     1679739.029 9  20166770.012 8
  20652899.632    20652904.510   -11334428.732 9  10255083.702 8
 86  6 18  2 19 47.0800000  0  4G12G 9G11G13
  21531231.191    21531237.567   -29349448.467 8  31865198.928 8
  20752164.276    20752169.602    -5779439.226 8  14595560.992 7
  23770284.528    23770291.634     1696386.050 8  20179741.714 8
  20653360.323    20653364.460   -11332010.665 8  10256967.916 8
 86  6 18  2 19 53.0800000  0  4G12G 9G11G13
  21528867.513    21528873.376   -29361869.465 8  31855520.229 9
  20754709.965    20754716.079    -5766060.960 8  14605985.584 8
  23773451.917    23773458.511     1713032.298 9  20192712.810 8
  20653823.140    20653827.802   -11329578.812 8  10258862.872 8
 86  6 18  2 19 59.0800000  0  4G12G 9G11G13
  21526507.170    21526514.450   -29374271.550 8  31845856.282 8
  20757259.519    20757265.509    -5752659.849 8  14616428.022 8
  23776619.017    23776625.879     1729677.754 9  20205683.299 7
  20654287.564    20654292.640   -11327133.126 8  10260768.603 7
 86  6 18  2 20  5.0800000  0  4G12G 9G11G13
  21524151.978    21524156.647   -29386654.831 9  31836206.964 9
  20759814.424    20759819.071    -5739235.878 8  14626888.256 7
  23779786.357    23779793.867     1746322.372 9  20218653.125 8
  20654755.930    20654762.020   -11324673.646 9  10262685.089 8
 86  6 18  2 20 11.0800000  0  4G12G 9G11G13
  21521799.093    21521804.346   -29399019.125 9  31826572.461 8
  20762373.388    20762378.869    -5725788.950 9  14637366.378 7
  23782953.315    23782960.629     1762966.260 9  20231622.369 8
  20655225.949    20655232.616   -11322200.380 8  10264612.300 8
 86  6 18  2 20 17.0800000  0  4G12G 9G11G13
  21519450.732    21519455.158   -29411364.374 9  31816952.785 9
  20764936.685    20764941.903    -5712319.015 8  14647862.419 8
  23786121.039    23786127.659     1779609.424 9  20244591.063 8
  20655699.346    20655706.725   -11319713.304 9  10266550.284 9
 86  6 18  2 20 23.0800000  0  4G12G 9G11G13
  21517104.129    21517109.337   -29423690.402 9  31807348.090 8
  20767503.921    20767509.316    -5698826.072 7  14658376.399 7
  23789288.636    23789295.011     1796251.919 9  20257559.232 8
  20656174.457    20656181.253   -11317212.278 8  10268499.136 7
 86  6 18  2 20 29.0800000  0  4G12G 9G11G13
  21514760.938    21514767.333   -29435997.286 9  31797758.305 9
  20770076.776    20770080.142    -5685310.105 8  14668908.307 8
  23792454.610    23792461.022     1812893.779 9  20270526.900 8
  20656653.795    20656659.838   -11314697.362 8  10270458.802 9
 86  6 18  2 20 35.0800000  0  4G12G 9G11G13
  21512422.218    21512430.187   -29448284.987 9  31788183.479 8
  20772651.800    20772657.941    -5671771.105 7  14679458.190 8
  23795621.853    23795629.249     1829535.031 8  20283494.109 8
  20657134.941    20657142.555   -11312168.521 8  10272429.336 8
 86  6 18  2 20 41.0800000  0  4G12G 9G11G13
  21510087.575    21510093.781   -29460553.514 9  31778623.593 7
  20775232.544    20775238.133    -5658209.057 8  14690026.003 8
  23798788.594    23798795.673     1846175.677 9  20296460.837 8
  20657619.408    20657625.032   -11309625.799 8  10274410.675 7
 86  6 18  2 20 47.0800000  0  4G12G 9G11G13
  21507756.557    21507763.077   -29472802.821 9  31769078.685 8
  20777817.272    20777822.612    -5644623.966 8  14700611.771 7
  23801954.474    23801961.266     1862815.682 9  20309427.067 9
  20658106.847    20658112.231   -11307069.173 8  10276402.847 8
 86  6 18  2 20 53.0800000  0  4G12G 9G11G13
  21505429.469    21505436.145   -29485032.782 8  31759548.849 8
  20780407.632    20780413.022    -5631015.810 8  14711215.535 7
  23805121.440    23805127.155     1879455.095 9  20322392.836 8
  20658595.654    20658601.491   -11304498.616 8  10278405.878 8
 86  6 18  2 20 59.0800000  0  4G12G 9G11G13
  21503106.896    21503113.027   -29497243.333 9  31750034.135 8
  20783001.034    20783007.262    -5617384.677 8  14721837.198 9
  23808287.646    23808293.731     1896093.957 9  20335358.182 7
  20659086.371    20659093.596   -11301914.086 9  10280419.800 8
 86  6 18  2 21  5.0800000  0  4G12G 9G11G13
  21500786.848    21500793.319   -29509434.459 8  31740534.562 8
  20785599.353    20785605.153    -5603730.420 7  14732476.877 8
  23811452.944    23811459.803     1912732.117 8  20348322.962 8
  20659580.657    20659587.743   -11299315.688 8  10282444.526 8
 86  6 18  2 21 11.0800000  0  4G12G 9G11G13
  21498470.679    21498477.769   -29521606.212 9  31731050.087 8
  20788203.741    20788208.917    -5590053.200 7  14743134.442 7
  23814620.045    23814625.670     1929369.698 9  20361287.316 7
  20660077.211    20660084.444   -11296703.390 8  10284480.096 8
 86  6 18  2 21 17.0800000  0  4G12G 9G11G13
  21496158.464    21496164.434   -29533758.601 9  31721580.694 8
  20790809.697    20790815.640    -5576353.062 9  14753809.864 8
  23817785.714    23817792.008     1946006.681 9  20374251.202 9
  20660578.485    20660585.179   -11294077.217 8  10286526.449 8
 86  6 18  2 21 23.0800000  0  4G12G 9G11G13
  21493850.346    21493856.161   -29545891.525 9  31712126.473 9
  20793421.181    20793426.313    -5562629.866 7  14764503.258 8
  23820950.924    23820956.334     1962642.998 9  20387214.545 8
  20661081.027    20661086.814   -11291437.150 9  10288583.643 8
 86  6 18  2 21 29.0800000  0  4G12G 9G11G13
  21491545.053    21491549.684   -29558005.004 9  31702687.388 8
  20796036.707    20796042.675    -5548883.799 8  14775214.473 8
  23824116.692    23824122.804     1979278.602 9  20400177.355 8
  20661585.088    20661590.841   -11288783.285 9  10290651.587 8
 86  6 18  2 21 35.0800000  0  4G12G 9G11G13
  21489243.327    21489248.905   -29570098.998 9  31693263.505 9
  20798656.680    20798663.203    -5535114.809 8  14785943.540 8
  23827282.591    23827289.232     1995913.575 9  20413139.664 8
  20662093.295    20662099.053   -11286115.563 8  10292730.327 8
 86  6 18  2 21 41.0800000  0  4G12G 9G11G13
  21486945.560    21486951.654   -29582173.470 9  31683854.826 8
  20801281.100    20801287.150    -5521323.024 7  14796690.387 7
  23830446.375    23830454.861     2012547.784 9  20426101.379 9
  20662603.147    20662608.465   -11283434.108 8  10294819.784 8
 86  6 18  2 21 47.0800000  0  4G12G 9G11G13
  21484650.900    21484656.267   -29594228.590 9  31674461.238 8
  20803910.360    20803916.079    -5507508.440 8  14807454.997 8
  23833612.198    23833619.868     2029181.171 8  20439062.446 8
  20663116.397    20663121.690   -11280739.017 8  10296919.853 7
 86  6 18  2 21 53.0800000  0  4G12G 9G11G13
  21482360.793    21482367.983   -29606264.335 9  31665082.725 9
  20806543.421    20806549.655    -5493671.128 8  14818237.305 8
  23836775.861    23836785.396     2045813.696 8  20452022.845 9
  20663630.298    20663637.325   -11278030.248 9  10299030.579 8
 86  6 18  2 21 59.0800000  0  4G12G 9G11G13
  21480073.933    21480080.731   -29618280.821 9  31655719.239 8
  20809180.321    20809186.823    -5479811.283 7  14829037.187 8
  23839941.762    23839950.736     2062445.174 8  20464982.425 8
  20664149.781    20664154.493   -11275308.056 8  10301151.768 8
 86  6 18  2 22  5.0800000  0  4G12G 9G11G13
  21477791.064    21477798.514   -29630278.080 9  31646370.732 9
  20811822.711    20811829.660    -5465928.926 8  14839854.595 8
  23843106.593    23843114.763     2079075.548 8  20477941.171 9
  20664669.655    20664675.033   -11272572.458 9  10303283.404 7
 86  6 18  2 22 11.0800000  0  4G12G 9G11G13
  21475511.727    21475518.058   -29642256.018 9  31637037.282 9
  20814468.850    20814475.857    -5452023.973 7  14850689.625 8
  23846271.968    23846280.306     2095704.904 8  20490899.103 9
  20665192.584    20665197.868   -11269823.396 8  10305425.520 8
 86  6 18  2 22 17.0800000  0  4G12G 9G11G13
  21473235.853    21473242.329   -29654214.556 9  31627718.944 9
  20817118.573    20817124.186    -5438096.445 8  14861542.237 7
  23849436.711    23849443.536     2112333.278 8  20503856.266 8
  20665719.731    20665724.514   -11267060.877 8  10307578.126 9
 86  6 18  2 22 23.0800000  0  4G12G 9G11G13
  21470963.890    21470970.622   -29666153.607 9  31618415.800 8
  20819773.386    20819779.548    -5424146.370 8  14872412.414 8
  23852600.742    23852608.808     2128960.725 9  20516812.705 8
  20666248.024    20666252.146   -11264284.791 9  10309741.318 9
 86  6 18  2 22 29.0800000  0  4G12G 9G11G13
  21468696.112    21468701.969   -29678073.047 9  31609127.918 8
  20822432.313    20822438.192    -5410173.477 8  14883300.387 8
  23855764.780    23855772.135     2145587.335 8  20529768.490 9
  20666778.617    20666783.623   -11261494.987 7  10311915.200 8
 86  6 18  2 22 35.0800000  0  4G12G 9G11G13
  21466432.182    21466437.376   -29689972.740 9  31599855.430 9
  20825094.965    20825101.518    -5396177.739 8  14894206.149 8
  23858928.878    23858937.394     2162213.167 8  20542723.684 8
  20667309.537    20667317.505   -11258691.507 8  10314099.731 9
 86  6 18  2 22 41.0800000  0  4G12G 9G11G13
  21464172.004    21464177.194   -29701852.791 8  31590598.251 7
  20827763.720    20827769.304    -5382159.318 8  14905129.593 7
  23862091.896    23862099.415     2178838.187 7  20555678.233 8
  20667846.546    20667853.631   -11255874.398 8  10316294.870 8
 86  6 18  2 22 47.0800000  0  4G12G 9G11G13
  21461914.789    21461920.193   -29713713.167 9  31581356.392 9
  20830436.499    20830441.618    -5368118.229 8  14916070.686 7
  23865255.925    23865261.815     2195462.324 7  20568632.101 7
  20668385.485    20668392.600   -11253043.699 9  10318500.621 8
 86  6 18  2 22 53.0800000  0  4G12G 9G11G13
  21459661.676    21459667.074   -29725553.868 9  31572129.879 8
  20833111.033    20833118.585    -5354054.517 8  14927029.428 8
  23868418.342    23868425.841     2212085.632 8  20581585.311 8
  20668926.599    20668933.779   -11250199.485 9  10320716.902 9
 86  6 18  2 22 59.0800000  0  4G12G 9G11G13
  21457411.235    21457416.850   -29737374.900 9  31562918.682 9
  20835791.804    20835798.180    -5339968.222 8  14938005.755 7
  23871581.524    23871589.012     2228708.052 8  20594537.832 8
  20669470.934    20669477.323   -11247341.685 8  10322943.750 7
 86  6 18  2 23  5.0800000  0  4G12G 9G11G13
  21455165.143    21455170.986   -29749176.202 9  31553722.860 9
  20838476.408    20838482.509    -5325859.349 7  14948999.676 8
  23874744.904    23874752.316     2245329.499 8  20607489.600 9
  20670017.880    20670023.648   -11244470.484 8  10325181.052 8
 86  6 18  2 23 11.0800000  0  4G12G 9G11G13
  21452923.020    21452930.236   -29760957.828 9  31544542.373 9
  20841165.674    20841172.539    -5311727.979 8  14960011.140 7
  23877907.437    23877914.753     2261949.960 8  20620440.596 9
  20670566.557    20670572.811   -11241585.830 8  10327428.828 8
 86  6 18  2 23 17.0800000  0  4G12G 9G11G13
  21450685.669    21450692.258   -29772719.783 9  31535377.207 8
  20843859.832    20843864.940    -5297574.026 7  14971040.179 7
  23881069.263    23881077.305     2278569.379 8  20633390.772 9
  20671118.348    20671123.927   -11238687.798 9  10329687.046 9
 86  6 18  2 23 23.0800000  0  4G12G 9G11G13
  21448450.713    21448457.526   -29784462.008 9  31526227.432 9
  20846556.316    20846562.618    -5283397.670 8  14982086.674 8
  23884232.195    23884239.949     2295187.814 8  20646340.209 8
  20671671.493    20671678.917   -11235776.266 8  10331955.770 8
 86  6 18  2 23 29.0800000  0  4G12G 9G11G13
  21446221.156    21446227.112   -29796184.375 9  31517093.124 9
  20849258.778    20849265.157    -5269198.775 8  14993150.747 8
  23887394.802    23887401.797     2311805.299 8  20659288.873 9
  20672228.103    20672234.670   -11232851.256 9  10334234.988 8
 86  6 18  2 23 35.0800000  0  4G12G 9G11G13
  21443992.948    21444000.691   -29807886.903 9  31507974.271 9
  20851965.219    20851970.508    -5254977.299 7  15004232.413 8
  23890557.087    23890563.654     2328421.825 7  20672236.814 9
  20672787.436    20672794.645   -11229912.803 8  10336524.690 9
 86  6 18  2 23 41.0800000  0  4G12G 9G11G13
  21441769.354    21441777.394   -29819569.630 9  31498870.853 8
  20854676.838    20854681.440    -5240733.319 9  15015331.617 7
  23893718.218    23893725.609     2345037.456 8  20685184.054 8
  20673349.635    20673356.161   -11226960.883 8  10338824.897 9
 86  6 18  2 23 47.0800000  0  4G12G 9G11G13
  21439550.895    21439558.665   -29831232.417 9  31489782.972 9
  20857391.750    20857395.683    -5226466.768 8  15026448.397 7
  23896878.077    23896887.516     2361652.192 6  20698130.592 9
  20673914.056    20673919.496   -11223995.454 9  10341135.614 9
 86  6 18  2 23 53.0800000  0  4G12G 9G11G13
  21437334.662    21437342.923   -29842875.254 8  31480710.636 8
  20860109.837    20860115.544    -5212177.671 8  15037582.760 7
  23900040.160    23900048.765     2378266.010 7  20711076.406 9
  20674480.739    20674486.621   -11221016.525 9  10343456.857 8
 86  6 18  2 23 59.0800000  0  4G12G 9G11G13
  21435124.038    21435130.175   -29854498.129 9  31471653.859 8
  20862831.734    20862837.676    -5197866.108 7  15048734.617 7
  23903202.346    23903209.689     2394878.911 6  20724021.501 8
  20675050.840    20675056.391   -11218024.163 9  10345788.563 9
 86  6 18  2 24  5.0800000  0  4G12G 9G11G13
  21432915.773    21432922.630   -29866101.153 9  31462612.551 9
  20865559.013    20865566.300    -5183532.010 8  15059904.037 8
  23906362.046    23906371.072     2411490.715 8  20736965.761 8
  20675623.726    20675629.084   -11215018.383 8  10348130.740 9
 86  6 18  2 24 11.0800000  0  4G12G 9G11G13
  21430712.304    21430718.349   -29877684.238 9  31453586.768 8
  20868293.492    20868299.299    -5169175.650 8  15071090.809 8
  23909524.054    23909532.250     2428101.449 6  20749909.182 9
  20676197.155    20676202.683   -11211999.260 9  10350483.293 7
 86  6 18  2 24 17.0800000  0  4G12G 9G11G13
  21428511.687    21428517.353   -29889247.386 9  31444576.512 8
  20871029.121    20871033.451    -5154796.938 7  15082294.993 8
  23912684.449    23912693.184     2444711.086 7  20762851.734 8
  20676774.898    20676779.858   -11208966.886 8  10352846.195 9
 86  6 18  2 24 23.0800000  0  4G12G 9G11G13
  21426314.195    21426321.730   -29900790.623 9  31435581.793 9
  20873768.932    20873774.906    -5140395.890 8  15093516.582 7
  23915843.794    23915852.981     2461319.622 6  20775793.445 9
  20677353.942    20677360.256   -11205921.170 8  10355219.469 8
 86  6 18  2 24 29.0800000  0  4G12G 9G11G13
  21424121.197    21424128.094   -29912313.964 9  31426602.562 8
  20876513.863    20876519.737    -5125972.620 8  15104755.493 7
  23919004.502    23919014.060     2477927.059 8  20788734.300 9
  20677934.245    20677942.498   -11202862.238 8  10357603.053 9
 86  6 18  2 24 35.0800000  0  4G12G 9G11G13
  21421932.253    21421938.556   -29923817.310 8  31417638.918 8
  20879263.117    20879269.063    -5111527.131 8  15116011.713 8
  23922164.461    23922174.512     2494533.310 7  20801674.234 9
  20678519.660    20678526.512   -11199790.116 7  10359996.915 8
 86  6 18  2 24 41.0800000  0  4G12G 9G11G13
  21419747.589    21419754.229   -29935300.731 9  31408690.797 8
  20882016.519    20882023.064    -5097059.347 7  15127285.302 7
  23925325.226    23925333.818     2511138.429 7  20814613.258 8
  20679106.967    20679114.620   -11196704.900 8  10362400.966 8
 86  6 18  2 24 47.0800000  0  4G12G 9G11G13
  21417566.566    21417571.905   -29946764.031 9  31399758.354 9
  20884774.154    20884780.759    -5082569.218 8  15138576.315 8
  23928485.688    23928494.710     2527742.447 7  20827551.454 8
  20679695.498    20679703.249   -11193606.374 8  10364815.408 9
 86  6 18  2 24 53.0800000  0  4G12G 9G11G13
  21415388.698    21415393.838   -29958207.251 9  31390841.557 9
  20887535.775    20887541.377    -5068056.845 8  15149884.649 8
  23931644.777    23931652.953     2544345.426 8  20840488.826 8
  20680288.604    20680294.287   -11190494.560 9  10367240.189 7
 86  6 18  2 24 59.0800000  0  4G12G 9G11G13
  21413215.319    21413222.059   -29969630.320 9  31381940.463 8
  20890301.883    20890307.529    -5053522.107 8  15161210.406 8
  23934805.496    23934812.390     2560947.243 8  20853425.301 8
  20680884.051    20680889.865   -11187369.545 8  10369675.277 8
 86  6 18  2 25  5.0800000  0  4G12G 9G11G13
  21411045.610    21411051.620   -29981033.238 9  31373055.089 9
  20893070.884    20893077.641    -5038965.204 8  15172553.460 8
  23937964.843    23937971.023     2577547.980 7  20866360.944 8
  20681480.698    20681486.385   -11184231.339 9  10372120.636 7
 86  6 18  2 25 11.0800000  0  4G12G 9G11G13
  21408879.446    21408884.656   -29992415.988 9  31364185.399 8
  20895844.664    20895852.193    -5024385.914 7  15183913.946 8
  23941122.917    23941129.601     2594147.630 7  20879295.729 8
  20682081.812    20682085.993   -11181079.861 9  10374576.332 8
 86  6 18  2 25 17.0800000  0  4G12G 9G11G13
  21406717.181    21406722.709   -30003778.575 9  31355331.443 9
  20898624.078    20898630.395    -5009784.337 8  15195291.788 7
  23944282.740    23944287.917     2610746.248 7  20892229.698 9
  20682681.814    20682689.022   -11177915.108 8  10377042.362 8
 86  6 18  2 25 23.0800000  0  4G12G 9G11G13
  21404558.477    21404564.430   -30015120.832 9  31346493.323 9
  20901406.269    20901413.375    -4995160.477 7  15206686.991 7
  23947439.234    23947447.407     2627343.884 8  20905162.905 8
  20683286.987    20683293.110   -11174737.023 9  10379518.807 8
 86  6 18  2 25 29.0800000  0  4G12G 9G11G13
  21402403.443    21402409.731   -30026442.858 9  31337670.969 8
  20904193.638    20904200.806    -4980514.338 8  15218099.564 8
  23950597.511    23950604.767     2643940.378 8  20918095.229 8
  20683893.271    20683900.203   -11171545.696 9  10382005.545 7
 86  6 18  2 25 35.0800000  0  4G12G 9G11G13
  21400252.682    21400258.361   -30037744.708 9  31328864.326 8
  20906985.164    20906992.600    -4965846.093 8  15229529.359 8
  23953755.905    23953762.949     2660535.670 8  20931026.624 8
  20684503.640    20684510.713   -11168341.329 8  10384502.448 8
 86  6 18  2 25 41.0800000  0  4G12G 9G11G13
  21398106.036    21398112.690   -30049026.288 9  31320073.488 8
  20909781.523    20909786.055    -4951155.832 8  15240976.315 8
  23956914.267    23956920.867     2677129.783 7  20943957.083 9
  20685116.717    20685122.707   -11165123.857 8  10387009.567 8
 86  6 18  2 25 47.0800000  0  4G12G 9G11G13
  21395963.006    21395968.563   -30060287.642 9  31311298.410 9
  20912580.973    20912586.037    -4936443.518 8  15252440.458 8
  23960069.547    23960078.397     2693722.608 8  20956886.547 8
  20685730.456    20685737.858   -11161893.355 8  10389526.840 9
 86  6 18  2 25 53.0800000  0  4G12G 9G11G13
  21393823.597    21393831.365   -30071528.778 9  31302539.077 9
  20915384.714    20915390.622    -4921709.021 8  15263921.868 7
  23963227.922    23963236.158     2710314.087 9  20969814.970 9
  20686348.447    20686354.584   -11158649.910 9  10392054.197 8
 86  6 18  2 25 59.0800000  0  4G12G 9G11G13
  21391689.556    21391694.338   -30082749.659 9  31293795.532 8
  20918193.180    20918198.035    -4906952.547 7  15275420.432 8
  23966383.669    23966392.104     2726904.320 8  20982742.417 8
  20686968.596    20686974.842   -11155393.452 8  10394591.699 8
 86  6 18  2 26  5.0800000  0  4G12G 9G11G13
  21389557.903    21389564.052   -30093950.240 9  31285067.797 8
  20921003.854    20921010.445    -4892174.086 8  15286936.111 7
  23969541.078    23969549.293     2743493.332 8  20995668.908 8
  20687590.463    20687596.851   -11152123.868 8  10397139.422 8
 86  6 18  2 26 11.0800000  0  4G12G 9G11G13
  21387429.795    21387435.768   -30105130.473 9  31276355.929 9
  20923819.776    20923827.447    -4877373.537 8  15298469.015 8
  23972697.933    23972706.187     2760081.029 8  21008594.371 8
  20688215.127    20688221.636   -11148841.236 8  10399697.329 8
 86  6 18  2 26 17.0800000  0  4G12G 9G11G13
  21385306.305    21385312.399   -30116290.464 9  31267659.835 9
  20926641.984    20926648.526    -4862550.915 8  15310019.103 7
  23975854.829    23975862.178     2776667.468 8  21021518.870 8
  20688842.156    20688847.429   -11145545.634 8  10402265.322 8
 86  6 18  2 26 23.0800000  0  4G12G 9G11G13
  21383186.853    21383192.430   -30127430.158 9  31258979.546 8
  20929465.468    20929472.445    -4847706.296 8  15321586.328 8
  23979010.653    23979018.984     2793252.669 7  21034442.392 8
  20689470.936    20689477.732   -11142237.031 8  10404843.460 9
 86  6 18  2 26 29.0800000  0  4G12G 9G11G13
  21381070.345    21381077.034   -30138549.321 9  31250315.264 9
  20932294.681    20932301.773    -4832839.714 8  15333170.691 7
  23982167.224    23982174.196     2809836.721 7  21047365.035 9
  20690104.006    20690109.287   -11138915.389 8  10407431.756 7
 86  6 18  2 26 35.0800000  0  4G12G 9G11G13
  21378958.222    21378965.148   -30149648.016 8  31241666.929 8
  20935126.274    20935134.496    -4817951.076 8  15344772.224 6
  23985323.545    23985330.278     2826419.569 8  21060286.733 7
  20690738.344    20690743.499   -11135580.782 9  10410030.151 7
 86  6 18  2 26 41.0800000  0  4G12G 9G11G13
  21376850.195    21376856.353   -30160726.234 9  31233034.561 8
  20937964.814    20937972.233    -4803040.484 8  15356390.848 8
  23988477.071    23988485.477     2843001.176 8  21073207.448 8
  20691375.498    20691380.797   -11132233.206 8  10412638.662 7
 86  6 18  2 26 47.0800000  0  4G12G 9G11G13
  21374745.662    21374752.040   -30171784.008 8  31224418.118 8
  20940806.161    20940814.583    -4788107.974 8  15368026.563 8
  23991633.079    23991639.982     2859581.423 8  21086127.090 8
  20692015.634    20692021.419   -11128872.653 8  10415257.268 8
 86  6 18  2 26 53.0800000  0  4G12G 9G11G13
  21372644.580    21372652.497   -30182821.369 8  31215817.586 9
  20943653.396    20943659.622    -4773153.621 8  15379679.301 7
  23994787.910    23994795.289     2876160.344 8  21099045.742 7
  20692658.234    20692663.306   -11125499.232 9  10417885.916 8
 86  6 18  2 26 59.0800000  0  4G12G 9G11G13
  21370548.656    21370557.104   -30193838.267 9  31207232.984 8
  20946503.647    20946510.039    -4758177.239 7  15391349.206 7
  23997942.219    23997949.387     2892737.983 8  21111963.375 8
  20693301.400    20693307.300   -11122112.869 8  10420524.633 8
 86  6 18  2 27  5.0800000  0  4G12G 9G11G13
  21368456.223    21368464.471   -30204834.535 9  31198664.466 8
  20949355.839    20949362.249    -4743178.955 8  15403036.182 7
  24001096.121    24001104.826     2909314.367 8  21124880.068 7
  20693947.893    20693955.014   -11118713.494 8  10423173.495 8
 86  6 18  2 27 11.0800000  0  4G12G 9G11G13
  21366367.678    21366375.149   -30215810.212 8  31190111.998 9
  20952213.844    20952222.297    -4728158.723 7  15414740.254 7
  24004251.049    24004258.801     2925889.477 9  21137795.693 9
  20694598.974    20694604.251   -11115301.220 8  10425832.399 8
 86  6 18  2 27 17.0800000  0  4G12G 9G11G13
  21364283.595    21364291.421   -30226765.252 9  31181575.601 9
  20955078.400    20955084.115    -4713116.689 8  15426461.314 7
  24007404.536    24007412.338     2942463.197 8  21150710.307 7
  20695249.522    20695256.137   -11111875.988 8  10428501.426 8
 86  6 18  2 27 23.0800000  0  4G12G 9G11G13
  21362202.803    21362209.952   -30237699.719 9  31173055.236 8
  20957945.252    20957948.943    -4698052.752 8  15438199.440 7
  24010558.835    24010566.341     2959035.630 8  21163623.889 7
  20695904.545    20695911.659   -11108437.860 8  10431180.490 7
 86  6 18  2 27 29.0800000  0  4G12G 9G11G13
  21360126.727    21360133.825   -30248613.507 9  31164550.989 9
  20960814.072    20960821.086    -4682966.869 8  15449954.675 8
  24013712.125    24013719.581     2975606.795 9  21176536.488 7
  20696560.702    20696568.261   -11104986.780 8  10433869.629 8
 86  6 18  2 27 35.0800000  0  4G12G 9G11G13
  21358053.707    21358059.826   -30259506.581 9  31156062.870 8
  20963689.587    20963695.579    -4667859.133 7  15461726.930 8
  24016864.801    24016871.995     2992176.664 9  21189448.032 8
  20697219.268    20697225.740   -11101522.808 9  10436568.838 7
 86  6 18  2 27 41.0800000  0  4G12G 9G11G13
  21355985.119    21355989.415   -30270378.904 8  31147590.925 8
  20966570.136    20966575.369    -4652729.520 8  15473516.241 7
  24020018.366    24020024.668     3008745.268 8  21202358.644 7
  20697881.312    20697887.466   -11098045.892 8  10439278.121 8
 86  6 18  2 27 47.0800000  0  4G12G 9G11G13
  21353918.919    21353925.659   -30281230.419 8  31139135.182 8
  20969453.872    20969458.917    -4637578.023 8  15485322.599 8
  24023170.986    24023177.580     3025312.577 9  21215268.226 8
  20698544.837    20698551.349   -11094556.052 9  10441997.473 8
 86  6 18  2 27 53.0800000  0  4G12G 9G11G13
  21351858.090    21351863.658   -30292061.256 8  31130695.578 8
  20972340.663    20972345.553    -4622404.901 8  15497145.814 8
  24026323.492    24026330.386     3041878.520 8  21228176.749 8
  20699212.136    20699217.870   -11091053.487 8  10444726.749 9
 86  6 18  2 27 59.0800000  0  4G12G 9G11G13
  21349800.282    21349807.273   -30302871.394 8  31122272.089 9
  20975232.090    20975237.107    -4607209.907 8  15508986.051 7
  24029475.655    24029482.296     3058443.027 9  21241084.151 7
  20699880.225    20699886.597   -11087538.167 8  10447465.949 8
 86  6 18  2 28  5.0800000  0  4G12G 9G11G13
  21347746.649    21347753.847   -30313660.820 9  31113864.745 9
  20978126.271    20978133.357    -4591993.293 8  15520843.143 8
  24032626.806    24032633.651     3075006.060 9  21253990.425 8
  20700551.492    20700558.196   -11084010.134 8  10450215.075 9
 86  6 18  2 28 11.0800000  0  4G12G 9G11G13
  21345698.279    21345704.802   -30324429.463 8  31105473.591 8
  20981027.542    20981033.591    -4576754.923 8  15532717.197 7
  24035778.949    24035785.024     3091567.713 9  21266895.611 8
  20701225.346    20701231.924   -11080469.403 9  10452974.085 8
 86  6 18  2 28 17.0800000  0  4G12G 9G11G13
  21343653.937    21343659.365   -30335177.381 9  31097098.592 9
  20983931.764    20983936.367    -4561494.944 7  15544608.079 8
  24038930.062    24038936.817     3108127.953 9  21279799.701 8
  20701902.002    20701908.841   -11076915.911 8  10455743.025 8
 86  6 18  2 28 23.0800000  0  4G12G 9G11G13
  21341612.473    21341618.712   -30345904.616 8  31088739.721 8
  20986838.987    20986844.897    -4546213.411 8  15556515.765 7
  24042081.156    24042086.848     3124686.675 9  21292702.605 8
  20702579.688    20702587.119   -11073349.802 9  10458521.820 8
 86  6 18  2 28 29.0800000  0  4G12G 9G11G13
  21339575.467    21339580.878   -30356611.211 8  31080396.911 9
  20989752.426    20989757.152    -4530910.388 8  15568440.213 8
  24045231.602    24045238.485     3141243.766 9  21305604.239 8
  20703260.863    20703268.179   -11069771.060 8  10461310.448 8
 86  6 18  2 28 35.0800000  0  4G12G 9G11G13
  21337541.794    21337547.482   -30367297.097 9  31072070.231 8
  20992667.665    20992673.300    -4515585.942 8  15580381.322 8
  24048382.515    24048387.788     3157799.209 9  21318504.577 7
  20703945.003    20703951.741   -11066179.759 8  10464108.869 8
 86  6 18  2 28 41.0800000  0  4G12G 9G11G13
  21335511.880    21335518.925   -30377962.402 9  31063759.605 8
  20995586.515    20995592.748    -4500240.050 7  15592339.152 7
  24051532.272    24051538.705     3174353.009 8  21331403.653 7
  20704630.430    20704637.202   -11062576.025 9  10466916.974 8
 86  6 18  2 28 47.0800000  0  4G12G 9G11G13
  21333486.417    21333492.485   -30388606.927 8  31055465.162 9
  20998511.477    20998518.341    -4484872.707 7  15604313.709 7
  24054681.049    24054688.724     3190905.269 8  21344301.515 8
  20705319.157    20705325.074   -11058959.729 9  10469734.863 8
 86  6 18  2 28 53.0800000  0  4G12G 9G11G13
  21331465.399    21331472.040   -30399230.608 9  31047186.973 8
  21001440.599    21001446.349    -4469483.831 8  15616305.031 8
  24057831.731    24057838.397     3207456.028 9  21357198.213 7
  20706009.945    20706016.855   -11055330.797 9  10472562.592 8
 86  6 18  2 28 59.0800000  0  4G12G 9G11G13
  21329447.154    21329453.331   -30409833.269 9  31038925.153 8
  21004372.497    21004378.397    -4454073.317 7  15628313.228 7
  24060980.545    24060987.516     3224005.302 9  21370093.749 8
  20706701.531    20706708.801   -11051689.257 8  10475400.164 8
 86  6 18  2 29  5.0800000  0  4G12G 9G11G13
  21327433.749    21327440.098   -30420414.930 9  31030679.708 9
  21007309.084    21007315.988    -4438641.247 8  15640338.197 8
  24064130.075    24064137.275     3240553.142 8  21382988.170 7
  20707397.759    20707404.365   -11048035.063 8  10478247.580 9
 86  6 18  2 29 11.0800000  0  4G12G 9G11G13
  21325424.518    21325430.449   -30430975.649 8  31022450.567 9
  21010251.115    21010255.298    -4423187.616 8  15652379.981 8
  24067277.847    24067284.904     3257099.521 9  21395881.451 9
  20708094.459    20708102.362   -11044368.290 9  10481104.794 8
 86  6 18  2 29 17.0800000  0  4G12G 9G11G13
  21323418.020    21323424.949   -30441515.383 8  31014237.786 9
  21013196.000    21013201.403    -4407712.539 8  15664438.485 8
  24070426.442    24070433.241     3273644.444 8  21408773.583 8
  20708794.803    20708802.974   -11040688.785 8  10483971.949 7
 86  6 18  2 29 23.0800000  0  4G12G 9G11G13
  21321416.710    21321423.228   -30452034.058 8  31006041.419 9
  21016143.979    21016149.012    -4392215.900 8  15676513.779 7
  24073574.623    24073581.696     3290187.940 8  21421664.606 8
  20709498.116    20709504.543   -11036996.644 9  10486848.939 9
 86  6 18  2 29 29.0800000  0  4G12G 9G11G13
  21319418.744    21319425.503   -30462531.667 8  30997861.462 9
  21019097.165    21019103.412    -4376697.714 8  15688605.875 7
  24076721.885    24076728.698     3306730.075 8  21434554.585 8
  20710204.058    20710210.099   -11033291.890 9  10489735.764 7
 86  6 18  2 29 35.0800000  0  4G12G 9G11G13
  21317424.665    21317431.784   -30473008.168 9  30989697.961 9
  21022053.649    21022059.805    -4361157.961 9  15700714.763 8
  24079869.585    24079876.974     3323270.718 8  21447443.388 8
  20710910.688    20710916.871   -11029574.522 9  10492632.413 8
 86  6 18  2 29 41.0800000  0  4G12G 9G11G13
  21315435.148    21315441.920   -30483463.542 8  30981550.909 9
  21025015.822    21025020.236    -4345596.759 8  15712840.394 8
  24083017.308    24083024.437     3339809.878 8  21460331.030 8
  20711620.364    20711627.752   -11025844.620 8  10495538.836 8
 86  6 18  2 29 47.0800000  0  4G12G 9G11G13
  21313450.021    21313456.455   -30493897.776 9  30973420.334 8
  21027980.916    21027986.490    -4330014.081 8  15724982.731 8
  24086164.652    24086171.041     3356347.492 7  21473217.480 8
  20712332.811    20712339.743   -11022102.138 9  10498455.052 8
 86  6 18  2 29 53.0800000  0  4G12G 9G11G13
  21311469.164    21311475.271   -30504310.901 9  30965306.211 8
  21030950.639    21030955.403    -4314410.029 8  15737141.735 8
  24089310.053    24089318.389     3372883.584 8  21486102.742 8
  20713047.199    20713054.664   -11018347.156 9  10501381.009 8
 86  6 18  2 29 59.0800000  0  4G12G 9G11G13
  21309491.627    21309497.119   -30514702.871 9  30957208.577 9
  21033923.236    21033928.464    -4298784.486 8  15749317.481 7
  24092457.715    24092464.729     3389418.176 8  21498986.833 8
  20713764.737    20713770.616   -11014579.671 8  10504316.700 8
 86  6 18  2 30  5.0800000  0  4G12G 9G11G13
  21307517.564    21307523.243   -30525073.696 9  30949127.407 9
  21036900.861    21036907.009    -4283137.717 8  15761509.766 7
  24095601.985    24095611.921     3405951.156 8  21511869.666 8
  20714483.977    20714489.991   -11010799.643 8  10507262.176 8
 86  6 18  2 30 11.0800000  0  4G12G 9G11G13
  21305548.390    21305553.956   -30535423.386 9  30941062.698 9
  21039882.552    21039887.770    -4267469.607 8  15773718.670 8
  24098749.607    24098756.910     3422482.463 9  21524751.213 8
  20715206.428    20715211.780   -11007007.229 8  10510217.303 8
 86  6 18  2 30 17.0800000  0  4G12G 9G11G13
  21303582.144    21303588.636   -30545751.975 8  30933014.447 8
  21042867.503    21042873.368    -4251780.182 9  15785944.183 8
  24101895.122    24101902.525     3439012.141 7  21537631.488 7
  20715929.772    20715935.699   -11003202.510 8  10513182.013 8
 86  6 18  2 30 23.0800000  0  4G12G 9G11G13
  21301619.854    21301627.704   -30556059.393 9  30924982.691 9
  21045857.155    21045863.802    -4236069.616 9  15798186.197 8
  24105041.078    24105047.320     3455540.159 9  21550510.473 8
  20716655.056    20716663.064   -10999385.455 8  10516156.353 8
 86  6 18  2 30 29.0800000  0  4G12G 9G11G13
  21299663.427    21299669.788   -30566345.685 9  30916967.398 9
  21048851.207    21048856.807    -4220337.841 8  15810444.709 9
  24108185.286    24108192.971     3472066.465 8  21563388.104 8
  20717384.833    20717391.471   -10995555.986 9  10519140.352 9
 86  6 18  2 30 35.0800000  0  4G12G 9G11G13
  21297710.013    21297716.926   -30576610.716 8  30908968.664 8
  21051848.412    21051853.351    -4204584.735 8  15822719.843 8
  24111329.365    24111336.592     3488591.216 8  21576264.528 8
  20718116.012    20718122.059   -10991714.110 8  10522134.022 8
 86  6 18  2 30 41.0800000  0  4G12G 9G11G13
  21295760.271    21295766.773   -30586854.429 9  30900986.552 9
  21054851.683    21054855.254    -4188810.374 8  15835011.566 7
  24114474.117    24114481.120     3505114.420 8  21589139.754 9
  20718849.322    20718856.142   -10987859.772 8  10525137.392 8
 86  6 18  2 30 47.0800000  0  4G12G 9G11G13
  21293815.128    21293822.861   -30597076.875 8  30893021.006 9
  21057857.067    21057862.487    -4173014.689 9  15847319.890 8
  24117618.476    24117624.957     3521635.983 9  21602013.693 8
  20719584.411    20719591.246   -10983993.053 9  10528150.423 8
 86  6 18  2 30 53.0800000  0  4G12G 9G11G13
  21291874.139    21291881.152   -30607277.995 8  30885072.093 9
  21060866.748    21060871.950    -4157197.863 8  15859644.681 8
  24120761.534    24120768.203     3538155.905 9  21614886.360 8
  20720322.315    20720329.090   -10980113.892 8  10531173.157 8
 86  6 18  2 30 59.0800000  0  4G12G 9G11G13
  21289936.348    21289944.308   -30617457.807 9  30877139.762 9
  21063881.010    21063888.213    -4141359.785 8  15871986.039 8
  24123904.946    24123911.907     3554674.206 9  21627757.755 7
  20721063.322    20721069.711   -10976222.409 7  10534205.469 8
 86  6 18  2 31  5.0800000  0  4G12G 9G11G13
  21288003.674    21288010.126   -30627616.225 8  30869224.118 9
  21066897.211    21066904.276    -4125500.551 9  15884343.879 8
  24127048.008    24127054.489     3571190.838 8  21640627.869 8
  20721805.726    20721812.405   -10972318.639 8  10537247.379 8
 86  6 18  2 31 11.0800000  0  4G12G 9G11G13
  21286073.293    21286081.036   -30637753.435 9  30861324.996 9
  21069920.121    21069925.990    -4109620.189 8  15896718.182 8
  24130190.462    24130197.706     3587705.758 9  21653496.637 7
  20722550.941    20722556.459   -10968402.584 8  10540298.841 7
 86  6 18  2 31 17.0800000  0  4G12G 9G11G13
  21284149.742    21284156.985   -30647869.308 8  30853442.500 9
  21072945.192    21072952.807    -4093718.818 7  15909108.863 8
  24133333.333    24133338.765     3604218.959 8  21666364.065 8
  20723298.565    20723304.653   -10964474.282 8  10543359.857 7
 86  6 18  2 31 23.0800000  0  4G12G 9G11G13
  21282229.983    21282235.814   -30657963.902 9  30845576.577 9
  21075974.674    21075982.463    -4077796.464 8  15921515.868 9
  24136474.684    24136482.644     3620730.348 9  21679230.084 7
  20724048.375    20724054.832   -10960533.865 8  10546430.316 8
 86  6 18  2 31 29.0800000  0  4G12G 9G11G13
  21280312.437    21280319.564   -30668037.161 9  30837727.275 9
  21079009.657    21079015.558    -4061853.129 9  15933939.240 8
  24139615.568    24139623.391     3637239.995 8  21692094.730 8
  20724801.047    20724806.780   -10956581.256 8  10549510.273 9
 86  6 18  2 31 35.0800000  0  4G12G 9G11G13
  21278399.980    21278405.776   -30678089.154 8  30829894.550 9
  21082047.154    21082053.943    -4045888.743 7  15946379.024 8
  24142758.272    24142763.756     3653747.875 8  21704958.014 8
  20725555.232    20725560.485   -10952616.440 9  10552599.737 8
 86  6 18  2 31 41.0800000  0  4G12G 9G11G13
  21276489.866    21276496.753   -30688119.688 9  30822078.547 8
  21085088.912    21085096.101    -4029903.330 7  15958835.183 8
  24145899.516    24145905.702     3670254.041 8  21717819.970 8
  20726312.131    20726317.350   -10948639.415 8  10555698.713 8
 86  6 18  2 31 47.0800000  0  4G12G 9G11G13
  21274585.951    21274592.066   -30698128.766 8  30814279.264 8
  21088135.479    21088140.701    -4013896.808 7  15971307.798 7
  24149040.276    24149047.571     3686758.555 8  21730680.622 9
  20727070.373    20727077.288   -10944650.055 8  10558807.307 8
 86  6 18  2 31 53.0800000  0  4G12G 9G11G13
  21272685.180    21272691.794   -30708116.334 9  30806496.742 8
  21091186.141    21091190.813    -3997869.203 8  15983796.837 8
  24152180.290    24152187.529     3703261.352 8  21743539.935 8
  20727832.910    20727839.504   -10940648.431 8  10561925.452 8
 86  6 18  2 31 59.0800000  0  4G12G 9G11G13
  21270788.578    21270795.330   -30718082.247 9  30798731.097 8
  21094240.327    21094245.129    -3981820.502 8  15996302.329 9
  24155320.855    24155326.833     3719762.493 8  21756397.962 7
  20728596.053    20728602.733   -10936634.562 8  10565053.157 8
 86  6 18  2 32  5.0800000  0  4G12G 9G11G13
  21268897.056    21268902.761   -30728026.481 9  30790982.340 8
  21097298.117    21097303.158    -3965750.872 8  16008824.101 7
  24158460.319    24158466.861     3736262.029 9  21769254.756 7
  20729362.565    20729369.151   -10932608.401 8  10568190.421 8
 86  6 18  2 32 11.0800000  0  4G12G 9G11G13
  21267007.805    21267014.194   -30737949.081 8  30783250.431 8
  21100359.621    21100365.886    -3949660.144 8  16021362.342 7
  24161600.358    24161605.436     3752759.900 7  21782110.226 8
  20730130.885    20730138.189   -10928569.996 8  10571337.222 8
 86  6 18  2 32 17.0800000  0  4G12G 9G11G13
  21265123.533    21265130.971   -30747850.090 9  30775535.371 8
  21103424.850    21103431.841    -3933548.480 8  16033916.874 8
  24164739.088    24164745.404     3769256.043 7  21794964.361 8
  20730901.175    20730908.162   -10924519.419 8  10574493.523 7
 86  6 18  2 32 23.0800000  0  4G12G 9G11G13
  21263244.058    21263251.124   -30757729.448 9  30767837.157 9
  21106496.829    21106501.167    -3917415.816 7  16046487.774 8
  24167877.283    24167884.860     3785750.486 9  21807817.167 7
  20731675.095    20731680.956   -10920456.733 8  10577659.255 8
 86  6 18  2 32 29.0800000  0  4G12G 9G11G13
  21261367.203    21261375.515   -30767587.206 9  30760155.791 8
  21109569.643    21109575.920    -3901262.358 9  16059074.873 7
  24171014.882    24171022.773     3802243.137 8  21820668.582 8
  20732450.343    20732457.841   -10916382.041 8  10580834.340 9
 86  6 18  2 32 35.0800000  0  4G12G 9G11G13
  21259496.181    21259503.434   -30777423.364 9  30752491.243 8
  21112645.948    21112652.327    -3885088.063 8  16071678.214 8
  24174154.053    24174159.841     3818733.944 7  21833518.562 9
  20733228.954    20733234.636   -10912295.334 8  10584018.793 8
 86  6 18  2 32 41.0800000  0  4G12G 9G11G13
  21257629.673    21257635.111   -30787237.936 9  30744843.526 9
  21115728.319    21115734.495    -3868892.929 7  16084297.789 8
  24177290.893    24177298.801     3835222.976 8  21846367.141 8
  20734009.034    20734014.910   -10908196.614 9  10587212.606 8
 86  6 18  2 32 47.0800000  0  4G12G 9G11G13
  21255766.085    21255772.092   -30797030.861 8  30737212.673 9
  21118813.836    21118820.746    -3852676.946 8  16096933.609 8
  24180428.826    24180436.441     3851710.213 7  21859214.341 8
  20734790.994    20734796.690   -10904085.803 8  10590415.839 8
 86  6 18  2 32 53.0800000  0  4G12G 9G11G13
  21253906.918    21253912.625   -30806802.080 9  30729598.737 8
  21121904.713    21121910.797    -3836440.052 7  16109585.731 7
  24183564.657    24183572.835     3868195.655 8  21872060.141 8
  20735575.487    20735581.194   -10899962.875 9  10593628.510 9
 86  6 18  2 32 59.0800000  0  4G12G 9G11G13
  21252051.058    21252057.018   -30816551.610 9  30722001.689 9
  21124998.985    21125004.411    -3820182.409 8  16122254.029 8
  24186703.175    24186711.057     3884679.298 8  21884904.547 8
  20736362.550    20736368.275   -10895827.864 8  10596850.592 8
 86  6 18  2 33  5.0800000  0  4G12G 9G11G13
  21250200.226    21250205.808   -30826279.439 8  30714421.570 8
  21128096.097    21128101.585    -3803904.028 8  16134938.478 8
  24189838.629    24189846.617     3901161.134 8  21897747.538 8
  20737151.499    20737157.260   -10891680.781 7  10600082.104 8
 86  6 18  2 33 11.0800000  0  4G12G 9G11G13
  21248352.981    21248359.313   -30835985.538 8  30706858.373 8
  21131198.213    21131202.943    -3787604.852 8  16147639.129 8
  24192974.925    24192983.497     3917641.144 8  21910589.102 8
  20737942.396    20737948.798   -10887521.672 8  10603322.969 8
 86  6 18  2 33 17.0800000  0  4G12G 9G11G13
  21246509.724    21246516.995   -30845669.865 8  30699312.136 9
  21134303.876    21134309.452    -3771284.930 8  16160355.952 9
  24196111.402    24196118.619     3934119.328 7  21923429.236 7
  20738736.588    20738741.711   -10883350.567 9  10606573.186 9
 86  6 18  2 33 23.0800000  0  4G12G 9G11G13
  21244669.901    21244677.749   -30855332.462 9  30691782.856 8
  21137412.353    21137419.184    -3754944.332 9  16173088.873 8
  24199246.535    24199254.653     3950595.697 7  21936267.972 8
  20739533.108    20739538.110   -10879167.503 8  10609832.726 8
 86  6 18  2 33 29.0800000  0  4G12G 9G11G13
  21242835.791    21242842.853   -30864973.221 8  30684270.580 9
  21140526.431    21140532.575    -3738583.081 8  16185837.902 8
  24202380.762    24202389.648     3967070.208 7  21949105.259 8
  20740330.666    20740336.866   -10874972.471 9  10613101.596 8
 86  6 18  2 33 35.0800000  0  4G12G 9G11G13
  21241005.766    21241011.965   -30874592.037 9  30676775.396 8
  21143643.316    21143649.425    -3722201.031 8  16198603.123 8
  24205515.530    24205523.161     3983542.946 7  21961941.149 9
  20741131.356    20741138.221   -10870765.385 8  10616379.839 8
 86  6 18  2 33 41.0800000  0  4G12G 9G11G13
  21239180.067    21239186.665   -30884188.983 8  30669297.252 9
  21146765.182    21146771.455    -3705798.309 7  16211384.468 8
  24208649.636    24208658.130     4000013.825 7  21974775.606 8
  20741933.933    20741940.754   -10866546.308 9  10619667.429 8
 86  6 18  2 33 47.0800000  0  4G12G 9G11G13
  21237357.314    21237363.866   -30893763.994 8  30661836.212 8
  21149888.643    21149896.108    -3689374.900 8  16224181.924 8
  24211782.040    24211791.074     4016482.866 5  21987608.618 9
  20742739.083    20742745.927   -10862315.299 8  10622964.322 8
 86  6 18  2 33 53.0800000  0  4G12G 9G11G13
  21235539.073    21235545.634   -30903317.094 9  30654392.236 8
  21153018.636    21153025.203    -3672930.787 8  16236995.516 8
  24214915.730    24214924.729     4032950.124 5  22000440.232 9
  20743546.954    20743552.976   -10858072.239 9  10626270.598 9
 86  6 18  2 33 59.0800000  0  4G12G 9G11G13
  21233726.654    21233731.555   -30912848.321 9  30646965.316 8
  21156151.549    21156159.445    -3656466.014 9  16249825.194 8
  24218051.558    24218056.337     4049415.508 6  22013270.401 7
  20744356.250    20744363.643   -10853817.280 8  10629586.147 8
 86  6 18  2 34  5.0800000  0  4G12G 9G11G13
  21231918.110    21231922.318   -30922357.604 9  30639555.485 9
  21159289.553    21159297.156    -3639980.669 8  16262670.919 8
  24221182.518    24221191.128     4065879.069 6  22026099.153 8
  20745167.616    20745175.249   -10849550.397 8  10632910.998 8
 86  6 18  2 34 11.0800000  0  4G12G 9G11G13
  21230111.894    21230117.548   -30931844.973 9  30632162.715 8
  21162431.197    21162437.617    -3623474.663 8  16275532.740 7
  24224314.386    24224323.191     4082340.790 4  22038926.438 8
  20745981.978    20745989.408   -10845271.649 9  10636245.081 7
 86  6 18  2 34 17.0800000  0  4G12G 9G11G13
  21228310.809    21228316.383   -30941310.438 9  30624787.028 9
  21165574.981    21165581.814    -3606948.157 8  16288410.531 8
  24227447.229    24227456.097     4098800.535 6  22051752.225 7
  20746799.218    20746805.885   -10840981.148 8  10639588.327 9
 86  6 18  2 34 23.0800000  0  4G12G 9G11G13
  21226513.736    21226519.864   -30950753.942 9  30617428.462 9
  21168724.260    21168730.478    -3590401.179 8  16301304.272 8
  24230578.659    24230588.172     4115258.330 5  22064576.469 8
  20747617.443    20747623.844   -10836678.933 8  10642940.717 9
 86  6 18  2 34 29.0800000  0  4G12G 9G11G13
  21224720.371    21224727.363   -30960175.484 9  30610086.992 9
  21171877.347    21171884.645    -3573833.827 8  16314213.901 8
  24233708.817    24233718.696     4131714.118 5  22077399.165 8
  20748439.249    20748444.923   -10832364.996 8  10646302.219 8
 86  6 18  2 34 35.0800000  0  4G12G 9G11G13
  21222932.072    21222938.618   -30969575.065 8  30602762.644 8
  21175032.350    21175039.786    -3557246.044 8  16327139.442 8
  24236839.945    24236849.127     4148167.921 5  22090220.294 7
  20749261.069    20749268.473   -10828039.292 8  10649672.893 9
 86  6 18  2 34 41.0800000  0  4G12G 9G11G13
  21221148.189    21221153.843   -30978952.808 8  30595455.310 9
  21178194.538    21178200.459    -3540637.918 7  16340080.823 8
  24239972.603    24239981.063     4164619.628 5  22103039.794 8
  20750087.356    20750092.969   -10823701.860 8  10653052.710 7
 86  6 18  2 34 47.0800000  0  4G12G 9G11G13
  21219367.624    21219372.998   -30988308.615 8  30588165.070 8
  21181358.762    21181364.819    -3524009.386 8  16353038.110 7
  24243102.273    24243111.491     4181069.248 4  22115857.656 8
  20750914.550    20750920.716   -10819352.768 9  10656441.609 8
 86  6 18  2 34 53.0800000  0  4G12G 9G11G13
  21217590.103    21217597.416   -30997642.645 8  30580891.807 8
  21184527.211    21184533.030    -3507360.736 8  16366011.093 8
  24246233.050    24246240.966     4197516.738 5  22128673.866 8
  20751744.217    20751749.459   -10814992.202 9  10659839.459 8
 86  6 18  2 34 59.0800000  0  4G12G 9G11G13
  21215818.543    21215825.034   -31006954.775 9  30573635.593 8
  21187698.959    21187704.112    -3490691.909 9  16378999.771 8
  24249362.664    24249370.389     4213962.082 5  22141488.393 8
  20752576.789    20752582.208   -10810620.080 8  10663246.305 8
 86  6 18  2 35  5.0800000  0  4G12G 9G11G13
  21214050.420    21214056.513   -31016244.941 8  30566396.504 8
  21190875.201    21190880.129    -3474002.739 7  16392004.334 7
  24252492.713    24252500.061     4230405.297 6  22154301.281 8
  20753410.325    20753415.598   -10806236.337 9  10666662.220 8
 86  6 18  2 35 11.0800000  0  4G12G 9G11G13
  21212287.028    21212293.374   -31025513.095 9  30559174.565 8
  21194053.589    21194059.588    -3457293.258 8  16405024.690 8
  24255621.269    24255628.076     4246846.436 7  22167112.542 8
  20754247.158    20754253.910   -10801840.957 9  10670087.187 8
 86  6 18  2 35 17.0800000  0  4G12G 9G11G13
  21210527.545    21210534.001   -31034759.088 8  30551969.905 8
  21197236.090    21197243.097    -3440563.472 8  16418060.885 8
  24258751.055    24258755.795     4263285.574 7  22179922.249 8
  20755084.810    20755091.600   -10797433.962 8  10673521.208 8
 86  6 18  2 35 23.0800000  0  4G12G 9G11G13
  21208771.774    21208777.958   -31043982.911 9  30544782.506 9
  21200423.319    21200430.010    -3423813.373 8  16431112.898 9
  24261877.921    24261884.089     4279722.719 7  22192730.433 7
  20755925.475    20755933.066   -10793015.216 9  10676964.377 8
 86  6 18  2 35 29.0800000  0  4G12G 9G11G13
  21207020.155    21207026.744   -31053184.467 9  30537612.467 8
  21203615.923    21203621.175    -3407042.986 8  16444180.727 8
  24265005.089    24265011.599     4296158.002 8  22205537.139 8
  20756769.059    20756775.047   -10788584.733 9  10680416.710 8
 86  6 18  2 35 35.0800000  0  4G12G 9G11G13
  21205274.179    21205280.392   -31062363.713 8  30530459.810 8
  21206809.716    21206816.746    -3390252.182 8  16457264.464 8
  24268131.684    24268139.582     4312591.362 9  22218342.380 7
  20757613.862    20757621.195   -10784142.521 8  10683878.174 8
 86  6 18  2 35 41.0800000  0  4G12G 9G11G13
  21203532.132    21203538.123   -31071520.605 8  30523324.570 9
  21210010.274    21210015.821    -3373440.905 7  16470364.157 7
  24271259.465    24271266.264     4329022.911 9  22231146.179 8
  20758461.967    20758468.935   -10779688.482 7  10687348.850 8
 86  6 18  2 35 47.0800000  0  4G12G 9G11G13
  21201793.507    21201799.748   -31080655.188 8  30516206.714 8
  21213211.501    21213218.161    -3356609.302 8  16483479.682 7
  24274386.343    24274392.317     4345452.488 8  22243948.454 7
  20759312.563    20759319.347   -10775222.671 8  10690828.706 8
 86  6 18  2 35 53.0800000  0  4G12G 9G11G13
  21200060.116    21200066.705   -31089767.512 9  30509106.196 9
  21216419.673    21216424.250    -3339757.380 8  16496611.044 8
  24277512.361    24277517.709     4361880.104 8  22256749.193 8
  20760164.527    20760170.623   -10770745.147 8  10694317.693 9
 86  6 18  2 35 59.0800000  0  4G12G 9G11G13
  21198329.868    21198336.505   -31098857.580 9  30502023.031 8
  21219630.489    21219636.065    -3322885.167 8  16509758.213 8
  24280637.141    24280644.061     4378305.788 8  22269548.441 8
  20761018.471    20761025.585   -10766256.006 8  10697815.720 8
 86  6 18  2 36  5.0800000  0  4G12G 9G11G13
  21196604.515    21196610.091   -31107925.260 9  30494957.308 9
  21222844.849    21222850.567    -3305992.739 8  16522921.147 8
  24283762.869    24283768.902     4394729.463 9  22282346.119 8
  20761875.654    20761881.305   -10761755.200 9  10701322.844 9
 86  6 18  2 36 11.0800000  0  4G12G 9G11G13
  21194882.890    21194889.497   -31116970.639 8  30487908.958 9
  21226064.446    21226069.276    -3289080.113 8  16536099.807 8
  24286887.069    24286893.629     4411151.148 8  22295142.244 7
  20762733.571    20762739.324   -10757242.823 9  10704838.986 8
 86  6 18  2 36 17.0800000  0  4G12G 9G11G13
  21193165.501    21193172.262   -31125993.701 9  30480878.002 8
  21229285.841    21229291.257    -3272147.377 8  16549294.143 8
  24290010.798    24290018.693     4427570.785 8  22307936.770 8
  20763595.536    20763600.485   -10752718.846 9  10708364.166 9
 86  6 18  2 36 23.0800000  0  4G12G 9G11G13
  21191453.115    21191459.717   -31134994.360 9  30473864.510 8
  21232511.305    21232516.667    -3255194.443 8  16562504.215 8
  24293134.973    24293143.474     4443988.438 8  22320729.747 8
  20764458.129    20764463.610   -10748183.220 9  10711898.436 8
 86  6 18  2 36 29.0800000  0  4G12G 9G11G13
  21189744.049    21189750.716   -31143972.534 9  30466868.519 8
  21235740.572    21235747.295    -3238221.323 9  16575730.016 8
  24296258.530    24296267.444     4460404.077 8  22333521.156 8
  20765324.060    20765328.292   -10743635.969 9  10715441.744 7
 86  6 18  2 36 35.0800000  0  4G12G 9G11G13
  21188040.740    21188046.626   -31152928.191 8  30459890.101 7
  21238975.020    21238981.711    -3221228.023 8  16588971.538 8
  24299382.232    24299392.053     4476817.715 8  22346310.997 7
  20766191.864    20766196.614   -10739077.088 9  10718994.130 9
 86  6 18  2 36 41.0800000  0  4G12G 9G11G13
  21186341.101    21186346.310   -31161861.514 8  30452929.070 9
  21242212.392    21242218.186    -3204214.812 8  16602228.579 7
  24302506.063    24302513.339     4493229.237 8  22359099.190 8
  20767061.629    20767065.725   -10734506.741 9  10722555.450 8
 86  6 18  2 36 47.0800000  0  4G12G 9G11G13
  21184645.409    21184651.264   -31170772.480 8  30445985.463 8
  21245453.651    21245460.616    -3187181.637 7  16615501.175 8
  24305627.810    24305636.359     4509638.616 8  22371885.720 7
  20767933.579    20767937.395   -10729925.008 9  10726125.634 8
 86  6 18  2 36 53.0800000  0  4G12G 9G11G13
  21182954.245    21182958.859   -31179661.025 9  30439059.326 9
  21248698.802    21248705.238    -3170128.246 9  16628789.538 8
  24308749.871    24308757.661     4526045.861 9  22384670.589 7
  20768808.128    20768811.309   -10725331.805 9  10729704.758 7
 86  6 18  2 36 59.0800000  0  4G12G 9G11G13
  21181266.441    21181272.741   -31188527.133 8  30432150.682 8
  21251948.881    21251954.365    -3153054.987 8  16642093.360 8
  24311872.414    24311879.392     4542450.992 8  22397453.806 8
  20769682.924    20769688.520   -10720727.264 9  10733292.715 9
 86  6 18  2 37  5.0800000  0  4G12G 9G11G13
  21179583.537    21179588.062   -31197370.812 8  30425259.484 9
  21255201.241    21255207.561    -3135961.803 7  16655412.727 7
  24314993.242    24315001.105     4558853.953 8  22410235.330 8
  20770561.531    20770566.474   -10716111.392 9  10736889.495 8
 86  6 18  2 37 11.0800000  0  4G12G 9G11G13
  21177905.350    21177909.783   -31206192.185 9  30418385.696 8
  21258456.583    21258464.259    -3118848.875 8  16668747.462 7
  24318114.972    24318121.234     4575254.707 9  22423015.145 8
  20771441.938    20771447.463   -10711484.213 9  10740495.102 9
 86  6 18  2 37 17.0800000  0  4G12G 9G11G13
  21176228.755    21176235.762   -31214991.076 8  30411529.409 8
  21261716.272    21261724.349    -3101715.929 8  16682097.813 8
  24321234.984    24321242.269     4591653.380 8  22435793.333 8
  20772323.682    20772329.756   -10706845.582 9  10744109.620 9
 86  6 18  2 37 23.0800000  0  4G12G 9G11G13
  21174559.590    21174566.432   -31223767.438 8  30404690.695 8
  21264980.086    21264988.868    -3084563.004 7  16695463.709 8
  24324355.100    24324363.749     4608049.919 8  22448569.858 8
  20773208.388    20773215.340   -10702195.585 8  10747732.992 8
 86  6 18  2 37 29.0800000  0  4G12G 9G11G13
  21172893.203    21172899.927   -31232521.252 8  30397869.533 8
  21268249.025    21268257.164    -3067390.181 8  16708845.122 8
  24327474.659    24327482.873     4624444.392 8  22461344.762 9
  20774095.950    20774101.543   -10697534.139 9  10751365.287 8
 86  6 18  2 37 35.0800000  0  4G12G 9G11G13
  21171232.558    21171239.326   -31241252.526 9  30391065.940 8
  21271521.847    21271528.717    -3050197.480 9  16722242.020 8
  24330594.828    24330602.173     4640836.690 8  22474117.982 8
  20774985.813    20774991.798   -10692861.295 9  10755006.478 8
 86  6 18  2 37 41.0800000  0  4G12G 9G11G13
  21169574.908    21169581.465   -31249961.242 8  30384279.933 9
  21274797.702    21274802.425    -3032985.040 8  16735654.334 8
  24333714.097    24333721.449     4657226.841 8  22486889.525 8
  20775876.482    20775882.099   -10688177.174 9  10758656.439 8
 86  6 18  2 37 47.0800000  0  4G12G 9G11G13
  21167922.335    21167929.019   -31258647.419 8  30377511.487 8
  21278076.340    21278082.889    -3015752.687 8  16749082.134 8
  24336832.855    24336839.642     4673614.753 8  22499659.326 8
  20776770.812    20776776.017   -10683481.717 8  10762315.237 9
 86  6 18  2 37 53.0800000  0  4G12G 9G11G13
  21166273.842    21166280.546   -31267311.006 9  30370760.648 8
  21281358.067    21281364.061    -2998500.591 8  16762525.314 9
  24339950.652    24339958.038     4690000.427 9  22512427.381 9
  20777666.680    20777671.681   -10678774.915 9  10765982.880 8
 86  6 18  2 37 59.0800000  0  4G12G 9G11G13
  21164629.834    21164636.763   -31275951.976 9  30364027.424 9
  21284645.175    21284652.821    -2981228.833 8  16775983.838 8
  24343069.009    24343075.139     4706383.952 8  22525193.754 9
  20778565.065    20778570.452   -10674056.794 9  10769659.340 8
 86  6 18  2 38  5.0800000  0  4G12G 9G11G13
  21162989.012    21162995.976   -31284570.287 9  30357311.860 8
  21287936.491    21287943.821    -2963937.068 8  16789457.931 7
  24346185.416    24346192.470     4722765.323 8  22537958.467 8
  20779463.909    20779469.630   -10669327.390 8  10773344.598 8
 86  6 18  2 38 11.0800000  0  4G12G 9G11G13
  21161354.357    21161359.872   -31293165.964 8  30350613.938 9
  21291230.465    21291238.599    -2946625.580 8  16802947.390 9
  24349302.989    24349308.910     4739144.510 9  22550721.469 9
  20780366.899    20780371.653   -10664586.790 9  10777038.581 8
 86  6 18  2 38 17.0800000  0  4G12G 9G11G13
  21159723.586    21159729.255   -31301739.046 9  30343933.611 8
  21294526.731    21294536.150    -2929294.566 8  16816452.076 7
  24352419.302    24352425.293     4755521.348 9  22563482.639 8
  20781270.223    20781276.240   -10659835.037 9  10780741.254 8
 86  6 18  2 38 23.0800000  0  4G12G 9G11G13
  21158095.192    21158101.555   -31310289.579 8  30337270.857 9
  21297830.205    21297837.742    -2911943.904 8  16829972.076 9
  24355535.246    24355542.474     4771895.867 9  22576242.006 9
  20782175.847    20782182.510   -10655072.145 9  10784452.591 9
 86  6 18  2 38 29.0800000  0  4G12G 9G11G13
  21156473.016    21156480.018   -31318817.606 9  30330625.650 8
  21301135.914    21301142.102    -2894573.755 8  16843507.257 8
  24358650.685    24358657.850     4788268.040 8  22588999.538 8
  20783085.467    20783090.772   -10650298.109 8  10788172.622 8
 86  6 18  2 38 35.0800000  0  4G12G 9G11G13
  21154853.904    21154860.421   -31327322.944 9  30323998.116 9
  21304444.485    21304451.680    -2877183.960 9  16857057.747 9
  24361765.988    24361772.951     4804637.896 9  22601755.257 8
  20783995.526    20784002.250   -10645512.973 8  10791901.301 8
 86  6 18  2 38 41.0800000  0  4G12G 9G11G13
  21153240.063    21153245.874   -31335805.698 8  30317388.180 8
  21307757.948    21307764.396    -2859774.614 7  16870623.463 7
  24364879.950    24364886.997     4821005.426 8  22614509.188 8
  20784908.811    20784914.564   -10640716.755 9  10795638.617 9
 86  6 18  2 38 47.0800000  0  4G12G 9G11G13
  21151629.224    21151636.758   -31344265.794 9  30310795.896 8
  21311074.478    21311080.677    -2842345.816 7  16884204.346 8
  24367995.180    24368000.709     4837370.632 9  22627261.299 9
  20785822.953    20785830.037   -10635909.431 9  10799384.592 8
 86  6 18  2 38 53.0800000  0  4G12G 9G11G13
  21150023.143    21150031.095   -31352703.223 9  30304221.278 8
  21314395.325    21314400.414    -2824897.582 8  16897800.361 8
  24371106.779    24371115.318     4853733.498 9  22640011.587 9
  20786739.494    20786746.129   -10631091.068 9  10803139.160 8
 86  6 18  2 38 59.0800000  0  4G12G 9G11G13
  21148422.228    21148430.261   -31361117.834 8  30297664.449 9
  21317719.118    21317725.240    -2807429.768 8  16911411.645 7
  24374219.781    24374229.319     4870094.071 8  22652760.089 9
  20787657.732    20787665.586   -10626261.675 9  10806902.322 9
 86  6 18  2 39  5.0800000  0  4G12G 9G11G13
  21146826.808    21146833.117   -31369509.568 9  30291125.424 9
  21321046.236    21321052.784    -2789942.354 8  16925038.192 8
  24377332.561    24377340.719     4886452.435 9  22665506.864 9
  20788579.018    20788585.838   -10621421.032 9  10810674.254 9
 86  6 18  2 39 11.0800000  0  4G12G 9G11G13
  21145234.329    21145241.248   -31377878.324 8  30284604.319 9
  21324378.387    21324383.959    -2772435.232 8  16938680.102 8
  24380446.349    24380455.007     4902808.757 8  22678252.055 8
  20789502.945    20789509.548   -10616569.044 8  10814455.022 8
 86  6 18  2 39 17.0800000  0  4G12G 9G11G13
  21143645.858    21143652.814   -31386224.013 9  30278101.187 9
  21327713.742    21327718.391    -2754908.281 8  16952337.455 7
  24383557.600    24383565.845     4919163.101 8  22690995.688 8
  20790428.898    20790435.387   -10611705.746 9  10818244.599 9
 86  6 18  2 39 23.0800000  0  4G12G 9G11G13
  21142061.731    21142068.100   -31394546.614 9  30271616.055 8
  21331051.963    21331057.707    -2737361.649 8  16966010.141 8
  24386669.877    24386677.979     4935515.393 9  22703737.735 8
  20791356.254    20791363.052   -10606831.174 9  10822042.970 9
 86  6 18  2 39 29.0800000  0  4G12G 9G11G13
  21140481.956    21140489.604   -31402846.136 8  30265148.892 9
  21334394.562    21334399.220    -2719795.359 8  16979698.162 8
  24389782.065    24389788.969     4951865.592 8  22716478.158 9
  20792285.702    20792293.190   -10601945.372 8  10825850.087 8
 86  6 18  2 39 35.0800000  0  4G12G 9G11G13
  21138907.479    21138914.391   -31411122.638 9  30258699.669 8
  21337742.481    21337747.015    -2702209.589 9  16993401.364 8
  24392893.219    24392899.432     4968213.635 9  22729216.880 9
  20793217.840    20793224.615   -10597048.483 8  10829665.841 8
 86  6 18  2 39 41.0800000  0  4G12G 9G11G13
  21137336.362    21137342.539   -31419376.234 9  30252268.296 8
  21341093.235    21341095.918    -2684604.246 8  17007119.788 8
  24396002.524    24396009.894     4984559.371 8  22741953.824 9
  20794152.184    20794158.376   -10592140.503 9  10833490.241 9
 86  6 18  2 39 47.0800000  0  4G12G 9G11G13
  21135771.163    21135776.874   -31427607.051 9  30245854.671 9
  21344445.881    21344450.886    -2666979.649 8  17020853.252 7
  24399113.306    24399120.439     5000902.705 9  22754688.880 9
  20795087.539    20795094.901   -10587221.511 9  10837323.220 8
 86  6 18  2 39 53.0800000  0  4G12G 9G11G13
  21134208.850    21134214.977   -31435815.140 8  30239458.761 8
  21347804.245    21347808.815    -2649335.816 7  17034601.696 8
  24402224.097    24402230.351     5017243.599 9  22767422.051 9
  20796025.481    20796032.204   -10582291.634 9  10841164.683 8
 86  6 18  2 39 59.0800000  0  4G12G 9G11G13
  21132650.799    21132657.957   -31444000.422 9  30233080.616 9
  21351165.907    21351169.173    -2631672.844 8  17048365.040 8
  24405332.830    24405339.020     5033582.050 9  22780153.306 9
  20796965.884    20796972.124   -10577350.888 8  10845014.617 8
 86  6 18  2 40  5.0800000  0  4G12G 9G11G13
  21131096.971    21131104.092   -31452162.961 9  30226720.193 8
  21354529.310    21354534.309    -2613990.683 8  17062143.337 7
  24408440.193    24408446.976     5049917.935 9  22792882.572 9
  20797908.547    20797914.275   -10572399.464 8  10848872.876 8
 86  6 18  2 40 11.0800000  0  4G12G 9G11G13
  21129547.972    21129555.553   -31460302.678 8  30220377.565 8
  21357897.350    21357902.396    -2596289.459 8  17075936.498 8
  24411548.056    24411556.291     5066251.266 9  22805609.837 9
  20798852.488    20798859.082   -10567437.258 8  10852739.531 9
